<?xml version="1.0" encoding="UTF-8" standalone="no" ?>
<gpx xmlns="http://www.topografix.com/GPX/1/1" xmlns:xsi="http://www.w3.org/2001/XMLSchema-instance" xsi:schemaLocation="http://www.topografix.com/GPX/1/1 http://www.topografix.com/GPX/1/1/gpx.xsd" version="1.1" creator="VisuGPX - https://www.visugpx.com">
  <metadata>
    <name>grezieux la v./cx du ban/col de la luerre</name>
    <desc><![CDATA[montée difficile, descentes engagées.
Super circuit]]></desc>
  </metadata>
  <trk>
    <name><![CDATA[30-NOV-13 16:38:31]]></name>
    <trkseg>
      <trkpt lat="45.74845" lon="4.6933">
        <ele>325.06</ele>
        <time>2013-11-30T12:44:38Z</time>
      </trkpt>
      <trkpt lat="45.74847" lon="4.69328">
        <ele>326.02</ele>
        <time>2013-11-30T12:44:50Z</time>
      </trkpt>
      <trkpt lat="45.74856" lon="4.69324">
        <ele>326.5</ele>
        <time>2013-11-30T12:49:34Z</time>
      </trkpt>
      <trkpt lat="45.7485" lon="4.69325">
        <ele>326.5</ele>
        <time>2013-11-30T12:49:41Z</time>
      </trkpt>
      <trkpt lat="45.74843" lon="4.69327">
        <ele>326.99</ele>
        <time>2013-11-30T12:49:44Z</time>
      </trkpt>
      <trkpt lat="45.74832" lon="4.69338">
        <ele>326.02</ele>
        <time>2013-11-30T12:49:48Z</time>
      </trkpt>
      <trkpt lat="45.74824" lon="4.69324">
        <ele>326.5</ele>
        <time>2013-11-30T12:49:53Z</time>
      </trkpt>
      <trkpt lat="45.74814" lon="4.6931">
        <ele>326.5</ele>
        <time>2013-11-30T12:49:57Z</time>
      </trkpt>
      <trkpt lat="45.74791" lon="4.69262">
        <ele>327.47</ele>
        <time>2013-11-30T12:50:07Z</time>
      </trkpt>
      <trkpt lat="45.74788" lon="4.69256">
        <ele>327.47</ele>
        <time>2013-11-30T12:50:08Z</time>
      </trkpt>
      <trkpt lat="45.74748" lon="4.6917">
        <ele>327.95</ele>
        <time>2013-11-30T12:50:22Z</time>
      </trkpt>
      <trkpt lat="45.74736" lon="4.6915">
        <ele>327.95</ele>
        <time>2013-11-30T12:50:26Z</time>
      </trkpt>
      <trkpt lat="45.74734" lon="4.69144">
        <ele>327.47</ele>
        <time>2013-11-30T12:50:27Z</time>
      </trkpt>
      <trkpt lat="45.74735" lon="4.69139">
        <ele>327.95</ele>
        <time>2013-11-30T12:50:28Z</time>
      </trkpt>
      <trkpt lat="45.74737" lon="4.69115">
        <ele>328.43</ele>
        <time>2013-11-30T12:50:32Z</time>
      </trkpt>
      <trkpt lat="45.74738" lon="4.69077">
        <ele>328.91</ele>
        <time>2013-11-30T12:50:39Z</time>
      </trkpt>
      <trkpt lat="45.7474" lon="4.69076">
        <ele>328.91</ele>
        <time>2013-11-30T12:50:40Z</time>
      </trkpt>
      <trkpt lat="45.74741" lon="4.69076">
        <ele>328.91</ele>
        <time>2013-11-30T12:50:41Z</time>
      </trkpt>
      <trkpt lat="45.74743" lon="4.69076">
        <ele>328.91</ele>
        <time>2013-11-30T12:50:42Z</time>
      </trkpt>
      <trkpt lat="45.74745" lon="4.69076">
        <ele>329.39</ele>
        <time>2013-11-30T12:50:43Z</time>
      </trkpt>
      <trkpt lat="45.74746" lon="4.69076">
        <ele>329.87</ele>
        <time>2013-11-30T12:50:44Z</time>
      </trkpt>
      <trkpt lat="45.74748" lon="4.69077">
        <ele>329.87</ele>
        <time>2013-11-30T12:50:45Z</time>
      </trkpt>
      <trkpt lat="45.7477" lon="4.69084">
        <ele>331.31</ele>
        <time>2013-11-30T12:50:54Z</time>
      </trkpt>
      <trkpt lat="45.7479" lon="4.6909">
        <ele>332.27</ele>
        <time>2013-11-30T12:51:03Z</time>
      </trkpt>
      <trkpt lat="45.7481" lon="4.69091">
        <ele>333.71</ele>
        <time>2013-11-30T12:51:11Z</time>
      </trkpt>
      <trkpt lat="45.74821" lon="4.69086">
        <ele>333.23</ele>
        <time>2013-11-30T12:51:15Z</time>
      </trkpt>
      <trkpt lat="45.74822" lon="4.69083">
        <ele>333.71</ele>
        <time>2013-11-30T12:51:16Z</time>
      </trkpt>
      <trkpt lat="45.74823" lon="4.6908">
        <ele>333.71</ele>
        <time>2013-11-30T12:51:17Z</time>
      </trkpt>
      <trkpt lat="45.74824" lon="4.69077">
        <ele>334.2</ele>
        <time>2013-11-30T12:51:18Z</time>
      </trkpt>
      <trkpt lat="45.74825" lon="4.69074">
        <ele>334.2</ele>
        <time>2013-11-30T12:51:19Z</time>
      </trkpt>
      <trkpt lat="45.7483" lon="4.69057">
        <ele>334.2</ele>
        <time>2013-11-30T12:51:24Z</time>
      </trkpt>
      <trkpt lat="45.74829" lon="4.69025">
        <ele>335.64</ele>
        <time>2013-11-30T12:51:32Z</time>
      </trkpt>
      <trkpt lat="45.74826" lon="4.69003">
        <ele>335.16</ele>
        <time>2013-11-30T12:51:37Z</time>
      </trkpt>
      <trkpt lat="45.74826" lon="4.68999">
        <ele>334.68</ele>
        <time>2013-11-30T12:51:38Z</time>
      </trkpt>
      <trkpt lat="45.74828" lon="4.68996">
        <ele>334.68</ele>
        <time>2013-11-30T12:51:39Z</time>
      </trkpt>
      <trkpt lat="45.74831" lon="4.68993">
        <ele>335.64</ele>
        <time>2013-11-30T12:51:40Z</time>
      </trkpt>
      <trkpt lat="45.74834" lon="4.68992">
        <ele>335.64</ele>
        <time>2013-11-30T12:51:41Z</time>
      </trkpt>
      <trkpt lat="45.74837" lon="4.6899">
        <ele>335.64</ele>
        <time>2013-11-30T12:51:42Z</time>
      </trkpt>
      <trkpt lat="45.7484" lon="4.68989">
        <ele>336.6</ele>
        <time>2013-11-30T12:51:43Z</time>
      </trkpt>
      <trkpt lat="45.74866" lon="4.68978">
        <ele>337.56</ele>
        <time>2013-11-30T12:51:52Z</time>
      </trkpt>
      <trkpt lat="45.7489" lon="4.68985">
        <ele>338.04</ele>
        <time>2013-11-30T12:52:00Z</time>
      </trkpt>
      <trkpt lat="45.7492" lon="4.68994">
        <ele>339</ele>
        <time>2013-11-30T12:52:10Z</time>
      </trkpt>
      <trkpt lat="45.7495" lon="4.69003">
        <ele>338.04</ele>
        <time>2013-11-30T12:52:20Z</time>
      </trkpt>
      <trkpt lat="45.74986" lon="4.69011">
        <ele>336.12</ele>
        <time>2013-11-30T12:52:29Z</time>
      </trkpt>
      <trkpt lat="45.74996" lon="4.69013">
        <ele>332.75</ele>
        <time>2013-11-30T12:52:36Z</time>
      </trkpt>
      <trkpt lat="45.75" lon="4.69014">
        <ele>336.6</ele>
        <time>2013-11-30T12:52:38Z</time>
      </trkpt>
      <trkpt lat="45.75002" lon="4.69014">
        <ele>336.12</ele>
        <time>2013-11-30T12:52:39Z</time>
      </trkpt>
      <trkpt lat="45.75008" lon="4.69014">
        <ele>337.08</ele>
        <time>2013-11-30T12:52:41Z</time>
      </trkpt>
      <trkpt lat="45.75014" lon="4.69014">
        <ele>335.64</ele>
        <time>2013-11-30T12:52:43Z</time>
      </trkpt>
      <trkpt lat="45.75022" lon="4.69014">
        <ele>336.12</ele>
        <time>2013-11-30T12:52:45Z</time>
      </trkpt>
      <trkpt lat="45.75027" lon="4.69014">
        <ele>335.16</ele>
        <time>2013-11-30T12:52:46Z</time>
      </trkpt>
      <trkpt lat="45.75031" lon="4.69015">
        <ele>335.16</ele>
        <time>2013-11-30T12:52:47Z</time>
      </trkpt>
      <trkpt lat="45.75074" lon="4.69023">
        <ele>334.68</ele>
        <time>2013-11-30T12:52:57Z</time>
      </trkpt>
      <trkpt lat="45.75087" lon="4.69027">
        <ele>333.23</ele>
        <time>2013-11-30T12:53:00Z</time>
      </trkpt>
      <trkpt lat="45.75147" lon="4.69035">
        <ele>332.75</ele>
        <time>2013-11-30T12:53:10Z</time>
      </trkpt>
      <trkpt lat="45.75165" lon="4.69033">
        <ele>330.35</ele>
        <time>2013-11-30T12:53:13Z</time>
      </trkpt>
      <trkpt lat="45.75194" lon="4.69024">
        <ele>327.47</ele>
        <time>2013-11-30T12:53:18Z</time>
      </trkpt>
      <trkpt lat="45.75199" lon="4.6902">
        <ele>326.5</ele>
        <time>2013-11-30T12:53:19Z</time>
      </trkpt>
      <trkpt lat="45.75209" lon="4.69012">
        <ele>325.06</ele>
        <time>2013-11-30T12:53:21Z</time>
      </trkpt>
      <trkpt lat="45.75223" lon="4.69002">
        <ele>324.1</ele>
        <time>2013-11-30T12:53:24Z</time>
      </trkpt>
      <trkpt lat="45.75228" lon="4.69">
        <ele>323.14</ele>
        <time>2013-11-30T12:53:25Z</time>
      </trkpt>
      <trkpt lat="45.75242" lon="4.68994">
        <ele>321.7</ele>
        <time>2013-11-30T12:53:28Z</time>
      </trkpt>
      <trkpt lat="45.75264" lon="4.68982">
        <ele>318.33</ele>
        <time>2013-11-30T12:53:33Z</time>
      </trkpt>
      <trkpt lat="45.75277" lon="4.68976">
        <ele>315.93</ele>
        <time>2013-11-30T12:53:36Z</time>
      </trkpt>
      <trkpt lat="45.75281" lon="4.68973">
        <ele>315.93</ele>
        <time>2013-11-30T12:53:37Z</time>
      </trkpt>
      <trkpt lat="45.75286" lon="4.6897">
        <ele>315.45</ele>
        <time>2013-11-30T12:53:38Z</time>
      </trkpt>
      <trkpt lat="45.75306" lon="4.68961">
        <ele>313.53</ele>
        <time>2013-11-30T12:53:42Z</time>
      </trkpt>
      <trkpt lat="45.75311" lon="4.68958">
        <ele>311.6</ele>
        <time>2013-11-30T12:53:43Z</time>
      </trkpt>
      <trkpt lat="45.75325" lon="4.6895">
        <ele>307.28</ele>
        <time>2013-11-30T12:53:46Z</time>
      </trkpt>
      <trkpt lat="45.75335" lon="4.68943">
        <ele>303.91</ele>
        <time>2013-11-30T12:53:48Z</time>
      </trkpt>
      <trkpt lat="45.75345" lon="4.68937">
        <ele>301.51</ele>
        <time>2013-11-30T12:53:50Z</time>
      </trkpt>
      <trkpt lat="45.75349" lon="4.68934">
        <ele>300.07</ele>
        <time>2013-11-30T12:53:51Z</time>
      </trkpt>
      <trkpt lat="45.75359" lon="4.68928">
        <ele>296.7</ele>
        <time>2013-11-30T12:53:53Z</time>
      </trkpt>
      <trkpt lat="45.75365" lon="4.68923">
        <ele>294.3</ele>
        <time>2013-11-30T12:53:55Z</time>
      </trkpt>
      <trkpt lat="45.75369" lon="4.68924">
        <ele>293.34</ele>
        <time>2013-11-30T12:53:56Z</time>
      </trkpt>
      <trkpt lat="45.75372" lon="4.68926">
        <ele>291.42</ele>
        <time>2013-11-30T12:53:57Z</time>
      </trkpt>
      <trkpt lat="45.75375" lon="4.68931">
        <ele>290.46</ele>
        <time>2013-11-30T12:53:58Z</time>
      </trkpt>
      <trkpt lat="45.75379" lon="4.68938">
        <ele>289.49</ele>
        <time>2013-11-30T12:53:59Z</time>
      </trkpt>
      <trkpt lat="45.75383" lon="4.68942">
        <ele>289.01</ele>
        <time>2013-11-30T12:54:00Z</time>
      </trkpt>
      <trkpt lat="45.75386" lon="4.68946">
        <ele>288.05</ele>
        <time>2013-11-30T12:54:01Z</time>
      </trkpt>
      <trkpt lat="45.75388" lon="4.68948">
        <ele>288.05</ele>
        <time>2013-11-30T12:54:02Z</time>
      </trkpt>
      <trkpt lat="45.75393" lon="4.68953">
        <ele>287.57</ele>
        <time>2013-11-30T12:54:08Z</time>
      </trkpt>
      <trkpt lat="45.75403" lon="4.68955">
        <ele>288.05</ele>
        <time>2013-11-30T12:54:18Z</time>
      </trkpt>
      <trkpt lat="45.75404" lon="4.68955">
        <ele>288.05</ele>
        <time>2013-11-30T12:54:19Z</time>
      </trkpt>
      <trkpt lat="45.75406" lon="4.68949">
        <ele>288.53</ele>
        <time>2013-11-30T12:54:26Z</time>
      </trkpt>
      <trkpt lat="45.75408" lon="4.6894">
        <ele>290.46</ele>
        <time>2013-11-30T12:54:34Z</time>
      </trkpt>
      <trkpt lat="45.75408" lon="4.68939">
        <ele>289.97</ele>
        <time>2013-11-30T12:54:47Z</time>
      </trkpt>
      <trkpt lat="45.75408" lon="4.68935">
        <ele>290.46</ele>
        <time>2013-11-30T12:54:59Z</time>
      </trkpt>
      <trkpt lat="45.75407" lon="4.68933">
        <ele>289.97</ele>
        <time>2013-11-30T12:55:00Z</time>
      </trkpt>
      <trkpt lat="45.75407" lon="4.6893">
        <ele>290.46</ele>
        <time>2013-11-30T12:55:02Z</time>
      </trkpt>
      <trkpt lat="45.75407" lon="4.68928">
        <ele>290.94</ele>
        <time>2013-11-30T12:55:03Z</time>
      </trkpt>
      <trkpt lat="45.75407" lon="4.68905">
        <ele>290.94</ele>
        <time>2013-11-30T12:55:11Z</time>
      </trkpt>
      <trkpt lat="45.75407" lon="4.68903">
        <ele>290.94</ele>
        <time>2013-11-30T12:55:12Z</time>
      </trkpt>
      <trkpt lat="45.75409" lon="4.68899">
        <ele>291.42</ele>
        <time>2013-11-30T12:55:20Z</time>
      </trkpt>
      <trkpt lat="45.75411" lon="4.68894">
        <ele>292.86</ele>
        <time>2013-11-30T12:55:29Z</time>
      </trkpt>
      <trkpt lat="45.75414" lon="4.68888">
        <ele>293.34</ele>
        <time>2013-11-30T12:55:38Z</time>
      </trkpt>
      <trkpt lat="45.7542" lon="4.68878">
        <ele>295.74</ele>
        <time>2013-11-30T12:55:47Z</time>
      </trkpt>
      <trkpt lat="45.75426" lon="4.68873">
        <ele>297.67</ele>
        <time>2013-11-30T12:55:58Z</time>
      </trkpt>
      <trkpt lat="45.75434" lon="4.68871">
        <ele>299.11</ele>
        <time>2013-11-30T12:56:10Z</time>
      </trkpt>
      <trkpt lat="45.75439" lon="4.68869">
        <ele>300.07</ele>
        <time>2013-11-30T12:56:24Z</time>
      </trkpt>
      <trkpt lat="45.7544" lon="4.68869">
        <ele>301.03</ele>
        <time>2013-11-30T12:56:42Z</time>
      </trkpt>
      <trkpt lat="45.75444" lon="4.68866">
        <ele>301.51</ele>
        <time>2013-11-30T12:56:57Z</time>
      </trkpt>
      <trkpt lat="45.75451" lon="4.68863">
        <ele>303.91</ele>
        <time>2013-11-30T12:57:08Z</time>
      </trkpt>
      <trkpt lat="45.7546" lon="4.68859">
        <ele>305.84</ele>
        <time>2013-11-30T12:57:19Z</time>
      </trkpt>
      <trkpt lat="45.75466" lon="4.68853">
        <ele>306.8</ele>
        <time>2013-11-30T12:57:28Z</time>
      </trkpt>
      <trkpt lat="45.75473" lon="4.68849">
        <ele>308.24</ele>
        <time>2013-11-30T12:57:39Z</time>
      </trkpt>
      <trkpt lat="45.75474" lon="4.68848">
        <ele>309.68</ele>
        <time>2013-11-30T12:57:42Z</time>
      </trkpt>
      <trkpt lat="45.75483" lon="4.68845">
        <ele>311.6</ele>
        <time>2013-11-30T12:57:51Z</time>
      </trkpt>
      <trkpt lat="45.75489" lon="4.68845">
        <ele>312.09</ele>
        <time>2013-11-30T12:57:58Z</time>
      </trkpt>
      <trkpt lat="45.75497" lon="4.68843">
        <ele>313.53</ele>
        <time>2013-11-30T12:58:08Z</time>
      </trkpt>
      <trkpt lat="45.75509" lon="4.68841">
        <ele>315.93</ele>
        <time>2013-11-30T12:58:20Z</time>
      </trkpt>
      <trkpt lat="45.7551" lon="4.68841">
        <ele>315.93</ele>
        <time>2013-11-30T12:58:21Z</time>
      </trkpt>
      <trkpt lat="45.75518" lon="4.68835">
        <ele>316.89</ele>
        <time>2013-11-30T12:58:30Z</time>
      </trkpt>
      <trkpt lat="45.75527" lon="4.68836">
        <ele>318.33</ele>
        <time>2013-11-30T12:58:42Z</time>
      </trkpt>
      <trkpt lat="45.75527" lon="4.68836">
        <ele>318.81</ele>
        <time>2013-11-30T12:58:43Z</time>
      </trkpt>
      <trkpt lat="45.75533" lon="4.68836">
        <ele>318.81</ele>
        <time>2013-11-30T12:58:48Z</time>
      </trkpt>
      <trkpt lat="45.75546" lon="4.68836">
        <ele>320.74</ele>
        <time>2013-11-30T12:58:59Z</time>
      </trkpt>
      <trkpt lat="45.75554" lon="4.68837">
        <ele>321.22</ele>
        <time>2013-11-30T12:59:09Z</time>
      </trkpt>
      <trkpt lat="45.75575" lon="4.68837">
        <ele>323.62</ele>
        <time>2013-11-30T12:59:20Z</time>
      </trkpt>
      <trkpt lat="45.75577" lon="4.68836">
        <ele>323.14</ele>
        <time>2013-11-30T12:59:21Z</time>
      </trkpt>
      <trkpt lat="45.75602" lon="4.68836">
        <ele>325.54</ele>
        <time>2013-11-30T12:59:34Z</time>
      </trkpt>
      <trkpt lat="45.75623" lon="4.68836">
        <ele>327.95</ele>
        <time>2013-11-30T12:59:44Z</time>
      </trkpt>
      <trkpt lat="45.75635" lon="4.68836">
        <ele>329.39</ele>
        <time>2013-11-30T12:59:49Z</time>
      </trkpt>
      <trkpt lat="45.75654" lon="4.68838">
        <ele>330.35</ele>
        <time>2013-11-30T12:59:57Z</time>
      </trkpt>
      <trkpt lat="45.75681" lon="4.68841">
        <ele>330.83</ele>
        <time>2013-11-30T13:00:08Z</time>
      </trkpt>
      <trkpt lat="45.75699" lon="4.68842">
        <ele>332.27</ele>
        <time>2013-11-30T13:00:14Z</time>
      </trkpt>
      <trkpt lat="45.75735" lon="4.68843">
        <ele>332.75</ele>
        <time>2013-11-30T13:00:26Z</time>
      </trkpt>
      <trkpt lat="45.75777" lon="4.6885">
        <ele>333.23</ele>
        <time>2013-11-30T13:00:38Z</time>
      </trkpt>
      <trkpt lat="45.75789" lon="4.68853">
        <ele>332.27</ele>
        <time>2013-11-30T13:00:41Z</time>
      </trkpt>
      <trkpt lat="45.75793" lon="4.68854">
        <ele>332.27</ele>
        <time>2013-11-30T13:00:42Z</time>
      </trkpt>
      <trkpt lat="45.75797" lon="4.68856">
        <ele>332.27</ele>
        <time>2013-11-30T13:00:43Z</time>
      </trkpt>
      <trkpt lat="45.75801" lon="4.68856">
        <ele>331.79</ele>
        <time>2013-11-30T13:00:44Z</time>
      </trkpt>
      <trkpt lat="45.75806" lon="4.68856">
        <ele>332.75</ele>
        <time>2013-11-30T13:00:45Z</time>
      </trkpt>
      <trkpt lat="45.75827" lon="4.68861">
        <ele>332.27</ele>
        <time>2013-11-30T13:00:50Z</time>
      </trkpt>
      <trkpt lat="45.75876" lon="4.68865">
        <ele>328.91</ele>
        <time>2013-11-30T13:01:02Z</time>
      </trkpt>
      <trkpt lat="45.75889" lon="4.68858">
        <ele>330.83</ele>
        <time>2013-11-30T13:01:06Z</time>
      </trkpt>
      <trkpt lat="45.75892" lon="4.68854">
        <ele>330.35</ele>
        <time>2013-11-30T13:01:07Z</time>
      </trkpt>
      <trkpt lat="45.75916" lon="4.68822">
        <ele>328.91</ele>
        <time>2013-11-30T13:01:16Z</time>
      </trkpt>
      <trkpt lat="45.75953" lon="4.68796">
        <ele>329.87</ele>
        <time>2013-11-30T13:01:28Z</time>
      </trkpt>
      <trkpt lat="45.75993" lon="4.68806">
        <ele>328.91</ele>
        <time>2013-11-30T13:01:37Z</time>
      </trkpt>
      <trkpt lat="45.76002" lon="4.6881">
        <ele>327.47</ele>
        <time>2013-11-30T13:01:39Z</time>
      </trkpt>
      <trkpt lat="45.76007" lon="4.68812">
        <ele>326.99</ele>
        <time>2013-11-30T13:01:40Z</time>
      </trkpt>
      <trkpt lat="45.7601" lon="4.68816">
        <ele>327.47</ele>
        <time>2013-11-30T13:01:41Z</time>
      </trkpt>
      <trkpt lat="45.76014" lon="4.68819">
        <ele>326.02</ele>
        <time>2013-11-30T13:01:42Z</time>
      </trkpt>
      <trkpt lat="45.76017" lon="4.68824">
        <ele>326.02</ele>
        <time>2013-11-30T13:01:43Z</time>
      </trkpt>
      <trkpt lat="45.76021" lon="4.68829">
        <ele>326.02</ele>
        <time>2013-11-30T13:01:44Z</time>
      </trkpt>
      <trkpt lat="45.76024" lon="4.68835">
        <ele>324.58</ele>
        <time>2013-11-30T13:01:45Z</time>
      </trkpt>
      <trkpt lat="45.76027" lon="4.68843">
        <ele>324.58</ele>
        <time>2013-11-30T13:01:46Z</time>
      </trkpt>
      <trkpt lat="45.76029" lon="4.68851">
        <ele>324.1</ele>
        <time>2013-11-30T13:01:47Z</time>
      </trkpt>
      <trkpt lat="45.7603" lon="4.6886">
        <ele>323.14</ele>
        <time>2013-11-30T13:01:48Z</time>
      </trkpt>
      <trkpt lat="45.76029" lon="4.68869">
        <ele>323.14</ele>
        <time>2013-11-30T13:01:49Z</time>
      </trkpt>
      <trkpt lat="45.76026" lon="4.68877">
        <ele>321.7</ele>
        <time>2013-11-30T13:01:50Z</time>
      </trkpt>
      <trkpt lat="45.76023" lon="4.68886">
        <ele>321.22</ele>
        <time>2013-11-30T13:01:51Z</time>
      </trkpt>
      <trkpt lat="45.76019" lon="4.68894">
        <ele>321.7</ele>
        <time>2013-11-30T13:01:52Z</time>
      </trkpt>
      <trkpt lat="45.76005" lon="4.68924">
        <ele>318.33</ele>
        <time>2013-11-30T13:01:55Z</time>
      </trkpt>
      <trkpt lat="45.75991" lon="4.68954">
        <ele>314.97</ele>
        <time>2013-11-30T13:01:58Z</time>
      </trkpt>
      <trkpt lat="45.75969" lon="4.69012">
        <ele>311.6</ele>
        <time>2013-11-30T13:02:03Z</time>
      </trkpt>
      <trkpt lat="45.75966" lon="4.69025">
        <ele>310.64</ele>
        <time>2013-11-30T13:02:04Z</time>
      </trkpt>
      <trkpt lat="45.75964" lon="4.69038">
        <ele>309.68</ele>
        <time>2013-11-30T13:02:05Z</time>
      </trkpt>
      <trkpt lat="45.75962" lon="4.69052">
        <ele>308.24</ele>
        <time>2013-11-30T13:02:06Z</time>
      </trkpt>
      <trkpt lat="45.75961" lon="4.69066">
        <ele>307.76</ele>
        <time>2013-11-30T13:02:07Z</time>
      </trkpt>
      <trkpt lat="45.75962" lon="4.69079">
        <ele>306.8</ele>
        <time>2013-11-30T13:02:08Z</time>
      </trkpt>
      <trkpt lat="45.75963" lon="4.69093">
        <ele>306.32</ele>
        <time>2013-11-30T13:02:09Z</time>
      </trkpt>
      <trkpt lat="45.75964" lon="4.69106">
        <ele>306.8</ele>
        <time>2013-11-30T13:02:10Z</time>
      </trkpt>
      <trkpt lat="45.75969" lon="4.69131">
        <ele>302.95</ele>
        <time>2013-11-30T13:02:12Z</time>
      </trkpt>
      <trkpt lat="45.75983" lon="4.69193">
        <ele>298.63</ele>
        <time>2013-11-30T13:02:17Z</time>
      </trkpt>
      <trkpt lat="45.75994" lon="4.69223">
        <ele>295.26</ele>
        <time>2013-11-30T13:02:20Z</time>
      </trkpt>
      <trkpt lat="45.75999" lon="4.69229">
        <ele>293.82</ele>
        <time>2013-11-30T13:02:21Z</time>
      </trkpt>
      <trkpt lat="45.76005" lon="4.69234">
        <ele>293.34</ele>
        <time>2013-11-30T13:02:22Z</time>
      </trkpt>
      <trkpt lat="45.76011" lon="4.69236">
        <ele>292.38</ele>
        <time>2013-11-30T13:02:23Z</time>
      </trkpt>
      <trkpt lat="45.76017" lon="4.69237">
        <ele>291.9</ele>
        <time>2013-11-30T13:02:24Z</time>
      </trkpt>
      <trkpt lat="45.76023" lon="4.69235">
        <ele>290.94</ele>
        <time>2013-11-30T13:02:25Z</time>
      </trkpt>
      <trkpt lat="45.76029" lon="4.69233">
        <ele>289.49</ele>
        <time>2013-11-30T13:02:26Z</time>
      </trkpt>
      <trkpt lat="45.76035" lon="4.69232">
        <ele>289.01</ele>
        <time>2013-11-30T13:02:27Z</time>
      </trkpt>
      <trkpt lat="45.76041" lon="4.69231">
        <ele>288.53</ele>
        <time>2013-11-30T13:02:28Z</time>
      </trkpt>
      <trkpt lat="45.76046" lon="4.69229">
        <ele>288.05</ele>
        <time>2013-11-30T13:02:29Z</time>
      </trkpt>
      <trkpt lat="45.76052" lon="4.69227">
        <ele>287.57</ele>
        <time>2013-11-30T13:02:30Z</time>
      </trkpt>
      <trkpt lat="45.76091" lon="4.69212">
        <ele>286.61</ele>
        <time>2013-11-30T13:02:38Z</time>
      </trkpt>
      <trkpt lat="45.76095" lon="4.69209">
        <ele>287.09</ele>
        <time>2013-11-30T13:02:39Z</time>
      </trkpt>
      <trkpt lat="45.76099" lon="4.69205">
        <ele>287.09</ele>
        <time>2013-11-30T13:02:40Z</time>
      </trkpt>
      <trkpt lat="45.76102" lon="4.69201">
        <ele>287.09</ele>
        <time>2013-11-30T13:02:41Z</time>
      </trkpt>
      <trkpt lat="45.76105" lon="4.69196">
        <ele>286.61</ele>
        <time>2013-11-30T13:02:42Z</time>
      </trkpt>
      <trkpt lat="45.76123" lon="4.69165">
        <ele>287.57</ele>
        <time>2013-11-30T13:02:51Z</time>
      </trkpt>
      <trkpt lat="45.76135" lon="4.69141">
        <ele>288.53</ele>
        <time>2013-11-30T13:02:59Z</time>
      </trkpt>
      <trkpt lat="45.76137" lon="4.69138">
        <ele>289.01</ele>
        <time>2013-11-30T13:03:00Z</time>
      </trkpt>
      <trkpt lat="45.76154" lon="4.69104">
        <ele>289.01</ele>
        <time>2013-11-30T13:03:12Z</time>
      </trkpt>
      <trkpt lat="45.7617" lon="4.69082">
        <ele>289.49</ele>
        <time>2013-11-30T13:03:21Z</time>
      </trkpt>
      <trkpt lat="45.76183" lon="4.69063">
        <ele>290.94</ele>
        <time>2013-11-30T13:03:29Z</time>
      </trkpt>
      <trkpt lat="45.76201" lon="4.69037">
        <ele>290.94</ele>
        <time>2013-11-30T13:03:38Z</time>
      </trkpt>
      <trkpt lat="45.76224" lon="4.69019">
        <ele>291.9</ele>
        <time>2013-11-30T13:03:48Z</time>
      </trkpt>
      <trkpt lat="45.76245" lon="4.69003">
        <ele>292.38</ele>
        <time>2013-11-30T13:03:57Z</time>
      </trkpt>
      <trkpt lat="45.76259" lon="4.68978">
        <ele>293.34</ele>
        <time>2013-11-30T13:04:06Z</time>
      </trkpt>
      <trkpt lat="45.76265" lon="4.68952">
        <ele>294.3</ele>
        <time>2013-11-30T13:04:14Z</time>
      </trkpt>
      <trkpt lat="45.76265" lon="4.6895">
        <ele>293.82</ele>
        <time>2013-11-30T13:04:15Z</time>
      </trkpt>
      <trkpt lat="45.76266" lon="4.68947">
        <ele>293.82</ele>
        <time>2013-11-30T13:04:16Z</time>
      </trkpt>
      <trkpt lat="45.76269" lon="4.68917">
        <ele>294.3</ele>
        <time>2013-11-30T13:04:25Z</time>
      </trkpt>
      <trkpt lat="45.7627" lon="4.68914">
        <ele>294.78</ele>
        <time>2013-11-30T13:04:26Z</time>
      </trkpt>
      <trkpt lat="45.7627" lon="4.68911">
        <ele>294.78</ele>
        <time>2013-11-30T13:04:27Z</time>
      </trkpt>
      <trkpt lat="45.76271" lon="4.68908">
        <ele>294.78</ele>
        <time>2013-11-30T13:04:28Z</time>
      </trkpt>
      <trkpt lat="45.76272" lon="4.68905">
        <ele>294.78</ele>
        <time>2013-11-30T13:04:29Z</time>
      </trkpt>
      <trkpt lat="45.76273" lon="4.68902">
        <ele>295.74</ele>
        <time>2013-11-30T13:04:30Z</time>
      </trkpt>
      <trkpt lat="45.76277" lon="4.68892">
        <ele>295.74</ele>
        <time>2013-11-30T13:04:34Z</time>
      </trkpt>
      <trkpt lat="45.76278" lon="4.6889">
        <ele>295.26</ele>
        <time>2013-11-30T13:04:35Z</time>
      </trkpt>
      <trkpt lat="45.7628" lon="4.68888">
        <ele>294.78</ele>
        <time>2013-11-30T13:04:36Z</time>
      </trkpt>
      <trkpt lat="45.76285" lon="4.68883">
        <ele>293.82</ele>
        <time>2013-11-30T13:04:43Z</time>
      </trkpt>
      <trkpt lat="45.76285" lon="4.68883">
        <ele>294.3</ele>
        <time>2013-11-30T13:05:01Z</time>
      </trkpt>
      <trkpt lat="45.76285" lon="4.68883">
        <ele>295.26</ele>
        <time>2013-11-30T13:05:14Z</time>
      </trkpt>
      <trkpt lat="45.76285" lon="4.68884">
        <ele>294.78</ele>
        <time>2013-11-30T13:05:23Z</time>
      </trkpt>
      <trkpt lat="45.76286" lon="4.68882">
        <ele>294.78</ele>
        <time>2013-11-30T13:05:27Z</time>
      </trkpt>
      <trkpt lat="45.76287" lon="4.68881">
        <ele>294.78</ele>
        <time>2013-11-30T13:05:28Z</time>
      </trkpt>
      <trkpt lat="45.76291" lon="4.68878">
        <ele>294.3</ele>
        <time>2013-11-30T13:05:30Z</time>
      </trkpt>
      <trkpt lat="45.76294" lon="4.68877">
        <ele>294.3</ele>
        <time>2013-11-30T13:05:31Z</time>
      </trkpt>
      <trkpt lat="45.76296" lon="4.68877">
        <ele>294.3</ele>
        <time>2013-11-30T13:05:32Z</time>
      </trkpt>
      <trkpt lat="45.76298" lon="4.68877">
        <ele>294.3</ele>
        <time>2013-11-30T13:05:33Z</time>
      </trkpt>
      <trkpt lat="45.763" lon="4.68876">
        <ele>294.3</ele>
        <time>2013-11-30T13:05:34Z</time>
      </trkpt>
      <trkpt lat="45.76302" lon="4.68876">
        <ele>294.3</ele>
        <time>2013-11-30T13:05:35Z</time>
      </trkpt>
      <trkpt lat="45.76304" lon="4.68877">
        <ele>294.78</ele>
        <time>2013-11-30T13:05:36Z</time>
      </trkpt>
      <trkpt lat="45.76306" lon="4.68878">
        <ele>295.26</ele>
        <time>2013-11-30T13:05:37Z</time>
      </trkpt>
      <trkpt lat="45.7632" lon="4.68886">
        <ele>296.7</ele>
        <time>2013-11-30T13:05:45Z</time>
      </trkpt>
      <trkpt lat="45.76329" lon="4.68892">
        <ele>297.18</ele>
        <time>2013-11-30T13:05:50Z</time>
      </trkpt>
      <trkpt lat="45.7633" lon="4.68893">
        <ele>297.67</ele>
        <time>2013-11-30T13:05:51Z</time>
      </trkpt>
      <trkpt lat="45.76332" lon="4.68894">
        <ele>297.67</ele>
        <time>2013-11-30T13:05:52Z</time>
      </trkpt>
      <trkpt lat="45.76333" lon="4.68895">
        <ele>298.15</ele>
        <time>2013-11-30T13:05:53Z</time>
      </trkpt>
      <trkpt lat="45.76335" lon="4.68896">
        <ele>298.15</ele>
        <time>2013-11-30T13:05:54Z</time>
      </trkpt>
      <trkpt lat="45.76343" lon="4.68901">
        <ele>300.55</ele>
        <time>2013-11-30T13:05:59Z</time>
      </trkpt>
      <trkpt lat="45.76347" lon="4.68903">
        <ele>301.03</ele>
        <time>2013-11-30T13:06:02Z</time>
      </trkpt>
      <trkpt lat="45.76348" lon="4.68903">
        <ele>301.51</ele>
        <time>2013-11-30T13:06:03Z</time>
      </trkpt>
      <trkpt lat="45.7635" lon="4.68903">
        <ele>301.99</ele>
        <time>2013-11-30T13:06:04Z</time>
      </trkpt>
      <trkpt lat="45.76352" lon="4.68903">
        <ele>302.47</ele>
        <time>2013-11-30T13:06:05Z</time>
      </trkpt>
      <trkpt lat="45.76353" lon="4.68903">
        <ele>302.47</ele>
        <time>2013-11-30T13:06:06Z</time>
      </trkpt>
      <trkpt lat="45.76364" lon="4.68905">
        <ele>304.39</ele>
        <time>2013-11-30T13:06:17Z</time>
      </trkpt>
      <trkpt lat="45.7637" lon="4.68907">
        <ele>305.36</ele>
        <time>2013-11-30T13:06:27Z</time>
      </trkpt>
      <trkpt lat="45.76376" lon="4.68907">
        <ele>307.28</ele>
        <time>2013-11-30T13:06:35Z</time>
      </trkpt>
      <trkpt lat="45.76384" lon="4.68909">
        <ele>308.72</ele>
        <time>2013-11-30T13:06:46Z</time>
      </trkpt>
      <trkpt lat="45.7639" lon="4.68912">
        <ele>309.68</ele>
        <time>2013-11-30T13:06:56Z</time>
      </trkpt>
      <trkpt lat="45.76398" lon="4.68914">
        <ele>310.64</ele>
        <time>2013-11-30T13:07:06Z</time>
      </trkpt>
      <trkpt lat="45.76407" lon="4.68915">
        <ele>316.89</ele>
        <time>2013-11-30T13:07:16Z</time>
      </trkpt>
      <trkpt lat="45.76407" lon="4.68915">
        <ele>313.53</ele>
        <time>2013-11-30T13:07:17Z</time>
      </trkpt>
      <trkpt lat="45.76413" lon="4.68916">
        <ele>309.2</ele>
        <time>2013-11-30T13:07:23Z</time>
      </trkpt>
      <trkpt lat="45.76413" lon="4.68916">
        <ele>313.53</ele>
        <time>2013-11-30T13:07:24Z</time>
      </trkpt>
      <trkpt lat="45.76413" lon="4.68916">
        <ele>317.37</ele>
        <time>2013-11-30T13:07:27Z</time>
      </trkpt>
      <trkpt lat="45.76413" lon="4.68916">
        <ele>314.01</ele>
        <time>2013-11-30T13:07:28Z</time>
      </trkpt>
      <trkpt lat="45.76421" lon="4.68918">
        <ele>315.45</ele>
        <time>2013-11-30T13:07:37Z</time>
      </trkpt>
      <trkpt lat="45.76428" lon="4.68916">
        <ele>316.41</ele>
        <time>2013-11-30T13:07:46Z</time>
      </trkpt>
      <trkpt lat="45.76436" lon="4.68918">
        <ele>317.85</ele>
        <time>2013-11-30T13:07:55Z</time>
      </trkpt>
      <trkpt lat="45.76448" lon="4.68918">
        <ele>318.81</ele>
        <time>2013-11-30T13:08:06Z</time>
      </trkpt>
      <trkpt lat="45.76455" lon="4.68917">
        <ele>319.78</ele>
        <time>2013-11-30T13:08:17Z</time>
      </trkpt>
      <trkpt lat="45.76469" lon="4.68919">
        <ele>321.7</ele>
        <time>2013-11-30T13:08:27Z</time>
      </trkpt>
      <trkpt lat="45.76484" lon="4.68921">
        <ele>323.14</ele>
        <time>2013-11-30T13:08:37Z</time>
      </trkpt>
      <trkpt lat="45.76486" lon="4.68921">
        <ele>322.66</ele>
        <time>2013-11-30T13:08:38Z</time>
      </trkpt>
      <trkpt lat="45.76493" lon="4.68921">
        <ele>324.1</ele>
        <time>2013-11-30T13:08:43Z</time>
      </trkpt>
      <trkpt lat="45.76494" lon="4.68921">
        <ele>324.1</ele>
        <time>2013-11-30T13:08:44Z</time>
      </trkpt>
      <trkpt lat="45.76495" lon="4.68921">
        <ele>323.62</ele>
        <time>2013-11-30T13:08:45Z</time>
      </trkpt>
      <trkpt lat="45.765" lon="4.68923">
        <ele>323.62</ele>
        <time>2013-11-30T13:08:48Z</time>
      </trkpt>
      <trkpt lat="45.76501" lon="4.68924">
        <ele>324.1</ele>
        <time>2013-11-30T13:08:49Z</time>
      </trkpt>
      <trkpt lat="45.76502" lon="4.68925">
        <ele>324.58</ele>
        <time>2013-11-30T13:08:50Z</time>
      </trkpt>
      <trkpt lat="45.7651" lon="4.68925">
        <ele>328.43</ele>
        <time>2013-11-30T13:08:56Z</time>
      </trkpt>
      <trkpt lat="45.76525" lon="4.68922">
        <ele>329.39</ele>
        <time>2013-11-30T13:09:07Z</time>
      </trkpt>
      <trkpt lat="45.76538" lon="4.68919">
        <ele>329.39</ele>
        <time>2013-11-30T13:09:17Z</time>
      </trkpt>
      <trkpt lat="45.7654" lon="4.68918">
        <ele>329.87</ele>
        <time>2013-11-30T13:09:18Z</time>
      </trkpt>
      <trkpt lat="45.76542" lon="4.68918">
        <ele>329.39</ele>
        <time>2013-11-30T13:09:19Z</time>
      </trkpt>
      <trkpt lat="45.76559" lon="4.68917">
        <ele>330.83</ele>
        <time>2013-11-30T13:09:31Z</time>
      </trkpt>
      <trkpt lat="45.7657" lon="4.68917">
        <ele>331.79</ele>
        <time>2013-11-30T13:09:38Z</time>
      </trkpt>
      <trkpt lat="45.76572" lon="4.68917">
        <ele>331.79</ele>
        <time>2013-11-30T13:09:39Z</time>
      </trkpt>
      <trkpt lat="45.76574" lon="4.68917">
        <ele>331.31</ele>
        <time>2013-11-30T13:09:40Z</time>
      </trkpt>
      <trkpt lat="45.76579" lon="4.68916">
        <ele>331.79</ele>
        <time>2013-11-30T13:09:43Z</time>
      </trkpt>
      <trkpt lat="45.76581" lon="4.68916">
        <ele>331.79</ele>
        <time>2013-11-30T13:09:44Z</time>
      </trkpt>
      <trkpt lat="45.76582" lon="4.68915">
        <ele>332.27</ele>
        <time>2013-11-30T13:09:45Z</time>
      </trkpt>
      <trkpt lat="45.76594" lon="4.68912">
        <ele>332.75</ele>
        <time>2013-11-30T13:09:52Z</time>
      </trkpt>
      <trkpt lat="45.76595" lon="4.68911">
        <ele>332.75</ele>
        <time>2013-11-30T13:09:53Z</time>
      </trkpt>
      <trkpt lat="45.76597" lon="4.68911">
        <ele>332.27</ele>
        <time>2013-11-30T13:09:54Z</time>
      </trkpt>
      <trkpt lat="45.76598" lon="4.6891">
        <ele>332.75</ele>
        <time>2013-11-30T13:09:55Z</time>
      </trkpt>
      <trkpt lat="45.766" lon="4.6891">
        <ele>333.23</ele>
        <time>2013-11-30T13:09:56Z</time>
      </trkpt>
      <trkpt lat="45.76602" lon="4.68909">
        <ele>333.23</ele>
        <time>2013-11-30T13:09:57Z</time>
      </trkpt>
      <trkpt lat="45.76604" lon="4.68909">
        <ele>332.75</ele>
        <time>2013-11-30T13:09:58Z</time>
      </trkpt>
      <trkpt lat="45.76605" lon="4.68909">
        <ele>333.71</ele>
        <time>2013-11-30T13:09:59Z</time>
      </trkpt>
      <trkpt lat="45.76627" lon="4.68907">
        <ele>334.68</ele>
        <time>2013-11-30T13:10:12Z</time>
      </trkpt>
      <trkpt lat="45.76639" lon="4.68905">
        <ele>335.16</ele>
        <time>2013-11-30T13:10:20Z</time>
      </trkpt>
      <trkpt lat="45.76653" lon="4.68901">
        <ele>337.08</ele>
        <time>2013-11-30T13:10:30Z</time>
      </trkpt>
      <trkpt lat="45.76659" lon="4.68901">
        <ele>336.6</ele>
        <time>2013-11-30T13:10:34Z</time>
      </trkpt>
      <trkpt lat="45.76661" lon="4.68901">
        <ele>337.08</ele>
        <time>2013-11-30T13:10:35Z</time>
      </trkpt>
      <trkpt lat="45.76662" lon="4.68901">
        <ele>337.56</ele>
        <time>2013-11-30T13:10:36Z</time>
      </trkpt>
      <trkpt lat="45.76664" lon="4.689">
        <ele>337.56</ele>
        <time>2013-11-30T13:10:37Z</time>
      </trkpt>
      <trkpt lat="45.76665" lon="4.689">
        <ele>337.56</ele>
        <time>2013-11-30T13:10:38Z</time>
      </trkpt>
      <trkpt lat="45.76667" lon="4.689">
        <ele>337.56</ele>
        <time>2013-11-30T13:10:39Z</time>
      </trkpt>
      <trkpt lat="45.76668" lon="4.68899">
        <ele>337.56</ele>
        <time>2013-11-30T13:10:40Z</time>
      </trkpt>
      <trkpt lat="45.76669" lon="4.68899">
        <ele>338.04</ele>
        <time>2013-11-30T13:10:41Z</time>
      </trkpt>
      <trkpt lat="45.76671" lon="4.68899">
        <ele>338.04</ele>
        <time>2013-11-30T13:10:42Z</time>
      </trkpt>
      <trkpt lat="45.76687" lon="4.68896">
        <ele>339.48</ele>
        <time>2013-11-30T13:10:52Z</time>
      </trkpt>
      <trkpt lat="45.76703" lon="4.68895">
        <ele>342.37</ele>
        <time>2013-11-30T13:11:02Z</time>
      </trkpt>
      <trkpt lat="45.76722" lon="4.68884">
        <ele>343.81</ele>
        <time>2013-11-30T13:11:13Z</time>
      </trkpt>
      <trkpt lat="45.76738" lon="4.68876">
        <ele>346.69</ele>
        <time>2013-11-30T13:11:24Z</time>
      </trkpt>
      <trkpt lat="45.7674" lon="4.68874">
        <ele>347.65</ele>
        <time>2013-11-30T13:11:26Z</time>
      </trkpt>
      <trkpt lat="45.76741" lon="4.68873">
        <ele>347.65</ele>
        <time>2013-11-30T13:11:27Z</time>
      </trkpt>
      <trkpt lat="45.76752" lon="4.6885">
        <ele>348.13</ele>
        <time>2013-11-30T13:11:39Z</time>
      </trkpt>
      <trkpt lat="45.76755" lon="4.68836">
        <ele>348.62</ele>
        <time>2013-11-30T13:11:45Z</time>
      </trkpt>
      <trkpt lat="45.76756" lon="4.68833">
        <ele>348.62</ele>
        <time>2013-11-30T13:11:46Z</time>
      </trkpt>
      <trkpt lat="45.76756" lon="4.68831">
        <ele>348.62</ele>
        <time>2013-11-30T13:11:47Z</time>
      </trkpt>
      <trkpt lat="45.76757" lon="4.68829">
        <ele>349.1</ele>
        <time>2013-11-30T13:11:48Z</time>
      </trkpt>
      <trkpt lat="45.76757" lon="4.68826">
        <ele>349.1</ele>
        <time>2013-11-30T13:11:49Z</time>
      </trkpt>
      <trkpt lat="45.76757" lon="4.68824">
        <ele>349.1</ele>
        <time>2013-11-30T13:11:50Z</time>
      </trkpt>
      <trkpt lat="45.76758" lon="4.68821">
        <ele>349.1</ele>
        <time>2013-11-30T13:11:51Z</time>
      </trkpt>
      <trkpt lat="45.76758" lon="4.68819">
        <ele>349.1</ele>
        <time>2013-11-30T13:11:52Z</time>
      </trkpt>
      <trkpt lat="45.76763" lon="4.68793">
        <ele>349.1</ele>
        <time>2013-11-30T13:12:02Z</time>
      </trkpt>
      <trkpt lat="45.76764" lon="4.68792">
        <ele>348.13</ele>
        <time>2013-11-30T13:12:06Z</time>
      </trkpt>
      <trkpt lat="45.76764" lon="4.68792">
        <ele>349.58</ele>
        <time>2013-11-30T13:12:27Z</time>
      </trkpt>
      <trkpt lat="45.76764" lon="4.68771">
        <ele>349.1</ele>
        <time>2013-11-30T13:12:37Z</time>
      </trkpt>
      <trkpt lat="45.76762" lon="4.68747">
        <ele>350.06</ele>
        <time>2013-11-30T13:12:44Z</time>
      </trkpt>
      <trkpt lat="45.76762" lon="4.68743">
        <ele>350.54</ele>
        <time>2013-11-30T13:12:45Z</time>
      </trkpt>
      <trkpt lat="45.76761" lon="4.68735">
        <ele>349.58</ele>
        <time>2013-11-30T13:12:47Z</time>
      </trkpt>
      <trkpt lat="45.76759" lon="4.68732">
        <ele>349.58</ele>
        <time>2013-11-30T13:12:48Z</time>
      </trkpt>
      <trkpt lat="45.76756" lon="4.68731">
        <ele>349.1</ele>
        <time>2013-11-30T13:12:49Z</time>
      </trkpt>
      <trkpt lat="45.76748" lon="4.6873">
        <ele>348.62</ele>
        <time>2013-11-30T13:12:51Z</time>
      </trkpt>
      <trkpt lat="45.76724" lon="4.68722">
        <ele>347.17</ele>
        <time>2013-11-30T13:12:56Z</time>
      </trkpt>
      <trkpt lat="45.76721" lon="4.68719">
        <ele>346.69</ele>
        <time>2013-11-30T13:12:57Z</time>
      </trkpt>
      <trkpt lat="45.76718" lon="4.68715">
        <ele>346.69</ele>
        <time>2013-11-30T13:12:58Z</time>
      </trkpt>
      <trkpt lat="45.76716" lon="4.6871">
        <ele>346.69</ele>
        <time>2013-11-30T13:12:59Z</time>
      </trkpt>
      <trkpt lat="45.76714" lon="4.68705">
        <ele>346.69</ele>
        <time>2013-11-30T13:13:00Z</time>
      </trkpt>
      <trkpt lat="45.76712" lon="4.687">
        <ele>344.77</ele>
        <time>2013-11-30T13:13:01Z</time>
      </trkpt>
      <trkpt lat="45.76699" lon="4.68671">
        <ele>343.81</ele>
        <time>2013-11-30T13:13:06Z</time>
      </trkpt>
      <trkpt lat="45.76693" lon="4.68659">
        <ele>342.85</ele>
        <time>2013-11-30T13:13:08Z</time>
      </trkpt>
      <trkpt lat="45.76684" lon="4.6864">
        <ele>340.92</ele>
        <time>2013-11-30T13:13:11Z</time>
      </trkpt>
      <trkpt lat="45.76676" lon="4.68622">
        <ele>339.96</ele>
        <time>2013-11-30T13:13:14Z</time>
      </trkpt>
      <trkpt lat="45.76675" lon="4.68615">
        <ele>339.96</ele>
        <time>2013-11-30T13:13:15Z</time>
      </trkpt>
      <trkpt lat="45.76669" lon="4.6859">
        <ele>336.6</ele>
        <time>2013-11-30T13:13:19Z</time>
      </trkpt>
      <trkpt lat="45.76666" lon="4.6857">
        <ele>333.71</ele>
        <time>2013-11-30T13:13:24Z</time>
      </trkpt>
      <trkpt lat="45.7666" lon="4.68551">
        <ele>330.35</ele>
        <time>2013-11-30T13:13:29Z</time>
      </trkpt>
      <trkpt lat="45.76656" lon="4.6854">
        <ele>328.43</ele>
        <time>2013-11-30T13:13:32Z</time>
      </trkpt>
      <trkpt lat="45.76649" lon="4.68517">
        <ele>325.06</ele>
        <time>2013-11-30T13:13:38Z</time>
      </trkpt>
      <trkpt lat="45.76654" lon="4.68496">
        <ele>323.62</ele>
        <time>2013-11-30T13:13:42Z</time>
      </trkpt>
      <trkpt lat="45.76653" lon="4.6849">
        <ele>323.14</ele>
        <time>2013-11-30T13:13:43Z</time>
      </trkpt>
      <trkpt lat="45.76653" lon="4.68484">
        <ele>323.62</ele>
        <time>2013-11-30T13:13:44Z</time>
      </trkpt>
      <trkpt lat="45.76652" lon="4.68442">
        <ele>322.18</ele>
        <time>2013-11-30T13:13:53Z</time>
      </trkpt>
      <trkpt lat="45.76662" lon="4.68417">
        <ele>320.26</ele>
        <time>2013-11-30T13:14:00Z</time>
      </trkpt>
      <trkpt lat="45.76663" lon="4.68413">
        <ele>320.74</ele>
        <time>2013-11-30T13:14:01Z</time>
      </trkpt>
      <trkpt lat="45.76664" lon="4.68408">
        <ele>319.78</ele>
        <time>2013-11-30T13:14:02Z</time>
      </trkpt>
      <trkpt lat="45.76664" lon="4.68402">
        <ele>318.81</ele>
        <time>2013-11-30T13:14:03Z</time>
      </trkpt>
      <trkpt lat="45.76665" lon="4.68396">
        <ele>318.81</ele>
        <time>2013-11-30T13:14:04Z</time>
      </trkpt>
      <trkpt lat="45.76665" lon="4.68392">
        <ele>318.33</ele>
        <time>2013-11-30T13:14:05Z</time>
      </trkpt>
      <trkpt lat="45.76664" lon="4.68387">
        <ele>318.33</ele>
        <time>2013-11-30T13:14:06Z</time>
      </trkpt>
      <trkpt lat="45.76663" lon="4.68385">
        <ele>317.85</ele>
        <time>2013-11-30T13:14:07Z</time>
      </trkpt>
      <trkpt lat="45.76663" lon="4.68382">
        <ele>318.33</ele>
        <time>2013-11-30T13:14:08Z</time>
      </trkpt>
      <trkpt lat="45.76661" lon="4.6837">
        <ele>317.37</ele>
        <time>2013-11-30T13:14:16Z</time>
      </trkpt>
      <trkpt lat="45.7666" lon="4.68362">
        <ele>318.33</ele>
        <time>2013-11-30T13:14:26Z</time>
      </trkpt>
      <trkpt lat="45.76661" lon="4.68355">
        <ele>318.81</ele>
        <time>2013-11-30T13:14:34Z</time>
      </trkpt>
      <trkpt lat="45.76658" lon="4.68342">
        <ele>319.78</ele>
        <time>2013-11-30T13:14:45Z</time>
      </trkpt>
      <trkpt lat="45.76654" lon="4.68331">
        <ele>321.7</ele>
        <time>2013-11-30T13:14:55Z</time>
      </trkpt>
      <trkpt lat="45.76653" lon="4.68329">
        <ele>322.18</ele>
        <time>2013-11-30T13:15:04Z</time>
      </trkpt>
      <trkpt lat="45.76648" lon="4.68319">
        <ele>323.62</ele>
        <time>2013-11-30T13:15:12Z</time>
      </trkpt>
      <trkpt lat="45.76643" lon="4.68305">
        <ele>325.06</ele>
        <time>2013-11-30T13:15:22Z</time>
      </trkpt>
      <trkpt lat="45.76638" lon="4.68294">
        <ele>326.99</ele>
        <time>2013-11-30T13:15:33Z</time>
      </trkpt>
      <trkpt lat="45.76633" lon="4.68286">
        <ele>328.43</ele>
        <time>2013-11-30T13:15:42Z</time>
      </trkpt>
      <trkpt lat="45.76628" lon="4.68272">
        <ele>329.87</ele>
        <time>2013-11-30T13:15:54Z</time>
      </trkpt>
      <trkpt lat="45.76623" lon="4.68262">
        <ele>330.83</ele>
        <time>2013-11-30T13:16:04Z</time>
      </trkpt>
      <trkpt lat="45.7662" lon="4.68261">
        <ele>330.35</ele>
        <time>2013-11-30T13:16:12Z</time>
      </trkpt>
      <trkpt lat="45.7662" lon="4.68261">
        <ele>330.83</ele>
        <time>2013-11-30T13:16:34Z</time>
      </trkpt>
      <trkpt lat="45.7662" lon="4.68261">
        <ele>329.87</ele>
        <time>2013-11-30T13:16:50Z</time>
      </trkpt>
      <trkpt lat="45.76622" lon="4.68259">
        <ele>330.83</ele>
        <time>2013-11-30T13:17:15Z</time>
      </trkpt>
      <trkpt lat="45.76622" lon="4.68259">
        <ele>330.83</ele>
        <time>2013-11-30T13:17:33Z</time>
      </trkpt>
      <trkpt lat="45.76623" lon="4.68258">
        <ele>330.83</ele>
        <time>2013-11-30T13:17:47Z</time>
      </trkpt>
      <trkpt lat="45.76624" lon="4.68256">
        <ele>330.83</ele>
        <time>2013-11-30T13:17:48Z</time>
      </trkpt>
      <trkpt lat="45.76624" lon="4.68254">
        <ele>330.83</ele>
        <time>2013-11-30T13:17:49Z</time>
      </trkpt>
      <trkpt lat="45.76626" lon="4.68252">
        <ele>330.35</ele>
        <time>2013-11-30T13:17:50Z</time>
      </trkpt>
      <trkpt lat="45.76638" lon="4.68227">
        <ele>330.83</ele>
        <time>2013-11-30T13:17:57Z</time>
      </trkpt>
      <trkpt lat="45.76645" lon="4.68217">
        <ele>329.87</ele>
        <time>2013-11-30T13:17:59Z</time>
      </trkpt>
      <trkpt lat="45.76649" lon="4.68214">
        <ele>330.83</ele>
        <time>2013-11-30T13:18:00Z</time>
      </trkpt>
      <trkpt lat="45.76659" lon="4.68209">
        <ele>329.39</ele>
        <time>2013-11-30T13:18:03Z</time>
      </trkpt>
      <trkpt lat="45.7668" lon="4.6822">
        <ele>329.39</ele>
        <time>2013-11-30T13:18:11Z</time>
      </trkpt>
      <trkpt lat="45.76701" lon="4.68202">
        <ele>328.43</ele>
        <time>2013-11-30T13:18:17Z</time>
      </trkpt>
      <trkpt lat="45.76709" lon="4.68191">
        <ele>328.43</ele>
        <time>2013-11-30T13:18:19Z</time>
      </trkpt>
      <trkpt lat="45.76721" lon="4.68177">
        <ele>326.99</ele>
        <time>2013-11-30T13:18:22Z</time>
      </trkpt>
      <trkpt lat="45.76732" lon="4.68157">
        <ele>325.54</ele>
        <time>2013-11-30T13:18:25Z</time>
      </trkpt>
      <trkpt lat="45.76735" lon="4.68149">
        <ele>326.02</ele>
        <time>2013-11-30T13:18:26Z</time>
      </trkpt>
      <trkpt lat="45.76736" lon="4.68141">
        <ele>325.06</ele>
        <time>2013-11-30T13:18:27Z</time>
      </trkpt>
      <trkpt lat="45.76737" lon="4.68133">
        <ele>324.58</ele>
        <time>2013-11-30T13:18:28Z</time>
      </trkpt>
      <trkpt lat="45.76736" lon="4.68125">
        <ele>324.58</ele>
        <time>2013-11-30T13:18:29Z</time>
      </trkpt>
      <trkpt lat="45.76735" lon="4.68109">
        <ele>324.1</ele>
        <time>2013-11-30T13:18:31Z</time>
      </trkpt>
      <trkpt lat="45.76735" lon="4.68097">
        <ele>324.1</ele>
        <time>2013-11-30T13:18:34Z</time>
      </trkpt>
      <trkpt lat="45.76736" lon="4.68095">
        <ele>324.58</ele>
        <time>2013-11-30T13:18:35Z</time>
      </trkpt>
      <trkpt lat="45.76738" lon="4.68093">
        <ele>325.06</ele>
        <time>2013-11-30T13:18:36Z</time>
      </trkpt>
      <trkpt lat="45.7674" lon="4.68093">
        <ele>324.58</ele>
        <time>2013-11-30T13:18:37Z</time>
      </trkpt>
      <trkpt lat="45.76742" lon="4.68093">
        <ele>324.58</ele>
        <time>2013-11-30T13:18:38Z</time>
      </trkpt>
      <trkpt lat="45.76745" lon="4.68092">
        <ele>324.58</ele>
        <time>2013-11-30T13:18:39Z</time>
      </trkpt>
      <trkpt lat="45.76748" lon="4.68091">
        <ele>325.06</ele>
        <time>2013-11-30T13:18:40Z</time>
      </trkpt>
      <trkpt lat="45.76751" lon="4.68091">
        <ele>325.06</ele>
        <time>2013-11-30T13:18:41Z</time>
      </trkpt>
      <trkpt lat="45.76767" lon="4.68082">
        <ele>326.02</ele>
        <time>2013-11-30T13:18:48Z</time>
      </trkpt>
      <trkpt lat="45.76778" lon="4.68072">
        <ele>327.47</ele>
        <time>2013-11-30T13:18:53Z</time>
      </trkpt>
      <trkpt lat="45.76781" lon="4.68071">
        <ele>327.47</ele>
        <time>2013-11-30T13:18:54Z</time>
      </trkpt>
      <trkpt lat="45.76783" lon="4.68069">
        <ele>327.47</ele>
        <time>2013-11-30T13:18:55Z</time>
      </trkpt>
      <trkpt lat="45.76802" lon="4.68059">
        <ele>327.47</ele>
        <time>2013-11-30T13:19:01Z</time>
      </trkpt>
      <trkpt lat="45.76804" lon="4.68057">
        <ele>326.99</ele>
        <time>2013-11-30T13:19:02Z</time>
      </trkpt>
      <trkpt lat="45.76807" lon="4.68054">
        <ele>327.47</ele>
        <time>2013-11-30T13:19:03Z</time>
      </trkpt>
      <trkpt lat="45.76809" lon="4.68051">
        <ele>326.99</ele>
        <time>2013-11-30T13:19:04Z</time>
      </trkpt>
      <trkpt lat="45.76812" lon="4.68047">
        <ele>327.47</ele>
        <time>2013-11-30T13:19:05Z</time>
      </trkpt>
      <trkpt lat="45.76815" lon="4.68044">
        <ele>326.99</ele>
        <time>2013-11-30T13:19:06Z</time>
      </trkpt>
      <trkpt lat="45.76818" lon="4.68041">
        <ele>326.99</ele>
        <time>2013-11-30T13:19:07Z</time>
      </trkpt>
      <trkpt lat="45.7684" lon="4.68023">
        <ele>329.39</ele>
        <time>2013-11-30T13:19:16Z</time>
      </trkpt>
      <trkpt lat="45.76855" lon="4.68014">
        <ele>331.79</ele>
        <time>2013-11-30T13:19:26Z</time>
      </trkpt>
      <trkpt lat="45.76859" lon="4.68011">
        <ele>332.27</ele>
        <time>2013-11-30T13:19:29Z</time>
      </trkpt>
      <trkpt lat="45.7687" lon="4.68005">
        <ele>333.71</ele>
        <time>2013-11-30T13:19:37Z</time>
      </trkpt>
      <trkpt lat="45.76874" lon="4.68001">
        <ele>335.16</ele>
        <time>2013-11-30T13:19:45Z</time>
      </trkpt>
      <trkpt lat="45.76878" lon="4.67997">
        <ele>336.12</ele>
        <time>2013-11-30T13:19:51Z</time>
      </trkpt>
      <trkpt lat="45.76882" lon="4.67993">
        <ele>336.12</ele>
        <time>2013-11-30T13:19:55Z</time>
      </trkpt>
      <trkpt lat="45.76888" lon="4.67985">
        <ele>337.56</ele>
        <time>2013-11-30T13:20:06Z</time>
      </trkpt>
      <trkpt lat="45.76892" lon="4.6798">
        <ele>338.04</ele>
        <time>2013-11-30T13:20:15Z</time>
      </trkpt>
      <trkpt lat="45.76897" lon="4.67973">
        <ele>339.96</ele>
        <time>2013-11-30T13:20:25Z</time>
      </trkpt>
      <trkpt lat="45.76902" lon="4.67962">
        <ele>341.89</ele>
        <time>2013-11-30T13:20:36Z</time>
      </trkpt>
      <trkpt lat="45.76902" lon="4.67959">
        <ele>341.89</ele>
        <time>2013-11-30T13:20:38Z</time>
      </trkpt>
      <trkpt lat="45.76902" lon="4.67948">
        <ele>343.81</ele>
        <time>2013-11-30T13:20:48Z</time>
      </trkpt>
      <trkpt lat="45.76904" lon="4.67943">
        <ele>343.33</ele>
        <time>2013-11-30T13:20:56Z</time>
      </trkpt>
      <trkpt lat="45.76909" lon="4.67925">
        <ele>344.77</ele>
        <time>2013-11-30T13:21:06Z</time>
      </trkpt>
      <trkpt lat="45.76911" lon="4.67913">
        <ele>345.73</ele>
        <time>2013-11-30T13:21:11Z</time>
      </trkpt>
      <trkpt lat="45.76917" lon="4.67888">
        <ele>347.17</ele>
        <time>2013-11-30T13:21:23Z</time>
      </trkpt>
      <trkpt lat="45.76924" lon="4.67861">
        <ele>349.1</ele>
        <time>2013-11-30T13:21:36Z</time>
      </trkpt>
      <trkpt lat="45.76933" lon="4.67838">
        <ele>350.06</ele>
        <time>2013-11-30T13:21:48Z</time>
      </trkpt>
      <trkpt lat="45.76944" lon="4.67814">
        <ele>351.98</ele>
        <time>2013-11-30T13:22:00Z</time>
      </trkpt>
      <trkpt lat="45.76954" lon="4.67792">
        <ele>352.46</ele>
        <time>2013-11-30T13:22:11Z</time>
      </trkpt>
      <trkpt lat="45.76964" lon="4.67767">
        <ele>354.86</ele>
        <time>2013-11-30T13:22:23Z</time>
      </trkpt>
      <trkpt lat="45.76975" lon="4.67737">
        <ele>357.27</ele>
        <time>2013-11-30T13:22:37Z</time>
      </trkpt>
      <trkpt lat="45.76985" lon="4.67716">
        <ele>357.75</ele>
        <time>2013-11-30T13:22:48Z</time>
      </trkpt>
      <trkpt lat="45.76989" lon="4.67707">
        <ele>358.71</ele>
        <time>2013-11-30T13:22:53Z</time>
      </trkpt>
      <trkpt lat="45.7699" lon="4.67705">
        <ele>358.71</ele>
        <time>2013-11-30T13:22:54Z</time>
      </trkpt>
      <trkpt lat="45.77003" lon="4.67684">
        <ele>361.11</ele>
        <time>2013-11-30T13:23:06Z</time>
      </trkpt>
      <trkpt lat="45.77016" lon="4.6767">
        <ele>361.59</ele>
        <time>2013-11-30T13:23:16Z</time>
      </trkpt>
      <trkpt lat="45.77034" lon="4.67651">
        <ele>363.04</ele>
        <time>2013-11-30T13:23:27Z</time>
      </trkpt>
      <trkpt lat="45.77052" lon="4.67634">
        <ele>363.52</ele>
        <time>2013-11-30T13:23:38Z</time>
      </trkpt>
      <trkpt lat="45.77063" lon="4.67626">
        <ele>364</ele>
        <time>2013-11-30T13:23:46Z</time>
      </trkpt>
      <trkpt lat="45.77065" lon="4.67624">
        <ele>364</ele>
        <time>2013-11-30T13:23:47Z</time>
      </trkpt>
      <trkpt lat="45.77067" lon="4.67623">
        <ele>363.52</ele>
        <time>2013-11-30T13:23:48Z</time>
      </trkpt>
      <trkpt lat="45.77068" lon="4.67623">
        <ele>364</ele>
        <time>2013-11-30T13:23:49Z</time>
      </trkpt>
      <trkpt lat="45.7707" lon="4.67622">
        <ele>364.48</ele>
        <time>2013-11-30T13:23:50Z</time>
      </trkpt>
      <trkpt lat="45.77071" lon="4.6762">
        <ele>364.96</ele>
        <time>2013-11-30T13:23:51Z</time>
      </trkpt>
      <trkpt lat="45.77072" lon="4.67619">
        <ele>364.96</ele>
        <time>2013-11-30T13:23:52Z</time>
      </trkpt>
      <trkpt lat="45.77073" lon="4.67618">
        <ele>364.96</ele>
        <time>2013-11-30T13:23:53Z</time>
      </trkpt>
      <trkpt lat="45.77074" lon="4.67617">
        <ele>364.96</ele>
        <time>2013-11-30T13:23:54Z</time>
      </trkpt>
      <trkpt lat="45.7708" lon="4.67613">
        <ele>365.44</ele>
        <time>2013-11-30T13:23:58Z</time>
      </trkpt>
      <trkpt lat="45.77092" lon="4.67601">
        <ele>367.36</ele>
        <time>2013-11-30T13:24:07Z</time>
      </trkpt>
      <trkpt lat="45.77108" lon="4.67588">
        <ele>368.32</ele>
        <time>2013-11-30T13:24:18Z</time>
      </trkpt>
      <trkpt lat="45.7713" lon="4.67577">
        <ele>369.76</ele>
        <time>2013-11-30T13:24:31Z</time>
      </trkpt>
      <trkpt lat="45.77137" lon="4.67571">
        <ele>370.73</ele>
        <time>2013-11-30T13:24:36Z</time>
      </trkpt>
      <trkpt lat="45.77139" lon="4.67569">
        <ele>371.69</ele>
        <time>2013-11-30T13:24:37Z</time>
      </trkpt>
      <trkpt lat="45.7714" lon="4.67568">
        <ele>371.21</ele>
        <time>2013-11-30T13:24:38Z</time>
      </trkpt>
      <trkpt lat="45.77141" lon="4.67567">
        <ele>371.69</ele>
        <time>2013-11-30T13:24:39Z</time>
      </trkpt>
      <trkpt lat="45.77143" lon="4.67565">
        <ele>371.21</ele>
        <time>2013-11-30T13:24:40Z</time>
      </trkpt>
      <trkpt lat="45.77145" lon="4.67564">
        <ele>371.69</ele>
        <time>2013-11-30T13:24:41Z</time>
      </trkpt>
      <trkpt lat="45.77146" lon="4.67563">
        <ele>371.69</ele>
        <time>2013-11-30T13:24:42Z</time>
      </trkpt>
      <trkpt lat="45.7716" lon="4.67551">
        <ele>373.61</ele>
        <time>2013-11-30T13:24:53Z</time>
      </trkpt>
      <trkpt lat="45.7716" lon="4.67549">
        <ele>373.13</ele>
        <time>2013-11-30T13:24:54Z</time>
      </trkpt>
      <trkpt lat="45.77161" lon="4.67548">
        <ele>373.13</ele>
        <time>2013-11-30T13:25:04Z</time>
      </trkpt>
      <trkpt lat="45.77161" lon="4.67548">
        <ele>373.61</ele>
        <time>2013-11-30T13:25:37Z</time>
      </trkpt>
      <trkpt lat="45.77156" lon="4.67536">
        <ele>374.09</ele>
        <time>2013-11-30T13:25:51Z</time>
      </trkpt>
      <trkpt lat="45.77148" lon="4.67504">
        <ele>375.05</ele>
        <time>2013-11-30T13:26:02Z</time>
      </trkpt>
      <trkpt lat="45.77139" lon="4.67458">
        <ele>376.97</ele>
        <time>2013-11-30T13:26:16Z</time>
      </trkpt>
      <trkpt lat="45.77138" lon="4.67426">
        <ele>378.42</ele>
        <time>2013-11-30T13:26:26Z</time>
      </trkpt>
      <trkpt lat="45.77138" lon="4.67386">
        <ele>378.42</ele>
        <time>2013-11-30T13:26:38Z</time>
      </trkpt>
      <trkpt lat="45.77138" lon="4.67369">
        <ele>377.94</ele>
        <time>2013-11-30T13:26:41Z</time>
      </trkpt>
      <trkpt lat="45.77138" lon="4.67363">
        <ele>377.94</ele>
        <time>2013-11-30T13:26:42Z</time>
      </trkpt>
      <trkpt lat="45.77138" lon="4.67356">
        <ele>377.45</ele>
        <time>2013-11-30T13:26:43Z</time>
      </trkpt>
      <trkpt lat="45.77139" lon="4.67342">
        <ele>376.49</ele>
        <time>2013-11-30T13:26:45Z</time>
      </trkpt>
      <trkpt lat="45.7714" lon="4.67335">
        <ele>375.53</ele>
        <time>2013-11-30T13:26:46Z</time>
      </trkpt>
      <trkpt lat="45.7714" lon="4.67328">
        <ele>375.05</ele>
        <time>2013-11-30T13:26:47Z</time>
      </trkpt>
      <trkpt lat="45.7714" lon="4.67322">
        <ele>374.57</ele>
        <time>2013-11-30T13:26:48Z</time>
      </trkpt>
      <trkpt lat="45.77141" lon="4.67307">
        <ele>374.57</ele>
        <time>2013-11-30T13:26:50Z</time>
      </trkpt>
      <trkpt lat="45.77142" lon="4.673">
        <ele>374.09</ele>
        <time>2013-11-30T13:26:51Z</time>
      </trkpt>
      <trkpt lat="45.77142" lon="4.67292">
        <ele>374.09</ele>
        <time>2013-11-30T13:26:52Z</time>
      </trkpt>
      <trkpt lat="45.77144" lon="4.67215">
        <ele>370.73</ele>
        <time>2013-11-30T13:27:02Z</time>
      </trkpt>
      <trkpt lat="45.77145" lon="4.67195">
        <ele>370.73</ele>
        <time>2013-11-30T13:27:05Z</time>
      </trkpt>
      <trkpt lat="45.7715" lon="4.67148">
        <ele>370.73</ele>
        <time>2013-11-30T13:27:15Z</time>
      </trkpt>
      <trkpt lat="45.77152" lon="4.67115">
        <ele>370.73</ele>
        <time>2013-11-30T13:27:21Z</time>
      </trkpt>
      <trkpt lat="45.77165" lon="4.67062">
        <ele>370.24</ele>
        <time>2013-11-30T13:27:31Z</time>
      </trkpt>
      <trkpt lat="45.7718" lon="4.67003">
        <ele>371.69</ele>
        <time>2013-11-30T13:27:43Z</time>
      </trkpt>
      <trkpt lat="45.77195" lon="4.66958">
        <ele>371.69</ele>
        <time>2013-11-30T13:27:54Z</time>
      </trkpt>
      <trkpt lat="45.77209" lon="4.66915">
        <ele>373.13</ele>
        <time>2013-11-30T13:28:05Z</time>
      </trkpt>
      <trkpt lat="45.77227" lon="4.66873">
        <ele>371.69</ele>
        <time>2013-11-30T13:28:16Z</time>
      </trkpt>
      <trkpt lat="45.7725" lon="4.66818">
        <ele>370.24</ele>
        <time>2013-11-30T13:28:28Z</time>
      </trkpt>
      <trkpt lat="45.77257" lon="4.66789">
        <ele>371.21</ele>
        <time>2013-11-30T13:28:34Z</time>
      </trkpt>
      <trkpt lat="45.77259" lon="4.66787">
        <ele>371.69</ele>
        <time>2013-11-30T13:28:35Z</time>
      </trkpt>
      <trkpt lat="45.77262" lon="4.66786">
        <ele>371.21</ele>
        <time>2013-11-30T13:28:36Z</time>
      </trkpt>
      <trkpt lat="45.77264" lon="4.66786">
        <ele>371.69</ele>
        <time>2013-11-30T13:28:37Z</time>
      </trkpt>
      <trkpt lat="45.77265" lon="4.66786">
        <ele>372.17</ele>
        <time>2013-11-30T13:28:38Z</time>
      </trkpt>
      <trkpt lat="45.77277" lon="4.66784">
        <ele>375.53</ele>
        <time>2013-11-30T13:28:46Z</time>
      </trkpt>
      <trkpt lat="45.77294" lon="4.66783">
        <ele>378.42</ele>
        <time>2013-11-30T13:28:58Z</time>
      </trkpt>
      <trkpt lat="45.77297" lon="4.66783">
        <ele>379.38</ele>
        <time>2013-11-30T13:29:01Z</time>
      </trkpt>
      <trkpt lat="45.77299" lon="4.66783">
        <ele>379.38</ele>
        <time>2013-11-30T13:29:02Z</time>
      </trkpt>
      <trkpt lat="45.77299" lon="4.66782">
        <ele>379.86</ele>
        <time>2013-11-30T13:29:03Z</time>
      </trkpt>
      <trkpt lat="45.77299" lon="4.6678">
        <ele>380.34</ele>
        <time>2013-11-30T13:29:04Z</time>
      </trkpt>
      <trkpt lat="45.77299" lon="4.66778">
        <ele>380.34</ele>
        <time>2013-11-30T13:29:05Z</time>
      </trkpt>
      <trkpt lat="45.77298" lon="4.66777">
        <ele>379.86</ele>
        <time>2013-11-30T13:29:06Z</time>
      </trkpt>
      <trkpt lat="45.77296" lon="4.66776">
        <ele>379.38</ele>
        <time>2013-11-30T13:29:07Z</time>
      </trkpt>
      <trkpt lat="45.7729" lon="4.66771">
        <ele>378.9</ele>
        <time>2013-11-30T13:29:11Z</time>
      </trkpt>
      <trkpt lat="45.77289" lon="4.66768">
        <ele>378.42</ele>
        <time>2013-11-30T13:29:12Z</time>
      </trkpt>
      <trkpt lat="45.77289" lon="4.66763">
        <ele>377.94</ele>
        <time>2013-11-30T13:29:13Z</time>
      </trkpt>
      <trkpt lat="45.77289" lon="4.66759">
        <ele>377.94</ele>
        <time>2013-11-30T13:29:14Z</time>
      </trkpt>
      <trkpt lat="45.7729" lon="4.66754">
        <ele>377.94</ele>
        <time>2013-11-30T13:29:15Z</time>
      </trkpt>
      <trkpt lat="45.77291" lon="4.6675">
        <ele>377.94</ele>
        <time>2013-11-30T13:29:16Z</time>
      </trkpt>
      <trkpt lat="45.77291" lon="4.66747">
        <ele>377.94</ele>
        <time>2013-11-30T13:29:17Z</time>
      </trkpt>
      <trkpt lat="45.77298" lon="4.66712">
        <ele>378.42</ele>
        <time>2013-11-30T13:29:27Z</time>
      </trkpt>
      <trkpt lat="45.77301" lon="4.66676">
        <ele>377.45</ele>
        <time>2013-11-30T13:29:37Z</time>
      </trkpt>
      <trkpt lat="45.77296" lon="4.66645">
        <ele>377.94</ele>
        <time>2013-11-30T13:29:47Z</time>
      </trkpt>
      <trkpt lat="45.77295" lon="4.66617">
        <ele>379.38</ele>
        <time>2013-11-30T13:29:58Z</time>
      </trkpt>
      <trkpt lat="45.77313" lon="4.66608">
        <ele>379.86</ele>
        <time>2013-11-30T13:30:09Z</time>
      </trkpt>
      <trkpt lat="45.77317" lon="4.66604">
        <ele>380.82</ele>
        <time>2013-11-30T13:30:12Z</time>
      </trkpt>
      <trkpt lat="45.77322" lon="4.66601">
        <ele>380.82</ele>
        <time>2013-11-30T13:30:19Z</time>
      </trkpt>
      <trkpt lat="45.77331" lon="4.66601">
        <ele>382.26</ele>
        <time>2013-11-30T13:30:28Z</time>
      </trkpt>
      <trkpt lat="45.77331" lon="4.666">
        <ele>382.26</ele>
        <time>2013-11-30T13:30:29Z</time>
      </trkpt>
      <trkpt lat="45.77337" lon="4.66598">
        <ele>383.7</ele>
        <time>2013-11-30T13:30:37Z</time>
      </trkpt>
      <trkpt lat="45.77346" lon="4.66595">
        <ele>385.63</ele>
        <time>2013-11-30T13:30:46Z</time>
      </trkpt>
      <trkpt lat="45.7735" lon="4.66586">
        <ele>386.59</ele>
        <time>2013-11-30T13:30:56Z</time>
      </trkpt>
      <trkpt lat="45.77349" lon="4.66583">
        <ele>388.51</ele>
        <time>2013-11-30T13:31:07Z</time>
      </trkpt>
      <trkpt lat="45.77344" lon="4.66577">
        <ele>390.43</ele>
        <time>2013-11-30T13:31:17Z</time>
      </trkpt>
      <trkpt lat="45.77345" lon="4.66566">
        <ele>391.87</ele>
        <time>2013-11-30T13:31:28Z</time>
      </trkpt>
      <trkpt lat="45.77349" lon="4.66559">
        <ele>393.32</ele>
        <time>2013-11-30T13:31:39Z</time>
      </trkpt>
      <trkpt lat="45.77349" lon="4.66554">
        <ele>394.28</ele>
        <time>2013-11-30T13:31:48Z</time>
      </trkpt>
      <trkpt lat="45.77349" lon="4.66552">
        <ele>395.24</ele>
        <time>2013-11-30T13:31:52Z</time>
      </trkpt>
      <trkpt lat="45.77351" lon="4.66544">
        <ele>395.72</ele>
        <time>2013-11-30T13:32:00Z</time>
      </trkpt>
      <trkpt lat="45.77354" lon="4.66529">
        <ele>396.68</ele>
        <time>2013-11-30T13:32:12Z</time>
      </trkpt>
      <trkpt lat="45.77356" lon="4.66519">
        <ele>397.64</ele>
        <time>2013-11-30T13:32:21Z</time>
      </trkpt>
      <trkpt lat="45.77359" lon="4.66507">
        <ele>398.6</ele>
        <time>2013-11-30T13:32:32Z</time>
      </trkpt>
      <trkpt lat="45.77362" lon="4.66493">
        <ele>399.08</ele>
        <time>2013-11-30T13:32:43Z</time>
      </trkpt>
      <trkpt lat="45.77363" lon="4.66491">
        <ele>399.57</ele>
        <time>2013-11-30T13:32:45Z</time>
      </trkpt>
      <trkpt lat="45.77367" lon="4.66481">
        <ele>401.97</ele>
        <time>2013-11-30T13:32:56Z</time>
      </trkpt>
      <trkpt lat="45.77369" lon="4.66469">
        <ele>403.41</ele>
        <time>2013-11-30T13:33:07Z</time>
      </trkpt>
      <trkpt lat="45.77372" lon="4.66458">
        <ele>404.37</ele>
        <time>2013-11-30T13:33:17Z</time>
      </trkpt>
      <trkpt lat="45.77374" lon="4.66448">
        <ele>404.85</ele>
        <time>2013-11-30T13:33:26Z</time>
      </trkpt>
      <trkpt lat="45.77374" lon="4.66447">
        <ele>405.81</ele>
        <time>2013-11-30T13:33:38Z</time>
      </trkpt>
      <trkpt lat="45.77378" lon="4.66434">
        <ele>406.29</ele>
        <time>2013-11-30T13:33:49Z</time>
      </trkpt>
      <trkpt lat="45.77382" lon="4.6642">
        <ele>408.7</ele>
        <time>2013-11-30T13:34:01Z</time>
      </trkpt>
      <trkpt lat="45.77386" lon="4.66404">
        <ele>409.66</ele>
        <time>2013-11-30T13:34:13Z</time>
      </trkpt>
      <trkpt lat="45.77389" lon="4.66387">
        <ele>411.58</ele>
        <time>2013-11-30T13:34:27Z</time>
      </trkpt>
      <trkpt lat="45.7739" lon="4.66382">
        <ele>412.54</ele>
        <time>2013-11-30T13:34:31Z</time>
      </trkpt>
      <trkpt lat="45.77391" lon="4.6637">
        <ele>413.02</ele>
        <time>2013-11-30T13:34:41Z</time>
      </trkpt>
      <trkpt lat="45.77392" lon="4.66366">
        <ele>413.02</ele>
        <time>2013-11-30T13:34:50Z</time>
      </trkpt>
      <trkpt lat="45.77393" lon="4.66365">
        <ele>413.02</ele>
        <time>2013-11-30T13:34:51Z</time>
      </trkpt>
      <trkpt lat="45.77394" lon="4.66342">
        <ele>414.95</ele>
        <time>2013-11-30T13:35:01Z</time>
      </trkpt>
      <trkpt lat="45.77394" lon="4.66331">
        <ele>415.43</ele>
        <time>2013-11-30T13:35:05Z</time>
      </trkpt>
      <trkpt lat="45.77397" lon="4.66324">
        <ele>416.87</ele>
        <time>2013-11-30T13:35:10Z</time>
      </trkpt>
      <trkpt lat="45.77402" lon="4.66333">
        <ele>417.35</ele>
        <time>2013-11-30T13:35:16Z</time>
      </trkpt>
      <trkpt lat="45.77419" lon="4.66346">
        <ele>421.19</ele>
        <time>2013-11-30T13:35:29Z</time>
      </trkpt>
      <trkpt lat="45.77423" lon="4.66349">
        <ele>423.12</ele>
        <time>2013-11-30T13:35:32Z</time>
      </trkpt>
      <trkpt lat="45.77431" lon="4.66355">
        <ele>423.6</ele>
        <time>2013-11-30T13:35:38Z</time>
      </trkpt>
      <trkpt lat="45.77452" lon="4.66368">
        <ele>423.6</ele>
        <time>2013-11-30T13:35:52Z</time>
      </trkpt>
      <trkpt lat="45.77465" lon="4.66376">
        <ele>424.08</ele>
        <time>2013-11-30T13:36:01Z</time>
      </trkpt>
      <trkpt lat="45.77481" lon="4.66384">
        <ele>422.64</ele>
        <time>2013-11-30T13:36:10Z</time>
      </trkpt>
      <trkpt lat="45.77504" lon="4.66395">
        <ele>420.71</ele>
        <time>2013-11-30T13:36:19Z</time>
      </trkpt>
      <trkpt lat="45.77518" lon="4.66404">
        <ele>417.35</ele>
        <time>2013-11-30T13:36:24Z</time>
      </trkpt>
      <trkpt lat="45.7753" lon="4.6641">
        <ele>414.47</ele>
        <time>2013-11-30T13:36:28Z</time>
      </trkpt>
      <trkpt lat="45.77536" lon="4.66408">
        <ele>413.5</ele>
        <time>2013-11-30T13:36:30Z</time>
      </trkpt>
      <trkpt lat="45.77559" lon="4.66398">
        <ele>412.06</ele>
        <time>2013-11-30T13:36:36Z</time>
      </trkpt>
      <trkpt lat="45.77576" lon="4.66414">
        <ele>411.1</ele>
        <time>2013-11-30T13:36:42Z</time>
      </trkpt>
      <trkpt lat="45.77588" lon="4.66425">
        <ele>413.5</ele>
        <time>2013-11-30T13:36:47Z</time>
      </trkpt>
      <trkpt lat="45.77598" lon="4.66436">
        <ele>414.47</ele>
        <time>2013-11-30T13:36:55Z</time>
      </trkpt>
      <trkpt lat="45.77598" lon="4.66436">
        <ele>414.47</ele>
        <time>2013-11-30T13:36:57Z</time>
      </trkpt>
      <trkpt lat="45.77607" lon="4.66446">
        <ele>416.39</ele>
        <time>2013-11-30T13:37:07Z</time>
      </trkpt>
      <trkpt lat="45.77611" lon="4.66453">
        <ele>417.35</ele>
        <time>2013-11-30T13:37:19Z</time>
      </trkpt>
      <trkpt lat="45.77613" lon="4.66455">
        <ele>418.31</ele>
        <time>2013-11-30T13:37:31Z</time>
      </trkpt>
      <trkpt lat="45.77615" lon="4.66461">
        <ele>419.27</ele>
        <time>2013-11-30T13:37:40Z</time>
      </trkpt>
      <trkpt lat="45.77617" lon="4.66464">
        <ele>420.23</ele>
        <time>2013-11-30T13:37:42Z</time>
      </trkpt>
      <trkpt lat="45.7762" lon="4.66473">
        <ele>420.23</ele>
        <time>2013-11-30T13:37:50Z</time>
      </trkpt>
      <trkpt lat="45.77629" lon="4.66483">
        <ele>423.6</ele>
        <time>2013-11-30T13:38:02Z</time>
      </trkpt>
      <trkpt lat="45.77633" lon="4.66484">
        <ele>424.08</ele>
        <time>2013-11-30T13:38:10Z</time>
      </trkpt>
      <trkpt lat="45.77642" lon="4.66486">
        <ele>425.52</ele>
        <time>2013-11-30T13:38:21Z</time>
      </trkpt>
      <trkpt lat="45.7765" lon="4.66488">
        <ele>428.89</ele>
        <time>2013-11-30T13:38:34Z</time>
      </trkpt>
      <trkpt lat="45.77658" lon="4.66491">
        <ele>430.33</ele>
        <time>2013-11-30T13:38:46Z</time>
      </trkpt>
      <trkpt lat="45.77662" lon="4.66492">
        <ele>430.33</ele>
        <time>2013-11-30T13:38:57Z</time>
      </trkpt>
      <trkpt lat="45.7767" lon="4.66494">
        <ele>431.29</ele>
        <time>2013-11-30T13:39:08Z</time>
      </trkpt>
      <trkpt lat="45.77674" lon="4.66497">
        <ele>434.65</ele>
        <time>2013-11-30T13:39:16Z</time>
      </trkpt>
      <trkpt lat="45.77682" lon="4.66502">
        <ele>436.58</ele>
        <time>2013-11-30T13:39:27Z</time>
      </trkpt>
      <trkpt lat="45.77686" lon="4.66506">
        <ele>436.58</ele>
        <time>2013-11-30T13:39:38Z</time>
      </trkpt>
      <trkpt lat="45.77687" lon="4.66509">
        <ele>437.54</ele>
        <time>2013-11-30T13:39:51Z</time>
      </trkpt>
      <trkpt lat="45.77687" lon="4.66513">
        <ele>436.58</ele>
        <time>2013-11-30T13:39:59Z</time>
      </trkpt>
      <trkpt lat="45.77687" lon="4.66513">
        <ele>435.61</ele>
        <time>2013-11-30T13:40:26Z</time>
      </trkpt>
      <trkpt lat="45.77687" lon="4.66513">
        <ele>437.06</ele>
        <time>2013-11-30T13:40:37Z</time>
      </trkpt>
      <trkpt lat="45.77687" lon="4.66514">
        <ele>435.61</ele>
        <time>2013-11-30T13:41:12Z</time>
      </trkpt>
      <trkpt lat="45.77687" lon="4.66514">
        <ele>436.58</ele>
        <time>2013-11-30T13:41:49Z</time>
      </trkpt>
      <trkpt lat="45.77687" lon="4.66514">
        <ele>436.1</ele>
        <time>2013-11-30T13:42:24Z</time>
      </trkpt>
      <trkpt lat="45.77687" lon="4.66515">
        <ele>436.58</ele>
        <time>2013-11-30T13:42:57Z</time>
      </trkpt>
      <trkpt lat="45.77688" lon="4.66515">
        <ele>436.58</ele>
        <time>2013-11-30T13:43:31Z</time>
      </trkpt>
      <trkpt lat="45.77687" lon="4.66515">
        <ele>436.1</ele>
        <time>2013-11-30T13:44:07Z</time>
      </trkpt>
      <trkpt lat="45.77687" lon="4.66514">
        <ele>432.25</ele>
        <time>2013-11-30T13:44:29Z</time>
      </trkpt>
      <trkpt lat="45.77687" lon="4.66514">
        <ele>437.54</ele>
        <time>2013-11-30T13:44:30Z</time>
      </trkpt>
      <trkpt lat="45.77687" lon="4.66514">
        <ele>436.58</ele>
        <time>2013-11-30T13:44:49Z</time>
      </trkpt>
      <trkpt lat="45.77687" lon="4.66514">
        <ele>436.58</ele>
        <time>2013-11-30T13:44:54Z</time>
      </trkpt>
      <trkpt lat="45.77688" lon="4.66514">
        <ele>436.58</ele>
        <time>2013-11-30T13:45:15Z</time>
      </trkpt>
      <trkpt lat="45.77688" lon="4.66513">
        <ele>435.61</ele>
        <time>2013-11-30T13:45:48Z</time>
      </trkpt>
      <trkpt lat="45.77688" lon="4.66513">
        <ele>437.06</ele>
        <time>2013-11-30T13:46:05Z</time>
      </trkpt>
      <trkpt lat="45.77688" lon="4.66513">
        <ele>436.1</ele>
        <time>2013-11-30T13:46:23Z</time>
      </trkpt>
      <trkpt lat="45.77688" lon="4.66508">
        <ele>436.1</ele>
        <time>2013-11-30T13:46:32Z</time>
      </trkpt>
      <trkpt lat="45.77694" lon="4.66505">
        <ele>437.06</ele>
        <time>2013-11-30T13:46:40Z</time>
      </trkpt>
      <trkpt lat="45.77695" lon="4.66512">
        <ele>437.06</ele>
        <time>2013-11-30T13:46:42Z</time>
      </trkpt>
      <trkpt lat="45.77711" lon="4.66532">
        <ele>438.98</ele>
        <time>2013-11-30T13:46:51Z</time>
      </trkpt>
      <trkpt lat="45.77727" lon="4.66546">
        <ele>440.42</ele>
        <time>2013-11-30T13:47:01Z</time>
      </trkpt>
      <trkpt lat="45.7774" lon="4.6656">
        <ele>441.86</ele>
        <time>2013-11-30T13:47:10Z</time>
      </trkpt>
      <trkpt lat="45.77741" lon="4.66562">
        <ele>441.86</ele>
        <time>2013-11-30T13:47:11Z</time>
      </trkpt>
      <trkpt lat="45.77746" lon="4.6657">
        <ele>442.34</ele>
        <time>2013-11-30T13:47:15Z</time>
      </trkpt>
      <trkpt lat="45.7776" lon="4.66591">
        <ele>444.75</ele>
        <time>2013-11-30T13:47:27Z</time>
      </trkpt>
      <trkpt lat="45.77771" lon="4.66608">
        <ele>446.19</ele>
        <time>2013-11-30T13:47:37Z</time>
      </trkpt>
      <trkpt lat="45.77779" lon="4.66605">
        <ele>446.67</ele>
        <time>2013-11-30T13:47:44Z</time>
      </trkpt>
      <trkpt lat="45.7778" lon="4.66602">
        <ele>447.63</ele>
        <time>2013-11-30T13:47:46Z</time>
      </trkpt>
      <trkpt lat="45.77786" lon="4.66601">
        <ele>450.52</ele>
        <time>2013-11-30T13:47:52Z</time>
      </trkpt>
      <trkpt lat="45.77788" lon="4.66603">
        <ele>450.52</ele>
        <time>2013-11-30T13:47:54Z</time>
      </trkpt>
      <trkpt lat="45.77803" lon="4.66617">
        <ele>451.96</ele>
        <time>2013-11-30T13:48:08Z</time>
      </trkpt>
      <trkpt lat="45.77811" lon="4.66615">
        <ele>453.4</ele>
        <time>2013-11-30T13:48:15Z</time>
      </trkpt>
      <trkpt lat="45.77816" lon="4.66614">
        <ele>453.88</ele>
        <time>2013-11-30T13:48:19Z</time>
      </trkpt>
      <trkpt lat="45.7782" lon="4.66611">
        <ele>455.32</ele>
        <time>2013-11-30T13:48:23Z</time>
      </trkpt>
      <trkpt lat="45.77826" lon="4.66608">
        <ele>456.28</ele>
        <time>2013-11-30T13:48:28Z</time>
      </trkpt>
      <trkpt lat="45.77844" lon="4.66612">
        <ele>458.69</ele>
        <time>2013-11-30T13:48:43Z</time>
      </trkpt>
      <trkpt lat="45.77855" lon="4.66616">
        <ele>457.72</ele>
        <time>2013-11-30T13:48:52Z</time>
      </trkpt>
      <trkpt lat="45.77865" lon="4.66617">
        <ele>460.13</ele>
        <time>2013-11-30T13:49:01Z</time>
      </trkpt>
      <trkpt lat="45.77882" lon="4.66619">
        <ele>461.09</ele>
        <time>2013-11-30T13:49:14Z</time>
      </trkpt>
      <trkpt lat="45.77889" lon="4.6662">
        <ele>462.53</ele>
        <time>2013-11-30T13:49:20Z</time>
      </trkpt>
      <trkpt lat="45.77905" lon="4.66613">
        <ele>464.93</ele>
        <time>2013-11-30T13:49:33Z</time>
      </trkpt>
      <trkpt lat="45.77908" lon="4.66611">
        <ele>466.38</ele>
        <time>2013-11-30T13:49:39Z</time>
      </trkpt>
      <trkpt lat="45.77911" lon="4.66607">
        <ele>466.86</ele>
        <time>2013-11-30T13:49:43Z</time>
      </trkpt>
      <trkpt lat="45.77917" lon="4.66597">
        <ele>467.82</ele>
        <time>2013-11-30T13:49:54Z</time>
      </trkpt>
      <trkpt lat="45.77923" lon="4.66588">
        <ele>469.74</ele>
        <time>2013-11-30T13:50:04Z</time>
      </trkpt>
      <trkpt lat="45.77928" lon="4.66582">
        <ele>470.7</ele>
        <time>2013-11-30T13:50:15Z</time>
      </trkpt>
      <trkpt lat="45.77932" lon="4.66579">
        <ele>472.63</ele>
        <time>2013-11-30T13:50:23Z</time>
      </trkpt>
      <trkpt lat="45.77936" lon="4.66576">
        <ele>472.14</ele>
        <time>2013-11-30T13:50:32Z</time>
      </trkpt>
      <trkpt lat="45.77938" lon="4.66574">
        <ele>472.14</ele>
        <time>2013-11-30T13:50:34Z</time>
      </trkpt>
      <trkpt lat="45.77948" lon="4.66563">
        <ele>473.11</ele>
        <time>2013-11-30T13:50:44Z</time>
      </trkpt>
      <trkpt lat="45.7795" lon="4.66558">
        <ele>473.59</ele>
        <time>2013-11-30T13:50:47Z</time>
      </trkpt>
      <trkpt lat="45.77951" lon="4.66549">
        <ele>474.07</ele>
        <time>2013-11-30T13:50:51Z</time>
      </trkpt>
      <trkpt lat="45.77957" lon="4.66531">
        <ele>474.07</ele>
        <time>2013-11-30T13:51:00Z</time>
      </trkpt>
      <trkpt lat="45.7796" lon="4.6652">
        <ele>475.51</ele>
        <time>2013-11-30T13:51:06Z</time>
      </trkpt>
      <trkpt lat="45.77963" lon="4.6651">
        <ele>476.47</ele>
        <time>2013-11-30T13:51:12Z</time>
      </trkpt>
      <trkpt lat="45.77964" lon="4.66494">
        <ele>477.43</ele>
        <time>2013-11-30T13:51:21Z</time>
      </trkpt>
      <trkpt lat="45.77963" lon="4.66473">
        <ele>477.91</ele>
        <time>2013-11-30T13:51:31Z</time>
      </trkpt>
      <trkpt lat="45.77963" lon="4.66472">
        <ele>477.91</ele>
        <time>2013-11-30T13:51:32Z</time>
      </trkpt>
      <trkpt lat="45.77963" lon="4.66464">
        <ele>478.87</ele>
        <time>2013-11-30T13:51:37Z</time>
      </trkpt>
      <trkpt lat="45.77961" lon="4.66449">
        <ele>479.84</ele>
        <time>2013-11-30T13:51:46Z</time>
      </trkpt>
      <trkpt lat="45.77954" lon="4.66421">
        <ele>480.32</ele>
        <time>2013-11-30T13:51:58Z</time>
      </trkpt>
      <trkpt lat="45.77954" lon="4.66416">
        <ele>481.28</ele>
        <time>2013-11-30T13:52:00Z</time>
      </trkpt>
      <trkpt lat="45.77948" lon="4.66398">
        <ele>481.28</ele>
        <time>2013-11-30T13:52:09Z</time>
      </trkpt>
      <trkpt lat="45.77947" lon="4.66396">
        <ele>480.8</ele>
        <time>2013-11-30T13:52:10Z</time>
      </trkpt>
      <trkpt lat="45.77944" lon="4.66379">
        <ele>481.76</ele>
        <time>2013-11-30T13:52:18Z</time>
      </trkpt>
      <trkpt lat="45.77943" lon="4.66371">
        <ele>482.72</ele>
        <time>2013-11-30T13:52:21Z</time>
      </trkpt>
      <trkpt lat="45.77942" lon="4.6636">
        <ele>482.72</ele>
        <time>2013-11-30T13:52:25Z</time>
      </trkpt>
      <trkpt lat="45.77942" lon="4.66334">
        <ele>483.68</ele>
        <time>2013-11-30T13:52:35Z</time>
      </trkpt>
      <trkpt lat="45.77941" lon="4.66321">
        <ele>483.68</ele>
        <time>2013-11-30T13:52:40Z</time>
      </trkpt>
      <trkpt lat="45.77942" lon="4.66288">
        <ele>484.16</ele>
        <time>2013-11-30T13:52:50Z</time>
      </trkpt>
      <trkpt lat="45.77942" lon="4.66285">
        <ele>484.64</ele>
        <time>2013-11-30T13:52:51Z</time>
      </trkpt>
      <trkpt lat="45.77947" lon="4.66242">
        <ele>484.64</ele>
        <time>2013-11-30T13:53:04Z</time>
      </trkpt>
      <trkpt lat="45.77955" lon="4.66215">
        <ele>485.12</ele>
        <time>2013-11-30T13:53:14Z</time>
      </trkpt>
      <trkpt lat="45.77963" lon="4.66195">
        <ele>486.08</ele>
        <time>2013-11-30T13:53:23Z</time>
      </trkpt>
      <trkpt lat="45.77963" lon="4.66195">
        <ele>486.08</ele>
        <time>2013-11-30T13:53:40Z</time>
      </trkpt>
      <trkpt lat="45.77963" lon="4.66195">
        <ele>486.08</ele>
        <time>2013-11-30T13:53:59Z</time>
      </trkpt>
      <trkpt lat="45.77963" lon="4.66195">
        <ele>486.56</ele>
        <time>2013-11-30T13:54:16Z</time>
      </trkpt>
      <trkpt lat="45.77963" lon="4.66195">
        <ele>486.08</ele>
        <time>2013-11-30T13:54:36Z</time>
      </trkpt>
      <trkpt lat="45.77964" lon="4.66193">
        <ele>486.08</ele>
        <time>2013-11-30T13:54:53Z</time>
      </trkpt>
      <trkpt lat="45.77972" lon="4.6617">
        <ele>484.64</ele>
        <time>2013-11-30T13:55:00Z</time>
      </trkpt>
      <trkpt lat="45.77983" lon="4.66137">
        <ele>482.72</ele>
        <time>2013-11-30T13:55:07Z</time>
      </trkpt>
      <trkpt lat="45.77985" lon="4.66131">
        <ele>482.24</ele>
        <time>2013-11-30T13:55:08Z</time>
      </trkpt>
      <trkpt lat="45.77987" lon="4.66123">
        <ele>482.24</ele>
        <time>2013-11-30T13:55:09Z</time>
      </trkpt>
      <trkpt lat="45.77989" lon="4.66116">
        <ele>481.28</ele>
        <time>2013-11-30T13:55:10Z</time>
      </trkpt>
      <trkpt lat="45.77991" lon="4.6611">
        <ele>480.8</ele>
        <time>2013-11-30T13:55:11Z</time>
      </trkpt>
      <trkpt lat="45.77993" lon="4.66103">
        <ele>480.8</ele>
        <time>2013-11-30T13:55:12Z</time>
      </trkpt>
      <trkpt lat="45.78001" lon="4.66076">
        <ele>479.84</ele>
        <time>2013-11-30T13:55:16Z</time>
      </trkpt>
      <trkpt lat="45.78005" lon="4.66058">
        <ele>478.87</ele>
        <time>2013-11-30T13:55:19Z</time>
      </trkpt>
      <trkpt lat="45.78006" lon="4.66052">
        <ele>478.39</ele>
        <time>2013-11-30T13:55:20Z</time>
      </trkpt>
      <trkpt lat="45.78009" lon="4.66045">
        <ele>478.87</ele>
        <time>2013-11-30T13:55:21Z</time>
      </trkpt>
      <trkpt lat="45.78012" lon="4.66038">
        <ele>478.87</ele>
        <time>2013-11-30T13:55:22Z</time>
      </trkpt>
      <trkpt lat="45.78014" lon="4.6603">
        <ele>478.87</ele>
        <time>2013-11-30T13:55:23Z</time>
      </trkpt>
      <trkpt lat="45.78015" lon="4.66022">
        <ele>478.39</ele>
        <time>2013-11-30T13:55:24Z</time>
      </trkpt>
      <trkpt lat="45.78015" lon="4.66014">
        <ele>478.39</ele>
        <time>2013-11-30T13:55:25Z</time>
      </trkpt>
      <trkpt lat="45.78015" lon="4.66007">
        <ele>477.91</ele>
        <time>2013-11-30T13:55:26Z</time>
      </trkpt>
      <trkpt lat="45.78014" lon="4.65999">
        <ele>477.91</ele>
        <time>2013-11-30T13:55:27Z</time>
      </trkpt>
      <trkpt lat="45.78014" lon="4.65991">
        <ele>477.91</ele>
        <time>2013-11-30T13:55:28Z</time>
      </trkpt>
      <trkpt lat="45.78013" lon="4.65984">
        <ele>477.91</ele>
        <time>2013-11-30T13:55:29Z</time>
      </trkpt>
      <trkpt lat="45.78013" lon="4.65977">
        <ele>477.43</ele>
        <time>2013-11-30T13:55:30Z</time>
      </trkpt>
      <trkpt lat="45.78012" lon="4.65969">
        <ele>476.95</ele>
        <time>2013-11-30T13:55:31Z</time>
      </trkpt>
      <trkpt lat="45.78011" lon="4.65962">
        <ele>476.95</ele>
        <time>2013-11-30T13:55:32Z</time>
      </trkpt>
      <trkpt lat="45.78009" lon="4.65947">
        <ele>476.47</ele>
        <time>2013-11-30T13:55:34Z</time>
      </trkpt>
      <trkpt lat="45.78005" lon="4.65931">
        <ele>476.95</ele>
        <time>2013-11-30T13:55:36Z</time>
      </trkpt>
      <trkpt lat="45.78002" lon="4.65925">
        <ele>476.95</ele>
        <time>2013-11-30T13:55:37Z</time>
      </trkpt>
      <trkpt lat="45.77986" lon="4.65885">
        <ele>476.47</ele>
        <time>2013-11-30T13:55:45Z</time>
      </trkpt>
      <trkpt lat="45.77977" lon="4.65864">
        <ele>476.95</ele>
        <time>2013-11-30T13:55:52Z</time>
      </trkpt>
      <trkpt lat="45.77974" lon="4.65858">
        <ele>477.91</ele>
        <time>2013-11-30T13:56:01Z</time>
      </trkpt>
      <trkpt lat="45.77971" lon="4.65852">
        <ele>477.43</ele>
        <time>2013-11-30T13:56:11Z</time>
      </trkpt>
      <trkpt lat="45.77971" lon="4.65849">
        <ele>477.43</ele>
        <time>2013-11-30T13:56:12Z</time>
      </trkpt>
      <trkpt lat="45.77971" lon="4.65843">
        <ele>477.91</ele>
        <time>2013-11-30T13:56:20Z</time>
      </trkpt>
      <trkpt lat="45.77971" lon="4.65843">
        <ele>478.87</ele>
        <time>2013-11-30T13:56:30Z</time>
      </trkpt>
      <trkpt lat="45.77971" lon="4.65841">
        <ele>479.84</ele>
        <time>2013-11-30T13:56:39Z</time>
      </trkpt>
      <trkpt lat="45.77971" lon="4.65841">
        <ele>481.76</ele>
        <time>2013-11-30T13:56:51Z</time>
      </trkpt>
      <trkpt lat="45.77974" lon="4.65837">
        <ele>483.2</ele>
        <time>2013-11-30T13:57:02Z</time>
      </trkpt>
      <trkpt lat="45.7798" lon="4.65827">
        <ele>484.16</ele>
        <time>2013-11-30T13:57:13Z</time>
      </trkpt>
      <trkpt lat="45.77985" lon="4.65817">
        <ele>485.6</ele>
        <time>2013-11-30T13:57:22Z</time>
      </trkpt>
      <trkpt lat="45.77985" lon="4.65805">
        <ele>487.53</ele>
        <time>2013-11-30T13:57:32Z</time>
      </trkpt>
      <trkpt lat="45.77986" lon="4.65797">
        <ele>488.97</ele>
        <time>2013-11-30T13:57:41Z</time>
      </trkpt>
      <trkpt lat="45.77987" lon="4.65793">
        <ele>489.93</ele>
        <time>2013-11-30T13:57:50Z</time>
      </trkpt>
      <trkpt lat="45.77988" lon="4.65783">
        <ele>490.41</ele>
        <time>2013-11-30T13:58:00Z</time>
      </trkpt>
      <trkpt lat="45.7799" lon="4.65771">
        <ele>491.37</ele>
        <time>2013-11-30T13:58:09Z</time>
      </trkpt>
      <trkpt lat="45.77992" lon="4.65754">
        <ele>493.77</ele>
        <time>2013-11-30T13:58:21Z</time>
      </trkpt>
      <trkpt lat="45.77992" lon="4.65743">
        <ele>494.26</ele>
        <time>2013-11-30T13:58:31Z</time>
      </trkpt>
      <trkpt lat="45.77993" lon="4.65734">
        <ele>493.77</ele>
        <time>2013-11-30T13:58:38Z</time>
      </trkpt>
      <trkpt lat="45.77995" lon="4.65722">
        <ele>494.74</ele>
        <time>2013-11-30T13:58:47Z</time>
      </trkpt>
      <trkpt lat="45.77999" lon="4.65708">
        <ele>496.18</ele>
        <time>2013-11-30T13:58:57Z</time>
      </trkpt>
      <trkpt lat="45.77998" lon="4.65699">
        <ele>497.14</ele>
        <time>2013-11-30T13:59:05Z</time>
      </trkpt>
      <trkpt lat="45.77998" lon="4.65689">
        <ele>497.14</ele>
        <time>2013-11-30T13:59:11Z</time>
      </trkpt>
      <trkpt lat="45.77999" lon="4.65673">
        <ele>498.1</ele>
        <time>2013-11-30T13:59:21Z</time>
      </trkpt>
      <trkpt lat="45.78" lon="4.65663">
        <ele>498.58</ele>
        <time>2013-11-30T13:59:28Z</time>
      </trkpt>
      <trkpt lat="45.78002" lon="4.65649">
        <ele>500.02</ele>
        <time>2013-11-30T13:59:37Z</time>
      </trkpt>
      <trkpt lat="45.78005" lon="4.65637">
        <ele>501.46</ele>
        <time>2013-11-30T13:59:48Z</time>
      </trkpt>
      <trkpt lat="45.78007" lon="4.65629">
        <ele>502.43</ele>
        <time>2013-11-30T13:59:58Z</time>
      </trkpt>
      <trkpt lat="45.78009" lon="4.65622">
        <ele>503.39</ele>
        <time>2013-11-30T14:00:07Z</time>
      </trkpt>
      <trkpt lat="45.7801" lon="4.65619">
        <ele>504.35</ele>
        <time>2013-11-30T14:00:15Z</time>
      </trkpt>
      <trkpt lat="45.78011" lon="4.65617">
        <ele>505.31</ele>
        <time>2013-11-30T14:00:25Z</time>
      </trkpt>
      <trkpt lat="45.78013" lon="4.65617">
        <ele>506.75</ele>
        <time>2013-11-30T14:00:31Z</time>
      </trkpt>
      <trkpt lat="45.78019" lon="4.6561">
        <ele>507.71</ele>
        <time>2013-11-30T14:00:40Z</time>
      </trkpt>
      <trkpt lat="45.78025" lon="4.65603">
        <ele>508.19</ele>
        <time>2013-11-30T14:00:48Z</time>
      </trkpt>
      <trkpt lat="45.78031" lon="4.65594">
        <ele>510.12</ele>
        <time>2013-11-30T14:00:58Z</time>
      </trkpt>
      <trkpt lat="45.78037" lon="4.65583">
        <ele>511.08</ele>
        <time>2013-11-30T14:01:07Z</time>
      </trkpt>
      <trkpt lat="45.78043" lon="4.65572">
        <ele>512.04</ele>
        <time>2013-11-30T14:01:17Z</time>
      </trkpt>
      <trkpt lat="45.78046" lon="4.65561">
        <ele>513</ele>
        <time>2013-11-30T14:01:28Z</time>
      </trkpt>
      <trkpt lat="45.78051" lon="4.65552">
        <ele>514.44</ele>
        <time>2013-11-30T14:01:37Z</time>
      </trkpt>
      <trkpt lat="45.78055" lon="4.65546">
        <ele>515.88</ele>
        <time>2013-11-30T14:01:46Z</time>
      </trkpt>
      <trkpt lat="45.78057" lon="4.65539">
        <ele>516.85</ele>
        <time>2013-11-30T14:01:56Z</time>
      </trkpt>
      <trkpt lat="45.78061" lon="4.65533">
        <ele>517.33</ele>
        <time>2013-11-30T14:02:09Z</time>
      </trkpt>
      <trkpt lat="45.78068" lon="4.65531">
        <ele>520.69</ele>
        <time>2013-11-30T14:02:23Z</time>
      </trkpt>
      <trkpt lat="45.78074" lon="4.65528">
        <ele>523.09</ele>
        <time>2013-11-30T14:02:35Z</time>
      </trkpt>
      <trkpt lat="45.78075" lon="4.65528">
        <ele>523.58</ele>
        <time>2013-11-30T14:02:45Z</time>
      </trkpt>
      <trkpt lat="45.7808" lon="4.65528">
        <ele>523.58</ele>
        <time>2013-11-30T14:02:59Z</time>
      </trkpt>
      <trkpt lat="45.78085" lon="4.65526">
        <ele>526.46</ele>
        <time>2013-11-30T14:03:08Z</time>
      </trkpt>
      <trkpt lat="45.7809" lon="4.65523">
        <ele>527.9</ele>
        <time>2013-11-30T14:03:18Z</time>
      </trkpt>
      <trkpt lat="45.78096" lon="4.65519">
        <ele>529.34</ele>
        <time>2013-11-30T14:03:29Z</time>
      </trkpt>
      <trkpt lat="45.78098" lon="4.65519">
        <ele>531.27</ele>
        <time>2013-11-30T14:03:38Z</time>
      </trkpt>
      <trkpt lat="45.781" lon="4.65518">
        <ele>531.27</ele>
        <time>2013-11-30T14:03:44Z</time>
      </trkpt>
      <trkpt lat="45.781" lon="4.65518">
        <ele>530.79</ele>
        <time>2013-11-30T14:04:07Z</time>
      </trkpt>
      <trkpt lat="45.781" lon="4.65517">
        <ele>531.75</ele>
        <time>2013-11-30T14:04:16Z</time>
      </trkpt>
      <trkpt lat="45.78105" lon="4.65517">
        <ele>533.67</ele>
        <time>2013-11-30T14:04:25Z</time>
      </trkpt>
      <trkpt lat="45.78106" lon="4.65516">
        <ele>534.15</ele>
        <time>2013-11-30T14:04:34Z</time>
      </trkpt>
      <trkpt lat="45.78107" lon="4.65514">
        <ele>535.11</ele>
        <time>2013-11-30T14:04:52Z</time>
      </trkpt>
      <trkpt lat="45.7811" lon="4.6551">
        <ele>536.07</ele>
        <time>2013-11-30T14:04:59Z</time>
      </trkpt>
      <trkpt lat="45.78111" lon="4.65509">
        <ele>536.07</ele>
        <time>2013-11-30T14:05:00Z</time>
      </trkpt>
      <trkpt lat="45.78114" lon="4.65502">
        <ele>537.03</ele>
        <time>2013-11-30T14:05:09Z</time>
      </trkpt>
      <trkpt lat="45.78119" lon="4.65497">
        <ele>538.48</ele>
        <time>2013-11-30T14:05:17Z</time>
      </trkpt>
      <trkpt lat="45.78119" lon="4.65496">
        <ele>537.99</ele>
        <time>2013-11-30T14:05:30Z</time>
      </trkpt>
      <trkpt lat="45.7812" lon="4.65494">
        <ele>538.48</ele>
        <time>2013-11-30T14:05:39Z</time>
      </trkpt>
      <trkpt lat="45.7812" lon="4.65494">
        <ele>537.99</ele>
        <time>2013-11-30T14:06:00Z</time>
      </trkpt>
      <trkpt lat="45.7812" lon="4.65494">
        <ele>537.99</ele>
        <time>2013-11-30T14:06:23Z</time>
      </trkpt>
      <trkpt lat="45.7812" lon="4.65487">
        <ele>538.48</ele>
        <time>2013-11-30T14:06:36Z</time>
      </trkpt>
      <trkpt lat="45.7812" lon="4.65485">
        <ele>538.96</ele>
        <time>2013-11-30T14:06:45Z</time>
      </trkpt>
      <trkpt lat="45.7812" lon="4.65482">
        <ele>538.48</ele>
        <time>2013-11-30T14:06:48Z</time>
      </trkpt>
      <trkpt lat="45.7812" lon="4.65465">
        <ele>538.96</ele>
        <time>2013-11-30T14:06:57Z</time>
      </trkpt>
      <trkpt lat="45.78121" lon="4.65444">
        <ele>539.44</ele>
        <time>2013-11-30T14:07:06Z</time>
      </trkpt>
      <trkpt lat="45.78122" lon="4.65435">
        <ele>539.92</ele>
        <time>2013-11-30T14:07:10Z</time>
      </trkpt>
      <trkpt lat="45.78123" lon="4.65433">
        <ele>539.92</ele>
        <time>2013-11-30T14:07:11Z</time>
      </trkpt>
      <trkpt lat="45.78123" lon="4.65431">
        <ele>539.92</ele>
        <time>2013-11-30T14:07:12Z</time>
      </trkpt>
      <trkpt lat="45.78124" lon="4.65428">
        <ele>540.4</ele>
        <time>2013-11-30T14:07:13Z</time>
      </trkpt>
      <trkpt lat="45.78124" lon="4.65426">
        <ele>539.92</ele>
        <time>2013-11-30T14:07:14Z</time>
      </trkpt>
      <trkpt lat="45.78124" lon="4.65423">
        <ele>539.92</ele>
        <time>2013-11-30T14:07:15Z</time>
      </trkpt>
      <trkpt lat="45.78126" lon="4.65412">
        <ele>540.4</ele>
        <time>2013-11-30T14:07:21Z</time>
      </trkpt>
      <trkpt lat="45.78127" lon="4.65401">
        <ele>540.88</ele>
        <time>2013-11-30T14:07:28Z</time>
      </trkpt>
      <trkpt lat="45.78128" lon="4.65398">
        <ele>540.88</ele>
        <time>2013-11-30T14:07:38Z</time>
      </trkpt>
      <trkpt lat="45.78129" lon="4.65391">
        <ele>541.36</ele>
        <time>2013-11-30T14:07:45Z</time>
      </trkpt>
      <trkpt lat="45.78129" lon="4.65378">
        <ele>542.8</ele>
        <time>2013-11-30T14:07:55Z</time>
      </trkpt>
      <trkpt lat="45.78129" lon="4.6537">
        <ele>543.28</ele>
        <time>2013-11-30T14:08:03Z</time>
      </trkpt>
      <trkpt lat="45.7813" lon="4.65358">
        <ele>545.2</ele>
        <time>2013-11-30T14:08:12Z</time>
      </trkpt>
      <trkpt lat="45.78129" lon="4.65352">
        <ele>545.2</ele>
        <time>2013-11-30T14:08:22Z</time>
      </trkpt>
      <trkpt lat="45.78128" lon="4.65341">
        <ele>546.17</ele>
        <time>2013-11-30T14:08:31Z</time>
      </trkpt>
      <trkpt lat="45.78126" lon="4.65325">
        <ele>546.65</ele>
        <time>2013-11-30T14:08:39Z</time>
      </trkpt>
      <trkpt lat="45.78126" lon="4.65312">
        <ele>547.13</ele>
        <time>2013-11-30T14:08:46Z</time>
      </trkpt>
      <trkpt lat="45.78127" lon="4.65294">
        <ele>548.57</ele>
        <time>2013-11-30T14:08:56Z</time>
      </trkpt>
      <trkpt lat="45.78128" lon="4.65285">
        <ele>548.57</ele>
        <time>2013-11-30T14:09:05Z</time>
      </trkpt>
      <trkpt lat="45.7813" lon="4.65271">
        <ele>550.49</ele>
        <time>2013-11-30T14:09:15Z</time>
      </trkpt>
      <trkpt lat="45.7813" lon="4.65263">
        <ele>551.45</ele>
        <time>2013-11-30T14:09:24Z</time>
      </trkpt>
      <trkpt lat="45.78131" lon="4.65258">
        <ele>552.9</ele>
        <time>2013-11-30T14:09:34Z</time>
      </trkpt>
      <trkpt lat="45.78131" lon="4.65249">
        <ele>553.86</ele>
        <time>2013-11-30T14:09:44Z</time>
      </trkpt>
      <trkpt lat="45.78131" lon="4.65237">
        <ele>554.82</ele>
        <time>2013-11-30T14:09:54Z</time>
      </trkpt>
      <trkpt lat="45.78132" lon="4.65234">
        <ele>554.82</ele>
        <time>2013-11-30T14:10:07Z</time>
      </trkpt>
      <trkpt lat="45.78133" lon="4.65219">
        <ele>555.3</ele>
        <time>2013-11-30T14:10:18Z</time>
      </trkpt>
      <trkpt lat="45.78136" lon="4.65208">
        <ele>556.74</ele>
        <time>2013-11-30T14:10:26Z</time>
      </trkpt>
      <trkpt lat="45.78138" lon="4.65197">
        <ele>558.18</ele>
        <time>2013-11-30T14:10:36Z</time>
      </trkpt>
      <trkpt lat="45.7814" lon="4.65186">
        <ele>558.66</ele>
        <time>2013-11-30T14:10:45Z</time>
      </trkpt>
      <trkpt lat="45.78143" lon="4.65171">
        <ele>559.14</ele>
        <time>2013-11-30T14:10:55Z</time>
      </trkpt>
      <trkpt lat="45.78145" lon="4.65166">
        <ele>559.62</ele>
        <time>2013-11-30T14:10:58Z</time>
      </trkpt>
      <trkpt lat="45.78148" lon="4.65158">
        <ele>560.59</ele>
        <time>2013-11-30T14:11:08Z</time>
      </trkpt>
      <trkpt lat="45.78148" lon="4.65151">
        <ele>561.07</ele>
        <time>2013-11-30T14:11:12Z</time>
      </trkpt>
      <trkpt lat="45.78148" lon="4.65148">
        <ele>561.07</ele>
        <time>2013-11-30T14:11:13Z</time>
      </trkpt>
      <trkpt lat="45.78148" lon="4.65143">
        <ele>560.59</ele>
        <time>2013-11-30T14:11:15Z</time>
      </trkpt>
      <trkpt lat="45.78148" lon="4.6514">
        <ele>560.59</ele>
        <time>2013-11-30T14:11:16Z</time>
      </trkpt>
      <trkpt lat="45.78148" lon="4.65138">
        <ele>560.59</ele>
        <time>2013-11-30T14:11:17Z</time>
      </trkpt>
      <trkpt lat="45.7815" lon="4.65136">
        <ele>560.59</ele>
        <time>2013-11-30T14:11:18Z</time>
      </trkpt>
      <trkpt lat="45.78153" lon="4.65134">
        <ele>562.03</ele>
        <time>2013-11-30T14:11:26Z</time>
      </trkpt>
      <trkpt lat="45.78156" lon="4.65135">
        <ele>562.99</ele>
        <time>2013-11-30T14:11:34Z</time>
      </trkpt>
      <trkpt lat="45.78163" lon="4.65135">
        <ele>563.95</ele>
        <time>2013-11-30T14:11:45Z</time>
      </trkpt>
      <trkpt lat="45.78168" lon="4.65135">
        <ele>565.87</ele>
        <time>2013-11-30T14:11:55Z</time>
      </trkpt>
      <trkpt lat="45.78174" lon="4.65134">
        <ele>566.83</ele>
        <time>2013-11-30T14:12:06Z</time>
      </trkpt>
      <trkpt lat="45.78175" lon="4.65135">
        <ele>566.83</ele>
        <time>2013-11-30T14:12:19Z</time>
      </trkpt>
      <trkpt lat="45.78178" lon="4.65134">
        <ele>568.28</ele>
        <time>2013-11-30T14:12:27Z</time>
      </trkpt>
      <trkpt lat="45.78179" lon="4.65133">
        <ele>568.76</ele>
        <time>2013-11-30T14:12:36Z</time>
      </trkpt>
      <trkpt lat="45.78184" lon="4.65133">
        <ele>568.76</ele>
        <time>2013-11-30T14:12:42Z</time>
      </trkpt>
      <trkpt lat="45.78192" lon="4.65136">
        <ele>571.16</ele>
        <time>2013-11-30T14:12:51Z</time>
      </trkpt>
      <trkpt lat="45.78198" lon="4.65137">
        <ele>571.64</ele>
        <time>2013-11-30T14:12:57Z</time>
      </trkpt>
      <trkpt lat="45.78204" lon="4.65137">
        <ele>572.6</ele>
        <time>2013-11-30T14:13:06Z</time>
      </trkpt>
      <trkpt lat="45.78213" lon="4.65136">
        <ele>574.53</ele>
        <time>2013-11-30T14:13:15Z</time>
      </trkpt>
      <trkpt lat="45.78222" lon="4.65133">
        <ele>575.49</ele>
        <time>2013-11-30T14:13:25Z</time>
      </trkpt>
      <trkpt lat="45.78227" lon="4.65131">
        <ele>576.93</ele>
        <time>2013-11-30T14:13:34Z</time>
      </trkpt>
      <trkpt lat="45.78232" lon="4.65129">
        <ele>578.37</ele>
        <time>2013-11-30T14:13:43Z</time>
      </trkpt>
      <trkpt lat="45.78235" lon="4.65127">
        <ele>578.85</ele>
        <time>2013-11-30T14:13:54Z</time>
      </trkpt>
      <trkpt lat="45.78242" lon="4.65123">
        <ele>581.73</ele>
        <time>2013-11-30T14:14:04Z</time>
      </trkpt>
      <trkpt lat="45.78249" lon="4.65122">
        <ele>583.18</ele>
        <time>2013-11-30T14:14:14Z</time>
      </trkpt>
      <trkpt lat="45.78252" lon="4.6512">
        <ele>582.7</ele>
        <time>2013-11-30T14:14:22Z</time>
      </trkpt>
      <trkpt lat="45.78258" lon="4.65111">
        <ele>584.62</ele>
        <time>2013-11-30T14:14:32Z</time>
      </trkpt>
      <trkpt lat="45.78262" lon="4.65101">
        <ele>584.62</ele>
        <time>2013-11-30T14:14:42Z</time>
      </trkpt>
      <trkpt lat="45.78268" lon="4.65092">
        <ele>586.06</ele>
        <time>2013-11-30T14:14:53Z</time>
      </trkpt>
      <trkpt lat="45.78276" lon="4.65086">
        <ele>586.54</ele>
        <time>2013-11-30T14:15:03Z</time>
      </trkpt>
      <trkpt lat="45.78283" lon="4.65082">
        <ele>587.98</ele>
        <time>2013-11-30T14:15:14Z</time>
      </trkpt>
      <trkpt lat="45.78288" lon="4.65074">
        <ele>588.46</ele>
        <time>2013-11-30T14:15:23Z</time>
      </trkpt>
      <trkpt lat="45.78298" lon="4.6506">
        <ele>589.43</ele>
        <time>2013-11-30T14:15:32Z</time>
      </trkpt>
      <trkpt lat="45.78301" lon="4.65058">
        <ele>588.95</ele>
        <time>2013-11-30T14:15:34Z</time>
      </trkpt>
      <trkpt lat="45.78302" lon="4.65057">
        <ele>588.95</ele>
        <time>2013-11-30T14:15:35Z</time>
      </trkpt>
      <trkpt lat="45.78304" lon="4.65055">
        <ele>589.91</ele>
        <time>2013-11-30T14:15:36Z</time>
      </trkpt>
      <trkpt lat="45.78305" lon="4.65053">
        <ele>589.91</ele>
        <time>2013-11-30T14:15:37Z</time>
      </trkpt>
      <trkpt lat="45.78307" lon="4.65052">
        <ele>589.91</ele>
        <time>2013-11-30T14:15:38Z</time>
      </trkpt>
      <trkpt lat="45.78308" lon="4.6505">
        <ele>589.91</ele>
        <time>2013-11-30T14:15:39Z</time>
      </trkpt>
      <trkpt lat="45.7831" lon="4.65048">
        <ele>590.39</ele>
        <time>2013-11-30T14:15:40Z</time>
      </trkpt>
      <trkpt lat="45.78321" lon="4.65038">
        <ele>590.87</ele>
        <time>2013-11-30T14:15:48Z</time>
      </trkpt>
      <trkpt lat="45.78323" lon="4.65037">
        <ele>591.35</ele>
        <time>2013-11-30T14:15:49Z</time>
      </trkpt>
      <trkpt lat="45.78324" lon="4.65035">
        <ele>590.87</ele>
        <time>2013-11-30T14:15:50Z</time>
      </trkpt>
      <trkpt lat="45.78325" lon="4.65033">
        <ele>591.35</ele>
        <time>2013-11-30T14:15:51Z</time>
      </trkpt>
      <trkpt lat="45.78326" lon="4.65032">
        <ele>592.31</ele>
        <time>2013-11-30T14:15:52Z</time>
      </trkpt>
      <trkpt lat="45.78328" lon="4.65031">
        <ele>591.35</ele>
        <time>2013-11-30T14:15:53Z</time>
      </trkpt>
      <trkpt lat="45.7833" lon="4.65029">
        <ele>592.31</ele>
        <time>2013-11-30T14:15:54Z</time>
      </trkpt>
      <trkpt lat="45.78331" lon="4.65028">
        <ele>591.83</ele>
        <time>2013-11-30T14:15:55Z</time>
      </trkpt>
      <trkpt lat="45.78333" lon="4.65026">
        <ele>591.83</ele>
        <time>2013-11-30T14:15:56Z</time>
      </trkpt>
      <trkpt lat="45.78334" lon="4.65024">
        <ele>591.83</ele>
        <time>2013-11-30T14:15:57Z</time>
      </trkpt>
      <trkpt lat="45.78336" lon="4.65023">
        <ele>591.83</ele>
        <time>2013-11-30T14:15:58Z</time>
      </trkpt>
      <trkpt lat="45.78337" lon="4.6502">
        <ele>591.35</ele>
        <time>2013-11-30T14:15:59Z</time>
      </trkpt>
      <trkpt lat="45.78355" lon="4.64994">
        <ele>590.39</ele>
        <time>2013-11-30T14:16:09Z</time>
      </trkpt>
      <trkpt lat="45.7836" lon="4.64988">
        <ele>590.39</ele>
        <time>2013-11-30T14:16:18Z</time>
      </trkpt>
      <trkpt lat="45.7836" lon="4.64988">
        <ele>589.91</ele>
        <time>2013-11-30T14:16:38Z</time>
      </trkpt>
      <trkpt lat="45.7836" lon="4.64988">
        <ele>589.91</ele>
        <time>2013-11-30T14:17:01Z</time>
      </trkpt>
      <trkpt lat="45.7836" lon="4.64988">
        <ele>589.91</ele>
        <time>2013-11-30T14:17:27Z</time>
      </trkpt>
      <trkpt lat="45.78362" lon="4.64987">
        <ele>589.43</ele>
        <time>2013-11-30T14:17:39Z</time>
      </trkpt>
      <trkpt lat="45.78375" lon="4.64987">
        <ele>588.46</ele>
        <time>2013-11-30T14:17:45Z</time>
      </trkpt>
      <trkpt lat="45.78377" lon="4.64989">
        <ele>588.95</ele>
        <time>2013-11-30T14:17:46Z</time>
      </trkpt>
      <trkpt lat="45.7838" lon="4.64989">
        <ele>588.95</ele>
        <time>2013-11-30T14:17:47Z</time>
      </trkpt>
      <trkpt lat="45.78395" lon="4.64988">
        <ele>588.46</ele>
        <time>2013-11-30T14:17:52Z</time>
      </trkpt>
      <trkpt lat="45.78399" lon="4.64983">
        <ele>587.98</ele>
        <time>2013-11-30T14:17:59Z</time>
      </trkpt>
      <trkpt lat="45.78397" lon="4.64975">
        <ele>588.95</ele>
        <time>2013-11-30T14:18:08Z</time>
      </trkpt>
      <trkpt lat="45.78396" lon="4.64973">
        <ele>589.43</ele>
        <time>2013-11-30T14:18:12Z</time>
      </trkpt>
      <trkpt lat="45.78392" lon="4.64964">
        <ele>591.83</ele>
        <time>2013-11-30T14:18:22Z</time>
      </trkpt>
      <trkpt lat="45.7839" lon="4.64958">
        <ele>592.79</ele>
        <time>2013-11-30T14:18:31Z</time>
      </trkpt>
      <trkpt lat="45.78387" lon="4.64949">
        <ele>594.71</ele>
        <time>2013-11-30T14:18:42Z</time>
      </trkpt>
      <trkpt lat="45.7839" lon="4.64942">
        <ele>596.15</ele>
        <time>2013-11-30T14:18:52Z</time>
      </trkpt>
      <trkpt lat="45.7839" lon="4.64932">
        <ele>597.12</ele>
        <time>2013-11-30T14:19:03Z</time>
      </trkpt>
      <trkpt lat="45.7839" lon="4.64924">
        <ele>598.08</ele>
        <time>2013-11-30T14:19:14Z</time>
      </trkpt>
      <trkpt lat="45.78389" lon="4.64917">
        <ele>598.08</ele>
        <time>2013-11-30T14:19:23Z</time>
      </trkpt>
      <trkpt lat="45.7838" lon="4.649">
        <ele>599.04</ele>
        <time>2013-11-30T14:19:31Z</time>
      </trkpt>
      <trkpt lat="45.7838" lon="4.64888">
        <ele>599.04</ele>
        <time>2013-11-30T14:19:35Z</time>
      </trkpt>
      <trkpt lat="45.78381" lon="4.64885">
        <ele>599.04</ele>
        <time>2013-11-30T14:19:36Z</time>
      </trkpt>
      <trkpt lat="45.78382" lon="4.64883">
        <ele>598.56</ele>
        <time>2013-11-30T14:19:37Z</time>
      </trkpt>
      <trkpt lat="45.78383" lon="4.64873">
        <ele>599.04</ele>
        <time>2013-11-30T14:19:40Z</time>
      </trkpt>
      <trkpt lat="45.78382" lon="4.64869">
        <ele>599.04</ele>
        <time>2013-11-30T14:19:41Z</time>
      </trkpt>
      <trkpt lat="45.78381" lon="4.64833">
        <ele>599.52</ele>
        <time>2013-11-30T14:19:51Z</time>
      </trkpt>
      <trkpt lat="45.7838" lon="4.64824">
        <ele>600</ele>
        <time>2013-11-30T14:19:54Z</time>
      </trkpt>
      <trkpt lat="45.78379" lon="4.64821">
        <ele>600</ele>
        <time>2013-11-30T14:19:55Z</time>
      </trkpt>
      <trkpt lat="45.78378" lon="4.64818">
        <ele>599.52</ele>
        <time>2013-11-30T14:19:56Z</time>
      </trkpt>
      <trkpt lat="45.78374" lon="4.64801">
        <ele>600</ele>
        <time>2013-11-30T14:20:00Z</time>
      </trkpt>
      <trkpt lat="45.78372" lon="4.64798">
        <ele>599.52</ele>
        <time>2013-11-30T14:20:01Z</time>
      </trkpt>
      <trkpt lat="45.7837" lon="4.64795">
        <ele>600</ele>
        <time>2013-11-30T14:20:02Z</time>
      </trkpt>
      <trkpt lat="45.78368" lon="4.64791">
        <ele>600</ele>
        <time>2013-11-30T14:20:03Z</time>
      </trkpt>
      <trkpt lat="45.78366" lon="4.64787">
        <ele>600</ele>
        <time>2013-11-30T14:20:04Z</time>
      </trkpt>
      <trkpt lat="45.78354" lon="4.64762">
        <ele>600.48</ele>
        <time>2013-11-30T14:20:11Z</time>
      </trkpt>
      <trkpt lat="45.78351" lon="4.64758">
        <ele>600.48</ele>
        <time>2013-11-30T14:20:13Z</time>
      </trkpt>
      <trkpt lat="45.78344" lon="4.64753">
        <ele>601.92</ele>
        <time>2013-11-30T14:20:17Z</time>
      </trkpt>
      <trkpt lat="45.78335" lon="4.64742">
        <ele>602.4</ele>
        <time>2013-11-30T14:20:25Z</time>
      </trkpt>
      <trkpt lat="45.78335" lon="4.6474">
        <ele>602.4</ele>
        <time>2013-11-30T14:20:26Z</time>
      </trkpt>
      <trkpt lat="45.78334" lon="4.64738">
        <ele>602.4</ele>
        <time>2013-11-30T14:20:27Z</time>
      </trkpt>
      <trkpt lat="45.78326" lon="4.64727">
        <ele>603.36</ele>
        <time>2013-11-30T14:20:33Z</time>
      </trkpt>
      <trkpt lat="45.78325" lon="4.64726">
        <ele>602.88</ele>
        <time>2013-11-30T14:20:34Z</time>
      </trkpt>
      <trkpt lat="45.78324" lon="4.64724">
        <ele>603.85</ele>
        <time>2013-11-30T14:20:35Z</time>
      </trkpt>
      <trkpt lat="45.78322" lon="4.64723">
        <ele>603.85</ele>
        <time>2013-11-30T14:20:36Z</time>
      </trkpt>
      <trkpt lat="45.78315" lon="4.64716">
        <ele>604.81</ele>
        <time>2013-11-30T14:20:41Z</time>
      </trkpt>
      <trkpt lat="45.78307" lon="4.64705">
        <ele>606.25</ele>
        <time>2013-11-30T14:20:50Z</time>
      </trkpt>
      <trkpt lat="45.78299" lon="4.64692">
        <ele>606.73</ele>
        <time>2013-11-30T14:20:59Z</time>
      </trkpt>
      <trkpt lat="45.78297" lon="4.64689">
        <ele>607.21</ele>
        <time>2013-11-30T14:21:01Z</time>
      </trkpt>
      <trkpt lat="45.7829" lon="4.64679">
        <ele>608.65</ele>
        <time>2013-11-30T14:21:10Z</time>
      </trkpt>
      <trkpt lat="45.78278" lon="4.64667">
        <ele>608.65</ele>
        <time>2013-11-30T14:21:19Z</time>
      </trkpt>
      <trkpt lat="45.78275" lon="4.64664">
        <ele>608.65</ele>
        <time>2013-11-30T14:21:21Z</time>
      </trkpt>
      <trkpt lat="45.78273" lon="4.64663">
        <ele>608.65</ele>
        <time>2013-11-30T14:21:22Z</time>
      </trkpt>
      <trkpt lat="45.78256" lon="4.64646">
        <ele>608.17</ele>
        <time>2013-11-30T14:21:33Z</time>
      </trkpt>
      <trkpt lat="45.78239" lon="4.64623">
        <ele>607.21</ele>
        <time>2013-11-30T14:21:42Z</time>
      </trkpt>
      <trkpt lat="45.78232" lon="4.64617">
        <ele>606.73</ele>
        <time>2013-11-30T14:21:46Z</time>
      </trkpt>
      <trkpt lat="45.7823" lon="4.64615">
        <ele>606.73</ele>
        <time>2013-11-30T14:21:47Z</time>
      </trkpt>
      <trkpt lat="45.78228" lon="4.64613">
        <ele>607.21</ele>
        <time>2013-11-30T14:21:48Z</time>
      </trkpt>
      <trkpt lat="45.78227" lon="4.6461">
        <ele>606.25</ele>
        <time>2013-11-30T14:21:49Z</time>
      </trkpt>
      <trkpt lat="45.78219" lon="4.64598">
        <ele>608.17</ele>
        <time>2013-11-30T14:21:55Z</time>
      </trkpt>
      <trkpt lat="45.78218" lon="4.64598">
        <ele>608.17</ele>
        <time>2013-11-30T14:21:56Z</time>
      </trkpt>
      <trkpt lat="45.78215" lon="4.64598">
        <ele>608.17</ele>
        <time>2013-11-30T14:21:57Z</time>
      </trkpt>
      <trkpt lat="45.78213" lon="4.64598">
        <ele>608.17</ele>
        <time>2013-11-30T14:21:58Z</time>
      </trkpt>
      <trkpt lat="45.7821" lon="4.64596">
        <ele>607.69</ele>
        <time>2013-11-30T14:21:59Z</time>
      </trkpt>
      <trkpt lat="45.78209" lon="4.64593">
        <ele>608.17</ele>
        <time>2013-11-30T14:22:00Z</time>
      </trkpt>
      <trkpt lat="45.78207" lon="4.64591">
        <ele>607.69</ele>
        <time>2013-11-30T14:22:01Z</time>
      </trkpt>
      <trkpt lat="45.78205" lon="4.64589">
        <ele>608.17</ele>
        <time>2013-11-30T14:22:02Z</time>
      </trkpt>
      <trkpt lat="45.78203" lon="4.64587">
        <ele>608.17</ele>
        <time>2013-11-30T14:22:03Z</time>
      </trkpt>
      <trkpt lat="45.78196" lon="4.64582">
        <ele>608.65</ele>
        <time>2013-11-30T14:22:08Z</time>
      </trkpt>
      <trkpt lat="45.78186" lon="4.64576">
        <ele>609.13</ele>
        <time>2013-11-30T14:22:12Z</time>
      </trkpt>
      <trkpt lat="45.78184" lon="4.64574">
        <ele>609.61</ele>
        <time>2013-11-30T14:22:13Z</time>
      </trkpt>
      <trkpt lat="45.78182" lon="4.64573">
        <ele>609.61</ele>
        <time>2013-11-30T14:22:14Z</time>
      </trkpt>
      <trkpt lat="45.7818" lon="4.64573">
        <ele>609.61</ele>
        <time>2013-11-30T14:22:15Z</time>
      </trkpt>
      <trkpt lat="45.78176" lon="4.6457">
        <ele>609.61</ele>
        <time>2013-11-30T14:22:16Z</time>
      </trkpt>
      <trkpt lat="45.78173" lon="4.64567">
        <ele>609.61</ele>
        <time>2013-11-30T14:22:17Z</time>
      </trkpt>
      <trkpt lat="45.78167" lon="4.64565">
        <ele>610.57</ele>
        <time>2013-11-30T14:22:25Z</time>
      </trkpt>
      <trkpt lat="45.78166" lon="4.64564">
        <ele>611.06</ele>
        <time>2013-11-30T14:22:36Z</time>
      </trkpt>
      <trkpt lat="45.78164" lon="4.64563">
        <ele>612.5</ele>
        <time>2013-11-30T14:22:39Z</time>
      </trkpt>
      <trkpt lat="45.78152" lon="4.64552">
        <ele>611.54</ele>
        <time>2013-11-30T14:22:50Z</time>
      </trkpt>
      <trkpt lat="45.78141" lon="4.64542">
        <ele>612.98</ele>
        <time>2013-11-30T14:23:01Z</time>
      </trkpt>
      <trkpt lat="45.78135" lon="4.6454">
        <ele>614.42</ele>
        <time>2013-11-30T14:23:11Z</time>
      </trkpt>
      <trkpt lat="45.78131" lon="4.64536">
        <ele>615.38</ele>
        <time>2013-11-30T14:23:21Z</time>
      </trkpt>
      <trkpt lat="45.78127" lon="4.64531">
        <ele>617.78</ele>
        <time>2013-11-30T14:23:30Z</time>
      </trkpt>
      <trkpt lat="45.78119" lon="4.64526">
        <ele>619.23</ele>
        <time>2013-11-30T14:23:41Z</time>
      </trkpt>
      <trkpt lat="45.78111" lon="4.64523">
        <ele>621.15</ele>
        <time>2013-11-30T14:23:52Z</time>
      </trkpt>
      <trkpt lat="45.78104" lon="4.64522">
        <ele>622.59</ele>
        <time>2013-11-30T14:24:02Z</time>
      </trkpt>
      <trkpt lat="45.78098" lon="4.64518">
        <ele>623.55</ele>
        <time>2013-11-30T14:24:12Z</time>
      </trkpt>
      <trkpt lat="45.7809" lon="4.64515">
        <ele>625.47</ele>
        <time>2013-11-30T14:24:23Z</time>
      </trkpt>
      <trkpt lat="45.78085" lon="4.64513">
        <ele>627.4</ele>
        <time>2013-11-30T14:24:31Z</time>
      </trkpt>
      <trkpt lat="45.78081" lon="4.64513">
        <ele>629.32</ele>
        <time>2013-11-30T14:24:41Z</time>
      </trkpt>
      <trkpt lat="45.78075" lon="4.64512">
        <ele>629.8</ele>
        <time>2013-11-30T14:24:52Z</time>
      </trkpt>
      <trkpt lat="45.78072" lon="4.64509">
        <ele>630.76</ele>
        <time>2013-11-30T14:25:00Z</time>
      </trkpt>
      <trkpt lat="45.78071" lon="4.64509">
        <ele>630.76</ele>
        <time>2013-11-30T14:25:02Z</time>
      </trkpt>
      <trkpt lat="45.78067" lon="4.64505">
        <ele>632.2</ele>
        <time>2013-11-30T14:25:12Z</time>
      </trkpt>
      <trkpt lat="45.78062" lon="4.64501">
        <ele>634.61</ele>
        <time>2013-11-30T14:25:23Z</time>
      </trkpt>
      <trkpt lat="45.7806" lon="4.64498">
        <ele>635.57</ele>
        <time>2013-11-30T14:25:36Z</time>
      </trkpt>
      <trkpt lat="45.78054" lon="4.64489">
        <ele>637.49</ele>
        <time>2013-11-30T14:25:46Z</time>
      </trkpt>
      <trkpt lat="45.78049" lon="4.64482">
        <ele>638.45</ele>
        <time>2013-11-30T14:25:55Z</time>
      </trkpt>
      <trkpt lat="45.78042" lon="4.64475">
        <ele>638.93</ele>
        <time>2013-11-30T14:26:05Z</time>
      </trkpt>
      <trkpt lat="45.78035" lon="4.64468">
        <ele>640.38</ele>
        <time>2013-11-30T14:26:16Z</time>
      </trkpt>
      <trkpt lat="45.78027" lon="4.64458">
        <ele>640.38</ele>
        <time>2013-11-30T14:26:27Z</time>
      </trkpt>
      <trkpt lat="45.7802" lon="4.64452">
        <ele>639.89</ele>
        <time>2013-11-30T14:26:39Z</time>
      </trkpt>
      <trkpt lat="45.78019" lon="4.64448">
        <ele>638.93</ele>
        <time>2013-11-30T14:26:49Z</time>
      </trkpt>
      <trkpt lat="45.78019" lon="4.64448">
        <ele>642.3</ele>
        <time>2013-11-30T14:26:57Z</time>
      </trkpt>
      <trkpt lat="45.78019" lon="4.64448">
        <ele>641.34</ele>
        <time>2013-11-30T14:27:17Z</time>
      </trkpt>
      <trkpt lat="45.7802" lon="4.64448">
        <ele>641.34</ele>
        <time>2013-11-30T14:27:38Z</time>
      </trkpt>
      <trkpt lat="45.7802" lon="4.64448">
        <ele>640.38</ele>
        <time>2013-11-30T14:27:52Z</time>
      </trkpt>
      <trkpt lat="45.78018" lon="4.64442">
        <ele>641.82</ele>
        <time>2013-11-30T14:28:11Z</time>
      </trkpt>
      <trkpt lat="45.78012" lon="4.64432">
        <ele>641.34</ele>
        <time>2013-11-30T14:28:18Z</time>
      </trkpt>
      <trkpt lat="45.78011" lon="4.64429">
        <ele>640.86</ele>
        <time>2013-11-30T14:28:19Z</time>
      </trkpt>
      <trkpt lat="45.78004" lon="4.64417">
        <ele>638.93</ele>
        <time>2013-11-30T14:28:23Z</time>
      </trkpt>
      <trkpt lat="45.77994" lon="4.644">
        <ele>637.01</ele>
        <time>2013-11-30T14:28:28Z</time>
      </trkpt>
      <trkpt lat="45.77991" lon="4.64395">
        <ele>637.01</ele>
        <time>2013-11-30T14:28:29Z</time>
      </trkpt>
      <trkpt lat="45.77987" lon="4.6439">
        <ele>635.57</ele>
        <time>2013-11-30T14:28:30Z</time>
      </trkpt>
      <trkpt lat="45.77984" lon="4.64385">
        <ele>635.09</ele>
        <time>2013-11-30T14:28:31Z</time>
      </trkpt>
      <trkpt lat="45.77981" lon="4.64379">
        <ele>634.61</ele>
        <time>2013-11-30T14:28:32Z</time>
      </trkpt>
      <trkpt lat="45.77977" lon="4.64373">
        <ele>633.65</ele>
        <time>2013-11-30T14:28:33Z</time>
      </trkpt>
      <trkpt lat="45.77974" lon="4.64366">
        <ele>633.65</ele>
        <time>2013-11-30T14:28:34Z</time>
      </trkpt>
      <trkpt lat="45.77971" lon="4.64359">
        <ele>632.68</ele>
        <time>2013-11-30T14:28:35Z</time>
      </trkpt>
      <trkpt lat="45.77968" lon="4.64353">
        <ele>632.2</ele>
        <time>2013-11-30T14:28:36Z</time>
      </trkpt>
      <trkpt lat="45.77956" lon="4.64326">
        <ele>628.84</ele>
        <time>2013-11-30T14:28:40Z</time>
      </trkpt>
      <trkpt lat="45.7795" lon="4.64314">
        <ele>627.4</ele>
        <time>2013-11-30T14:28:42Z</time>
      </trkpt>
      <trkpt lat="45.77936" lon="4.64288">
        <ele>624.03</ele>
        <time>2013-11-30T14:28:46Z</time>
      </trkpt>
      <trkpt lat="45.77925" lon="4.64267">
        <ele>620.67</ele>
        <time>2013-11-30T14:28:49Z</time>
      </trkpt>
      <trkpt lat="45.77922" lon="4.64259">
        <ele>620.67</ele>
        <time>2013-11-30T14:28:50Z</time>
      </trkpt>
      <trkpt lat="45.77913" lon="4.64235">
        <ele>619.23</ele>
        <time>2013-11-30T14:28:53Z</time>
      </trkpt>
      <trkpt lat="45.77891" lon="4.6419">
        <ele>615.86</ele>
        <time>2013-11-30T14:28:59Z</time>
      </trkpt>
      <trkpt lat="45.77879" lon="4.6417">
        <ele>613.94</ele>
        <time>2013-11-30T14:29:02Z</time>
      </trkpt>
      <trkpt lat="45.77873" lon="4.6416">
        <ele>613.46</ele>
        <time>2013-11-30T14:29:04Z</time>
      </trkpt>
      <trkpt lat="45.7787" lon="4.64153">
        <ele>612.5</ele>
        <time>2013-11-30T14:29:05Z</time>
      </trkpt>
      <trkpt lat="45.77856" lon="4.64123">
        <ele>609.61</ele>
        <time>2013-11-30T14:29:09Z</time>
      </trkpt>
      <trkpt lat="45.77842" lon="4.64088">
        <ele>605.77</ele>
        <time>2013-11-30T14:29:13Z</time>
      </trkpt>
      <trkpt lat="45.77825" lon="4.64043">
        <ele>603.85</ele>
        <time>2013-11-30T14:29:18Z</time>
      </trkpt>
      <trkpt lat="45.77797" lon="4.63995">
        <ele>601.92</ele>
        <time>2013-11-30T14:29:26Z</time>
      </trkpt>
      <trkpt lat="45.77793" lon="4.6399">
        <ele>600.96</ele>
        <time>2013-11-30T14:29:28Z</time>
      </trkpt>
      <trkpt lat="45.77793" lon="4.63987">
        <ele>601.44</ele>
        <time>2013-11-30T14:29:29Z</time>
      </trkpt>
      <trkpt lat="45.77793" lon="4.63985">
        <ele>601.44</ele>
        <time>2013-11-30T14:29:30Z</time>
      </trkpt>
      <trkpt lat="45.77792" lon="4.63984">
        <ele>601.92</ele>
        <time>2013-11-30T14:29:38Z</time>
      </trkpt>
      <trkpt lat="45.77792" lon="4.63984">
        <ele>602.4</ele>
        <time>2013-11-30T14:29:53Z</time>
      </trkpt>
      <trkpt lat="45.77791" lon="4.63984">
        <ele>600.96</ele>
        <time>2013-11-30T14:30:10Z</time>
      </trkpt>
      <trkpt lat="45.7779" lon="4.63982">
        <ele>600.96</ele>
        <time>2013-11-30T14:30:11Z</time>
      </trkpt>
      <trkpt lat="45.77788" lon="4.63981">
        <ele>600.96</ele>
        <time>2013-11-30T14:30:12Z</time>
      </trkpt>
      <trkpt lat="45.77765" lon="4.63957">
        <ele>600.48</ele>
        <time>2013-11-30T14:30:24Z</time>
      </trkpt>
      <trkpt lat="45.77742" lon="4.63936">
        <ele>602.88</ele>
        <time>2013-11-30T14:30:35Z</time>
      </trkpt>
      <trkpt lat="45.77736" lon="4.63931">
        <ele>604.33</ele>
        <time>2013-11-30T14:30:38Z</time>
      </trkpt>
      <trkpt lat="45.77709" lon="4.63929">
        <ele>605.29</ele>
        <time>2013-11-30T14:30:50Z</time>
      </trkpt>
      <trkpt lat="45.77688" lon="4.63916">
        <ele>606.25</ele>
        <time>2013-11-30T14:31:00Z</time>
      </trkpt>
      <trkpt lat="45.77675" lon="4.63907">
        <ele>604.81</ele>
        <time>2013-11-30T14:31:06Z</time>
      </trkpt>
      <trkpt lat="45.77638" lon="4.63886">
        <ele>602.4</ele>
        <time>2013-11-30T14:31:15Z</time>
      </trkpt>
      <trkpt lat="45.77617" lon="4.6387">
        <ele>601.44</ele>
        <time>2013-11-30T14:31:21Z</time>
      </trkpt>
      <trkpt lat="45.77614" lon="4.63867">
        <ele>600.96</ele>
        <time>2013-11-30T14:31:22Z</time>
      </trkpt>
      <trkpt lat="45.77611" lon="4.63865">
        <ele>600.48</ele>
        <time>2013-11-30T14:31:23Z</time>
      </trkpt>
      <trkpt lat="45.77607" lon="4.63863">
        <ele>600.96</ele>
        <time>2013-11-30T14:31:24Z</time>
      </trkpt>
      <trkpt lat="45.77604" lon="4.63861">
        <ele>600.96</ele>
        <time>2013-11-30T14:31:25Z</time>
      </trkpt>
      <trkpt lat="45.77602" lon="4.63858">
        <ele>600.96</ele>
        <time>2013-11-30T14:31:26Z</time>
      </trkpt>
      <trkpt lat="45.77599" lon="4.63856">
        <ele>601.44</ele>
        <time>2013-11-30T14:31:27Z</time>
      </trkpt>
      <trkpt lat="45.7759" lon="4.63848">
        <ele>602.88</ele>
        <time>2013-11-30T14:31:32Z</time>
      </trkpt>
      <trkpt lat="45.77587" lon="4.63847">
        <ele>602.88</ele>
        <time>2013-11-30T14:31:33Z</time>
      </trkpt>
      <trkpt lat="45.77585" lon="4.63846">
        <ele>602.88</ele>
        <time>2013-11-30T14:31:34Z</time>
      </trkpt>
      <trkpt lat="45.77583" lon="4.63845">
        <ele>602.88</ele>
        <time>2013-11-30T14:31:35Z</time>
      </trkpt>
      <trkpt lat="45.77581" lon="4.63844">
        <ele>602.88</ele>
        <time>2013-11-30T14:31:36Z</time>
      </trkpt>
      <trkpt lat="45.77579" lon="4.63844">
        <ele>603.36</ele>
        <time>2013-11-30T14:31:37Z</time>
      </trkpt>
      <trkpt lat="45.77577" lon="4.63843">
        <ele>603.36</ele>
        <time>2013-11-30T14:31:38Z</time>
      </trkpt>
      <trkpt lat="45.77575" lon="4.63842">
        <ele>602.4</ele>
        <time>2013-11-30T14:31:39Z</time>
      </trkpt>
      <trkpt lat="45.77574" lon="4.63841">
        <ele>603.36</ele>
        <time>2013-11-30T14:31:41Z</time>
      </trkpt>
      <trkpt lat="45.77573" lon="4.63839">
        <ele>603.36</ele>
        <time>2013-11-30T14:31:42Z</time>
      </trkpt>
      <trkpt lat="45.77568" lon="4.63831">
        <ele>604.81</ele>
        <time>2013-11-30T14:31:47Z</time>
      </trkpt>
      <trkpt lat="45.7756" lon="4.63819">
        <ele>605.77</ele>
        <time>2013-11-30T14:31:57Z</time>
      </trkpt>
      <trkpt lat="45.77553" lon="4.6381">
        <ele>606.73</ele>
        <time>2013-11-30T14:32:04Z</time>
      </trkpt>
      <trkpt lat="45.77546" lon="4.63804">
        <ele>608.65</ele>
        <time>2013-11-30T14:32:15Z</time>
      </trkpt>
      <trkpt lat="45.7754" lon="4.63799">
        <ele>609.61</ele>
        <time>2013-11-30T14:32:24Z</time>
      </trkpt>
      <trkpt lat="45.77537" lon="4.63793">
        <ele>610.57</ele>
        <time>2013-11-30T14:32:33Z</time>
      </trkpt>
      <trkpt lat="45.77533" lon="4.63789">
        <ele>612.02</ele>
        <time>2013-11-30T14:32:37Z</time>
      </trkpt>
      <trkpt lat="45.77526" lon="4.63786">
        <ele>614.42</ele>
        <time>2013-11-30T14:32:48Z</time>
      </trkpt>
      <trkpt lat="45.7752" lon="4.63782">
        <ele>614.42</ele>
        <time>2013-11-30T14:32:58Z</time>
      </trkpt>
      <trkpt lat="45.77514" lon="4.63777">
        <ele>615.86</ele>
        <time>2013-11-30T14:33:09Z</time>
      </trkpt>
      <trkpt lat="45.77511" lon="4.63771">
        <ele>614.9</ele>
        <time>2013-11-30T14:33:19Z</time>
      </trkpt>
      <trkpt lat="45.77509" lon="4.63769">
        <ele>616.34</ele>
        <time>2013-11-30T14:33:23Z</time>
      </trkpt>
      <trkpt lat="45.77507" lon="4.63767">
        <ele>618.26</ele>
        <time>2013-11-30T14:33:30Z</time>
      </trkpt>
      <trkpt lat="45.77498" lon="4.63757">
        <ele>620.19</ele>
        <time>2013-11-30T14:33:42Z</time>
      </trkpt>
      <trkpt lat="45.77492" lon="4.63753">
        <ele>621.63</ele>
        <time>2013-11-30T14:33:49Z</time>
      </trkpt>
      <trkpt lat="45.77488" lon="4.63749">
        <ele>622.11</ele>
        <time>2013-11-30T14:33:58Z</time>
      </trkpt>
      <trkpt lat="45.77479" lon="4.63743">
        <ele>624.51</ele>
        <time>2013-11-30T14:34:11Z</time>
      </trkpt>
      <trkpt lat="45.7747" lon="4.63739">
        <ele>624.99</ele>
        <time>2013-11-30T14:34:22Z</time>
      </trkpt>
      <trkpt lat="45.77467" lon="4.6374">
        <ele>626.92</ele>
        <time>2013-11-30T14:34:26Z</time>
      </trkpt>
      <trkpt lat="45.7746" lon="4.63745">
        <ele>626.92</ele>
        <time>2013-11-30T14:34:37Z</time>
      </trkpt>
      <trkpt lat="45.77454" lon="4.63747">
        <ele>629.32</ele>
        <time>2013-11-30T14:34:47Z</time>
      </trkpt>
      <trkpt lat="45.77451" lon="4.6375">
        <ele>629.32</ele>
        <time>2013-11-30T14:34:58Z</time>
      </trkpt>
      <trkpt lat="45.77449" lon="4.63751">
        <ele>626.44</ele>
        <time>2013-11-30T14:35:00Z</time>
      </trkpt>
      <trkpt lat="45.77449" lon="4.63752">
        <ele>629.32</ele>
        <time>2013-11-30T14:35:01Z</time>
      </trkpt>
      <trkpt lat="45.77448" lon="4.63754">
        <ele>632.2</ele>
        <time>2013-11-30T14:35:05Z</time>
      </trkpt>
      <trkpt lat="45.77448" lon="4.63754">
        <ele>628.84</ele>
        <time>2013-11-30T14:35:06Z</time>
      </trkpt>
      <trkpt lat="45.77448" lon="4.63754">
        <ele>632.2</ele>
        <time>2013-11-30T14:35:07Z</time>
      </trkpt>
      <trkpt lat="45.77443" lon="4.63759">
        <ele>632.2</ele>
        <time>2013-11-30T14:35:16Z</time>
      </trkpt>
      <trkpt lat="45.7744" lon="4.63763">
        <ele>633.17</ele>
        <time>2013-11-30T14:35:25Z</time>
      </trkpt>
      <trkpt lat="45.77434" lon="4.6377">
        <ele>634.13</ele>
        <time>2013-11-30T14:35:33Z</time>
      </trkpt>
      <trkpt lat="45.77431" lon="4.63775">
        <ele>636.05</ele>
        <time>2013-11-30T14:35:42Z</time>
      </trkpt>
      <trkpt lat="45.77425" lon="4.63778">
        <ele>637.49</ele>
        <time>2013-11-30T14:35:52Z</time>
      </trkpt>
      <trkpt lat="45.7742" lon="4.63781">
        <ele>638.93</ele>
        <time>2013-11-30T14:35:59Z</time>
      </trkpt>
      <trkpt lat="45.77412" lon="4.63783">
        <ele>638.45</ele>
        <time>2013-11-30T14:36:08Z</time>
      </trkpt>
      <trkpt lat="45.77407" lon="4.63786">
        <ele>639.41</ele>
        <time>2013-11-30T14:36:17Z</time>
      </trkpt>
      <trkpt lat="45.77401" lon="4.63792">
        <ele>641.82</ele>
        <time>2013-11-30T14:36:25Z</time>
      </trkpt>
      <trkpt lat="45.77399" lon="4.63794">
        <ele>643.74</ele>
        <time>2013-11-30T14:36:34Z</time>
      </trkpt>
      <trkpt lat="45.7739" lon="4.638">
        <ele>643.74</ele>
        <time>2013-11-30T14:36:44Z</time>
      </trkpt>
      <trkpt lat="45.77382" lon="4.63805">
        <ele>644.22</ele>
        <time>2013-11-30T14:36:52Z</time>
      </trkpt>
      <trkpt lat="45.77381" lon="4.63806">
        <ele>644.7</ele>
        <time>2013-11-30T14:36:53Z</time>
      </trkpt>
      <trkpt lat="45.77371" lon="4.63815">
        <ele>647.1</ele>
        <time>2013-11-30T14:37:03Z</time>
      </trkpt>
      <trkpt lat="45.77363" lon="4.63823">
        <ele>647.59</ele>
        <time>2013-11-30T14:37:14Z</time>
      </trkpt>
      <trkpt lat="45.77354" lon="4.63826">
        <ele>648.07</ele>
        <time>2013-11-30T14:37:23Z</time>
      </trkpt>
      <trkpt lat="45.77349" lon="4.63832">
        <ele>648.55</ele>
        <time>2013-11-30T14:37:31Z</time>
      </trkpt>
      <trkpt lat="45.77341" lon="4.63836">
        <ele>650.95</ele>
        <time>2013-11-30T14:37:40Z</time>
      </trkpt>
      <trkpt lat="45.77333" lon="4.63837">
        <ele>650.95</ele>
        <time>2013-11-30T14:37:50Z</time>
      </trkpt>
      <trkpt lat="45.77324" lon="4.63837">
        <ele>651.91</ele>
        <time>2013-11-30T14:38:00Z</time>
      </trkpt>
      <trkpt lat="45.77317" lon="4.63835">
        <ele>654.31</ele>
        <time>2013-11-30T14:38:10Z</time>
      </trkpt>
      <trkpt lat="45.77313" lon="4.63832">
        <ele>653.83</ele>
        <time>2013-11-30T14:38:16Z</time>
      </trkpt>
      <trkpt lat="45.77301" lon="4.63825">
        <ele>656.24</ele>
        <time>2013-11-30T14:38:28Z</time>
      </trkpt>
      <trkpt lat="45.77293" lon="4.6382">
        <ele>657.68</ele>
        <time>2013-11-30T14:38:38Z</time>
      </trkpt>
      <trkpt lat="45.77285" lon="4.63816">
        <ele>657.68</ele>
        <time>2013-11-30T14:38:48Z</time>
      </trkpt>
      <trkpt lat="45.77276" lon="4.63811">
        <ele>659.6</ele>
        <time>2013-11-30T14:38:58Z</time>
      </trkpt>
      <trkpt lat="45.77271" lon="4.63809">
        <ele>658.64</ele>
        <time>2013-11-30T14:39:03Z</time>
      </trkpt>
      <trkpt lat="45.7726" lon="4.63804">
        <ele>660.56</ele>
        <time>2013-11-30T14:39:15Z</time>
      </trkpt>
      <trkpt lat="45.77254" lon="4.63799">
        <ele>661.04</ele>
        <time>2013-11-30T14:39:26Z</time>
      </trkpt>
      <trkpt lat="45.77249" lon="4.63794">
        <ele>661.52</ele>
        <time>2013-11-30T14:39:35Z</time>
      </trkpt>
      <trkpt lat="45.77247" lon="4.63787">
        <ele>662.01</ele>
        <time>2013-11-30T14:39:45Z</time>
      </trkpt>
      <trkpt lat="45.77246" lon="4.63786">
        <ele>662.49</ele>
        <time>2013-11-30T14:39:57Z</time>
      </trkpt>
      <trkpt lat="45.77246" lon="4.63786">
        <ele>663.45</ele>
        <time>2013-11-30T14:40:15Z</time>
      </trkpt>
      <trkpt lat="45.77246" lon="4.63785">
        <ele>662.49</ele>
        <time>2013-11-30T14:40:35Z</time>
      </trkpt>
      <trkpt lat="45.77246" lon="4.63785">
        <ele>657.2</ele>
        <time>2013-11-30T14:40:45Z</time>
      </trkpt>
      <trkpt lat="45.77246" lon="4.63785">
        <ele>662.49</ele>
        <time>2013-11-30T14:40:46Z</time>
      </trkpt>
      <trkpt lat="45.77246" lon="4.63785">
        <ele>660.56</ele>
        <time>2013-11-30T14:41:04Z</time>
      </trkpt>
      <trkpt lat="45.77242" lon="4.63773">
        <ele>664.41</ele>
        <time>2013-11-30T14:41:15Z</time>
      </trkpt>
      <trkpt lat="45.77242" lon="4.63771">
        <ele>664.41</ele>
        <time>2013-11-30T14:41:16Z</time>
      </trkpt>
      <trkpt lat="45.77238" lon="4.63761">
        <ele>664.89</ele>
        <time>2013-11-30T14:41:26Z</time>
      </trkpt>
      <trkpt lat="45.77235" lon="4.6375">
        <ele>665.85</ele>
        <time>2013-11-30T14:41:36Z</time>
      </trkpt>
      <trkpt lat="45.77233" lon="4.63743">
        <ele>666.33</ele>
        <time>2013-11-30T14:41:46Z</time>
      </trkpt>
      <trkpt lat="45.77233" lon="4.63739">
        <ele>668.25</ele>
        <time>2013-11-30T14:41:48Z</time>
      </trkpt>
      <trkpt lat="45.77226" lon="4.63733">
        <ele>669.7</ele>
        <time>2013-11-30T14:41:58Z</time>
      </trkpt>
      <trkpt lat="45.77219" lon="4.63727">
        <ele>670.18</ele>
        <time>2013-11-30T14:42:07Z</time>
      </trkpt>
      <trkpt lat="45.7721" lon="4.63723">
        <ele>672.58</ele>
        <time>2013-11-30T14:42:18Z</time>
      </trkpt>
      <trkpt lat="45.77204" lon="4.63721">
        <ele>673.06</ele>
        <time>2013-11-30T14:42:27Z</time>
      </trkpt>
      <trkpt lat="45.77198" lon="4.63718">
        <ele>674.98</ele>
        <time>2013-11-30T14:42:38Z</time>
      </trkpt>
      <trkpt lat="45.77191" lon="4.63716">
        <ele>676.42</ele>
        <time>2013-11-30T14:42:48Z</time>
      </trkpt>
      <trkpt lat="45.77187" lon="4.63714">
        <ele>677.87</ele>
        <time>2013-11-30T14:42:57Z</time>
      </trkpt>
      <trkpt lat="45.77182" lon="4.63712">
        <ele>678.83</ele>
        <time>2013-11-30T14:43:07Z</time>
      </trkpt>
      <trkpt lat="45.77174" lon="4.63709">
        <ele>679.31</ele>
        <time>2013-11-30T14:43:18Z</time>
      </trkpt>
      <trkpt lat="45.77166" lon="4.63707">
        <ele>679.79</ele>
        <time>2013-11-30T14:43:30Z</time>
      </trkpt>
      <trkpt lat="45.77163" lon="4.63706">
        <ele>679.79</ele>
        <time>2013-11-30T14:43:44Z</time>
      </trkpt>
      <trkpt lat="45.77156" lon="4.63704">
        <ele>681.23</ele>
        <time>2013-11-30T14:43:54Z</time>
      </trkpt>
      <trkpt lat="45.77151" lon="4.63702">
        <ele>684.12</ele>
        <time>2013-11-30T14:44:05Z</time>
      </trkpt>
      <trkpt lat="45.77146" lon="4.63702">
        <ele>685.08</ele>
        <time>2013-11-30T14:44:13Z</time>
      </trkpt>
      <trkpt lat="45.77136" lon="4.63702">
        <ele>686.04</ele>
        <time>2013-11-30T14:44:23Z</time>
      </trkpt>
      <trkpt lat="45.77127" lon="4.637">
        <ele>686.52</ele>
        <time>2013-11-30T14:44:34Z</time>
      </trkpt>
      <trkpt lat="45.77117" lon="4.63704">
        <ele>688.44</ele>
        <time>2013-11-30T14:44:44Z</time>
      </trkpt>
      <trkpt lat="45.77108" lon="4.63703">
        <ele>689.4</ele>
        <time>2013-11-30T14:44:53Z</time>
      </trkpt>
      <trkpt lat="45.771" lon="4.63695">
        <ele>689.88</ele>
        <time>2013-11-30T14:45:02Z</time>
      </trkpt>
      <trkpt lat="45.77091" lon="4.63692">
        <ele>691.81</ele>
        <time>2013-11-30T14:45:13Z</time>
      </trkpt>
      <trkpt lat="45.77086" lon="4.63687">
        <ele>692.77</ele>
        <time>2013-11-30T14:45:22Z</time>
      </trkpt>
      <trkpt lat="45.77081" lon="4.63685">
        <ele>693.25</ele>
        <time>2013-11-30T14:45:32Z</time>
      </trkpt>
      <trkpt lat="45.77074" lon="4.63682">
        <ele>693.25</ele>
        <time>2013-11-30T14:45:42Z</time>
      </trkpt>
      <trkpt lat="45.77067" lon="4.63683">
        <ele>696.13</ele>
        <time>2013-11-30T14:45:50Z</time>
      </trkpt>
      <trkpt lat="45.77066" lon="4.63684">
        <ele>695.65</ele>
        <time>2013-11-30T14:45:51Z</time>
      </trkpt>
      <trkpt lat="45.77057" lon="4.63685">
        <ele>695.65</ele>
        <time>2013-11-30T14:46:02Z</time>
      </trkpt>
      <trkpt lat="45.77052" lon="4.63687">
        <ele>697.09</ele>
        <time>2013-11-30T14:46:11Z</time>
      </trkpt>
      <trkpt lat="45.77045" lon="4.63687">
        <ele>698.53</ele>
        <time>2013-11-30T14:46:20Z</time>
      </trkpt>
      <trkpt lat="45.77038" lon="4.63687">
        <ele>699.02</ele>
        <time>2013-11-30T14:46:29Z</time>
      </trkpt>
      <trkpt lat="45.7703" lon="4.63688">
        <ele>700.46</ele>
        <time>2013-11-30T14:46:39Z</time>
      </trkpt>
      <trkpt lat="45.77016" lon="4.63686">
        <ele>702.38</ele>
        <time>2013-11-30T14:46:52Z</time>
      </trkpt>
      <trkpt lat="45.77009" lon="4.63686">
        <ele>703.82</ele>
        <time>2013-11-30T14:47:01Z</time>
      </trkpt>
      <trkpt lat="45.77004" lon="4.63684">
        <ele>705.26</ele>
        <time>2013-11-30T14:47:08Z</time>
      </trkpt>
      <trkpt lat="45.76996" lon="4.6368">
        <ele>705.75</ele>
        <time>2013-11-30T14:47:17Z</time>
      </trkpt>
      <trkpt lat="45.76987" lon="4.63672">
        <ele>707.67</ele>
        <time>2013-11-30T14:47:28Z</time>
      </trkpt>
      <trkpt lat="45.76986" lon="4.63671">
        <ele>707.19</ele>
        <time>2013-11-30T14:47:29Z</time>
      </trkpt>
      <trkpt lat="45.76976" lon="4.63666">
        <ele>708.15</ele>
        <time>2013-11-30T14:47:40Z</time>
      </trkpt>
      <trkpt lat="45.7697" lon="4.63665">
        <ele>706.23</ele>
        <time>2013-11-30T14:47:50Z</time>
      </trkpt>
      <trkpt lat="45.76964" lon="4.63659">
        <ele>709.59</ele>
        <time>2013-11-30T14:47:58Z</time>
      </trkpt>
      <trkpt lat="45.76959" lon="4.63656">
        <ele>709.11</ele>
        <time>2013-11-30T14:48:09Z</time>
      </trkpt>
      <trkpt lat="45.76953" lon="4.6365">
        <ele>711.03</ele>
        <time>2013-11-30T14:48:24Z</time>
      </trkpt>
      <trkpt lat="45.76952" lon="4.63649">
        <ele>711.03</ele>
        <time>2013-11-30T14:48:25Z</time>
      </trkpt>
      <trkpt lat="45.76948" lon="4.63644">
        <ele>711.51</ele>
        <time>2013-11-30T14:48:29Z</time>
      </trkpt>
      <trkpt lat="45.76944" lon="4.63636">
        <ele>709.59</ele>
        <time>2013-11-30T14:48:34Z</time>
      </trkpt>
      <trkpt lat="45.76939" lon="4.63628">
        <ele>712.47</ele>
        <time>2013-11-30T14:48:43Z</time>
      </trkpt>
      <trkpt lat="45.76936" lon="4.63619">
        <ele>712.47</ele>
        <time>2013-11-30T14:48:51Z</time>
      </trkpt>
      <trkpt lat="45.76931" lon="4.6361">
        <ele>711.51</ele>
        <time>2013-11-30T14:49:00Z</time>
      </trkpt>
      <trkpt lat="45.76925" lon="4.63598">
        <ele>711.99</ele>
        <time>2013-11-30T14:49:08Z</time>
      </trkpt>
      <trkpt lat="45.76918" lon="4.63586">
        <ele>712.47</ele>
        <time>2013-11-30T14:49:20Z</time>
      </trkpt>
      <trkpt lat="45.76911" lon="4.6358">
        <ele>710.07</ele>
        <time>2013-11-30T14:49:29Z</time>
      </trkpt>
      <trkpt lat="45.76908" lon="4.63571">
        <ele>711.99</ele>
        <time>2013-11-30T14:49:37Z</time>
      </trkpt>
      <trkpt lat="45.76903" lon="4.6356">
        <ele>712.47</ele>
        <time>2013-11-30T14:49:46Z</time>
      </trkpt>
      <trkpt lat="45.76902" lon="4.63559">
        <ele>711.99</ele>
        <time>2013-11-30T14:49:47Z</time>
      </trkpt>
      <trkpt lat="45.76896" lon="4.63544">
        <ele>712.47</ele>
        <time>2013-11-30T14:49:55Z</time>
      </trkpt>
      <trkpt lat="45.76889" lon="4.63534">
        <ele>712.47</ele>
        <time>2013-11-30T14:50:06Z</time>
      </trkpt>
      <trkpt lat="45.76885" lon="4.63526">
        <ele>712.95</ele>
        <time>2013-11-30T14:50:10Z</time>
      </trkpt>
      <trkpt lat="45.76882" lon="4.63519">
        <ele>713.44</ele>
        <time>2013-11-30T14:50:13Z</time>
      </trkpt>
      <trkpt lat="45.76878" lon="4.63509">
        <ele>712.47</ele>
        <time>2013-11-30T14:50:24Z</time>
      </trkpt>
      <trkpt lat="45.76874" lon="4.63499">
        <ele>712.95</ele>
        <time>2013-11-30T14:50:31Z</time>
      </trkpt>
      <trkpt lat="45.76868" lon="4.63481">
        <ele>715.36</ele>
        <time>2013-11-30T14:50:41Z</time>
      </trkpt>
      <trkpt lat="45.76865" lon="4.63467">
        <ele>715.36</ele>
        <time>2013-11-30T14:50:52Z</time>
      </trkpt>
      <trkpt lat="45.76863" lon="4.63462">
        <ele>714.88</ele>
        <time>2013-11-30T14:51:01Z</time>
      </trkpt>
      <trkpt lat="45.76859" lon="4.63453">
        <ele>716.8</ele>
        <time>2013-11-30T14:51:08Z</time>
      </trkpt>
      <trkpt lat="45.76857" lon="4.63446">
        <ele>717.28</ele>
        <time>2013-11-30T14:51:11Z</time>
      </trkpt>
      <trkpt lat="45.76853" lon="4.63435">
        <ele>718.24</ele>
        <time>2013-11-30T14:51:17Z</time>
      </trkpt>
      <trkpt lat="45.76843" lon="4.63411">
        <ele>717.76</ele>
        <time>2013-11-30T14:51:27Z</time>
      </trkpt>
      <trkpt lat="45.76841" lon="4.63401">
        <ele>718.24</ele>
        <time>2013-11-30T14:51:31Z</time>
      </trkpt>
      <trkpt lat="45.76837" lon="4.63382">
        <ele>719.68</ele>
        <time>2013-11-30T14:51:40Z</time>
      </trkpt>
      <trkpt lat="45.76828" lon="4.63362">
        <ele>720.65</ele>
        <time>2013-11-30T14:51:48Z</time>
      </trkpt>
      <trkpt lat="45.76827" lon="4.63357">
        <ele>720.65</ele>
        <time>2013-11-30T14:51:50Z</time>
      </trkpt>
      <trkpt lat="45.76823" lon="4.63344">
        <ele>721.61</ele>
        <time>2013-11-30T14:51:55Z</time>
      </trkpt>
      <trkpt lat="45.76816" lon="4.63331">
        <ele>721.61</ele>
        <time>2013-11-30T14:52:01Z</time>
      </trkpt>
      <trkpt lat="45.76813" lon="4.63326">
        <ele>722.09</ele>
        <time>2013-11-30T14:52:03Z</time>
      </trkpt>
      <trkpt lat="45.768" lon="4.63304">
        <ele>721.61</ele>
        <time>2013-11-30T14:52:12Z</time>
      </trkpt>
      <trkpt lat="45.7679" lon="4.63293">
        <ele>721.61</ele>
        <time>2013-11-30T14:52:17Z</time>
      </trkpt>
      <trkpt lat="45.76774" lon="4.63271">
        <ele>723.05</ele>
        <time>2013-11-30T14:52:27Z</time>
      </trkpt>
      <trkpt lat="45.76767" lon="4.63258">
        <ele>724.49</ele>
        <time>2013-11-30T14:52:34Z</time>
      </trkpt>
      <trkpt lat="45.76765" lon="4.63252">
        <ele>723.53</ele>
        <time>2013-11-30T14:52:42Z</time>
      </trkpt>
      <trkpt lat="45.76761" lon="4.63242">
        <ele>724.97</ele>
        <time>2013-11-30T14:52:53Z</time>
      </trkpt>
      <trkpt lat="45.76755" lon="4.63234">
        <ele>726.41</ele>
        <time>2013-11-30T14:53:02Z</time>
      </trkpt>
      <trkpt lat="45.76749" lon="4.63223">
        <ele>725.93</ele>
        <time>2013-11-30T14:53:12Z</time>
      </trkpt>
      <trkpt lat="45.76747" lon="4.63219">
        <ele>726.89</ele>
        <time>2013-11-30T14:53:22Z</time>
      </trkpt>
      <trkpt lat="45.76745" lon="4.63215">
        <ele>726.41</ele>
        <time>2013-11-30T14:53:24Z</time>
      </trkpt>
      <trkpt lat="45.76738" lon="4.63205">
        <ele>726.89</ele>
        <time>2013-11-30T14:53:29Z</time>
      </trkpt>
      <trkpt lat="45.7673" lon="4.63191">
        <ele>726.41</ele>
        <time>2013-11-30T14:53:35Z</time>
      </trkpt>
      <trkpt lat="45.7672" lon="4.63172">
        <ele>724.97</ele>
        <time>2013-11-30T14:53:42Z</time>
      </trkpt>
      <trkpt lat="45.76709" lon="4.63151">
        <ele>724.97</ele>
        <time>2013-11-30T14:53:51Z</time>
      </trkpt>
      <trkpt lat="45.76698" lon="4.63136">
        <ele>724.01</ele>
        <time>2013-11-30T14:53:58Z</time>
      </trkpt>
      <trkpt lat="45.76689" lon="4.63127">
        <ele>723.05</ele>
        <time>2013-11-30T14:54:03Z</time>
      </trkpt>
      <trkpt lat="45.76684" lon="4.63117">
        <ele>723.05</ele>
        <time>2013-11-30T14:54:07Z</time>
      </trkpt>
      <trkpt lat="45.76667" lon="4.63105">
        <ele>722.57</ele>
        <time>2013-11-30T14:54:14Z</time>
      </trkpt>
      <trkpt lat="45.76651" lon="4.63089">
        <ele>723.05</ele>
        <time>2013-11-30T14:54:23Z</time>
      </trkpt>
      <trkpt lat="45.76632" lon="4.63078">
        <ele>723.53</ele>
        <time>2013-11-30T14:54:33Z</time>
      </trkpt>
      <trkpt lat="45.76618" lon="4.63073">
        <ele>724.49</ele>
        <time>2013-11-30T14:54:41Z</time>
      </trkpt>
      <trkpt lat="45.766" lon="4.63068">
        <ele>725.93</ele>
        <time>2013-11-30T14:54:51Z</time>
      </trkpt>
      <trkpt lat="45.76584" lon="4.63061">
        <ele>726.41</ele>
        <time>2013-11-30T14:54:59Z</time>
      </trkpt>
      <trkpt lat="45.76582" lon="4.6306">
        <ele>725.93</ele>
        <time>2013-11-30T14:55:07Z</time>
      </trkpt>
      <trkpt lat="45.76574" lon="4.63061">
        <ele>726.41</ele>
        <time>2013-11-30T14:55:14Z</time>
      </trkpt>
      <trkpt lat="45.76565" lon="4.63065">
        <ele>725.45</ele>
        <time>2013-11-30T14:55:20Z</time>
      </trkpt>
      <trkpt lat="45.76558" lon="4.63067">
        <ele>724.97</ele>
        <time>2013-11-30T14:55:23Z</time>
      </trkpt>
      <trkpt lat="45.76549" lon="4.6307">
        <ele>724.49</ele>
        <time>2013-11-30T14:55:27Z</time>
      </trkpt>
      <trkpt lat="45.76534" lon="4.63072">
        <ele>723.53</ele>
        <time>2013-11-30T14:55:35Z</time>
      </trkpt>
      <trkpt lat="45.7652" lon="4.63073">
        <ele>723.53</ele>
        <time>2013-11-30T14:55:41Z</time>
      </trkpt>
      <trkpt lat="45.76495" lon="4.63069">
        <ele>724.49</ele>
        <time>2013-11-30T14:55:51Z</time>
      </trkpt>
      <trkpt lat="45.76474" lon="4.63067">
        <ele>725.45</ele>
        <time>2013-11-30T14:56:00Z</time>
      </trkpt>
      <trkpt lat="45.76466" lon="4.63068">
        <ele>726.41</ele>
        <time>2013-11-30T14:56:08Z</time>
      </trkpt>
      <trkpt lat="45.76459" lon="4.63066">
        <ele>726.41</ele>
        <time>2013-11-30T14:56:17Z</time>
      </trkpt>
      <trkpt lat="45.76451" lon="4.63063">
        <ele>727.37</ele>
        <time>2013-11-30T14:56:26Z</time>
      </trkpt>
      <trkpt lat="45.76449" lon="4.63062">
        <ele>727.86</ele>
        <time>2013-11-30T14:56:29Z</time>
      </trkpt>
      <trkpt lat="45.76441" lon="4.63051">
        <ele>726.89</ele>
        <time>2013-11-30T14:56:39Z</time>
      </trkpt>
      <trkpt lat="45.76437" lon="4.63049">
        <ele>727.86</ele>
        <time>2013-11-30T14:56:42Z</time>
      </trkpt>
      <trkpt lat="45.76423" lon="4.63041">
        <ele>727.86</ele>
        <time>2013-11-30T14:56:55Z</time>
      </trkpt>
      <trkpt lat="45.76418" lon="4.63035">
        <ele>727.37</ele>
        <time>2013-11-30T14:57:01Z</time>
      </trkpt>
      <trkpt lat="45.76407" lon="4.6303">
        <ele>726.89</ele>
        <time>2013-11-30T14:57:12Z</time>
      </trkpt>
      <trkpt lat="45.76407" lon="4.63029">
        <ele>726.89</ele>
        <time>2013-11-30T14:57:17Z</time>
      </trkpt>
      <trkpt lat="45.76391" lon="4.63012">
        <ele>725.45</ele>
        <time>2013-11-30T14:57:25Z</time>
      </trkpt>
      <trkpt lat="45.76384" lon="4.63007">
        <ele>724.49</ele>
        <time>2013-11-30T14:57:28Z</time>
      </trkpt>
      <trkpt lat="45.76377" lon="4.62998">
        <ele>723.53</ele>
        <time>2013-11-30T14:57:31Z</time>
      </trkpt>
      <trkpt lat="45.76352" lon="4.62978">
        <ele>722.09</ele>
        <time>2013-11-30T14:57:41Z</time>
      </trkpt>
      <trkpt lat="45.76331" lon="4.62961">
        <ele>720.65</ele>
        <time>2013-11-30T14:57:50Z</time>
      </trkpt>
      <trkpt lat="45.76323" lon="4.62955">
        <ele>719.2</ele>
        <time>2013-11-30T14:57:54Z</time>
      </trkpt>
      <trkpt lat="45.7631" lon="4.62943">
        <ele>718.72</ele>
        <time>2013-11-30T14:57:59Z</time>
      </trkpt>
      <trkpt lat="45.76299" lon="4.62937">
        <ele>717.76</ele>
        <time>2013-11-30T14:58:02Z</time>
      </trkpt>
      <trkpt lat="45.76292" lon="4.62913">
        <ele>714.88</ele>
        <time>2013-11-30T14:58:09Z</time>
      </trkpt>
      <trkpt lat="45.76288" lon="4.62904">
        <ele>715.36</ele>
        <time>2013-11-30T14:58:18Z</time>
      </trkpt>
      <trkpt lat="45.76288" lon="4.62904">
        <ele>715.84</ele>
        <time>2013-11-30T14:58:37Z</time>
      </trkpt>
      <trkpt lat="45.76288" lon="4.62904">
        <ele>714.4</ele>
        <time>2013-11-30T14:58:59Z</time>
      </trkpt>
      <trkpt lat="45.76288" lon="4.62904">
        <ele>714.88</ele>
        <time>2013-11-30T14:59:21Z</time>
      </trkpt>
      <trkpt lat="45.76289" lon="4.62904">
        <ele>715.84</ele>
        <time>2013-11-30T14:59:40Z</time>
      </trkpt>
      <trkpt lat="45.76289" lon="4.62904">
        <ele>714.4</ele>
        <time>2013-11-30T15:00:01Z</time>
      </trkpt>
      <trkpt lat="45.76286" lon="4.629">
        <ele>715.84</ele>
        <time>2013-11-30T15:00:04Z</time>
      </trkpt>
      <trkpt lat="45.76282" lon="4.62898">
        <ele>714.88</ele>
        <time>2013-11-30T15:00:07Z</time>
      </trkpt>
      <trkpt lat="45.7628" lon="4.62901">
        <ele>714.4</ele>
        <time>2013-11-30T15:00:10Z</time>
      </trkpt>
      <trkpt lat="45.76277" lon="4.6291">
        <ele>714.4</ele>
        <time>2013-11-30T15:00:14Z</time>
      </trkpt>
      <trkpt lat="45.76269" lon="4.62939">
        <ele>714.4</ele>
        <time>2013-11-30T15:00:20Z</time>
      </trkpt>
      <trkpt lat="45.76266" lon="4.6295">
        <ele>713.44</ele>
        <time>2013-11-30T15:00:22Z</time>
      </trkpt>
      <trkpt lat="45.76251" lon="4.6301">
        <ele>711.51</ele>
        <time>2013-11-30T15:00:30Z</time>
      </trkpt>
      <trkpt lat="45.76247" lon="4.63027">
        <ele>710.55</ele>
        <time>2013-11-30T15:00:32Z</time>
      </trkpt>
      <trkpt lat="45.76242" lon="4.63057">
        <ele>709.11</ele>
        <time>2013-11-30T15:00:35Z</time>
      </trkpt>
      <trkpt lat="45.76233" lon="4.63107">
        <ele>706.71</ele>
        <time>2013-11-30T15:00:40Z</time>
      </trkpt>
      <trkpt lat="45.7623" lon="4.63216">
        <ele>703.34</ele>
        <time>2013-11-30T15:00:49Z</time>
      </trkpt>
      <trkpt lat="45.76234" lon="4.63262">
        <ele>701.42</ele>
        <time>2013-11-30T15:00:53Z</time>
      </trkpt>
      <trkpt lat="45.76235" lon="4.63277">
        <ele>700.46</ele>
        <time>2013-11-30T15:00:55Z</time>
      </trkpt>
      <trkpt lat="45.76234" lon="4.63284">
        <ele>699.98</ele>
        <time>2013-11-30T15:00:56Z</time>
      </trkpt>
      <trkpt lat="45.76233" lon="4.63289">
        <ele>699.98</ele>
        <time>2013-11-30T15:00:57Z</time>
      </trkpt>
      <trkpt lat="45.76231" lon="4.63294">
        <ele>699.5</ele>
        <time>2013-11-30T15:00:58Z</time>
      </trkpt>
      <trkpt lat="45.76229" lon="4.63298">
        <ele>699.5</ele>
        <time>2013-11-30T15:00:59Z</time>
      </trkpt>
      <trkpt lat="45.76228" lon="4.63301">
        <ele>698.53</ele>
        <time>2013-11-30T15:01:00Z</time>
      </trkpt>
      <trkpt lat="45.76226" lon="4.63304">
        <ele>699.02</ele>
        <time>2013-11-30T15:01:01Z</time>
      </trkpt>
      <trkpt lat="45.76224" lon="4.63309">
        <ele>698.05</ele>
        <time>2013-11-30T15:01:10Z</time>
      </trkpt>
      <trkpt lat="45.76223" lon="4.63311">
        <ele>698.05</ele>
        <time>2013-11-30T15:01:22Z</time>
      </trkpt>
      <trkpt lat="45.76224" lon="4.63312">
        <ele>697.57</ele>
        <time>2013-11-30T15:01:37Z</time>
      </trkpt>
      <trkpt lat="45.76224" lon="4.63315">
        <ele>697.57</ele>
        <time>2013-11-30T15:01:39Z</time>
      </trkpt>
      <trkpt lat="45.76224" lon="4.63317">
        <ele>698.05</ele>
        <time>2013-11-30T15:01:40Z</time>
      </trkpt>
      <trkpt lat="45.76224" lon="4.6332">
        <ele>698.05</ele>
        <time>2013-11-30T15:01:41Z</time>
      </trkpt>
      <trkpt lat="45.76224" lon="4.63323">
        <ele>697.57</ele>
        <time>2013-11-30T15:01:42Z</time>
      </trkpt>
      <trkpt lat="45.76224" lon="4.63326">
        <ele>696.61</ele>
        <time>2013-11-30T15:01:43Z</time>
      </trkpt>
      <trkpt lat="45.76224" lon="4.63329">
        <ele>696.13</ele>
        <time>2013-11-30T15:01:44Z</time>
      </trkpt>
      <trkpt lat="45.76224" lon="4.63333">
        <ele>695.17</ele>
        <time>2013-11-30T15:01:45Z</time>
      </trkpt>
      <trkpt lat="45.76223" lon="4.63336">
        <ele>695.17</ele>
        <time>2013-11-30T15:01:46Z</time>
      </trkpt>
      <trkpt lat="45.76223" lon="4.63338">
        <ele>694.21</ele>
        <time>2013-11-30T15:01:47Z</time>
      </trkpt>
      <trkpt lat="45.76224" lon="4.63361">
        <ele>691.33</ele>
        <time>2013-11-30T15:01:54Z</time>
      </trkpt>
      <trkpt lat="45.76224" lon="4.63387">
        <ele>688.44</ele>
        <time>2013-11-30T15:02:02Z</time>
      </trkpt>
      <trkpt lat="45.76223" lon="4.63396">
        <ele>687</ele>
        <time>2013-11-30T15:02:04Z</time>
      </trkpt>
      <trkpt lat="45.76221" lon="4.63412">
        <ele>684.6</ele>
        <time>2013-11-30T15:02:07Z</time>
      </trkpt>
      <trkpt lat="45.7622" lon="4.63424">
        <ele>683.15</ele>
        <time>2013-11-30T15:02:09Z</time>
      </trkpt>
      <trkpt lat="45.7622" lon="4.6343">
        <ele>683.15</ele>
        <time>2013-11-30T15:02:10Z</time>
      </trkpt>
      <trkpt lat="45.76221" lon="4.63448">
        <ele>682.19</ele>
        <time>2013-11-30T15:02:13Z</time>
      </trkpt>
      <trkpt lat="45.76221" lon="4.63475">
        <ele>679.31</ele>
        <time>2013-11-30T15:02:17Z</time>
      </trkpt>
      <trkpt lat="45.76221" lon="4.63481">
        <ele>679.31</ele>
        <time>2013-11-30T15:02:18Z</time>
      </trkpt>
      <trkpt lat="45.76233" lon="4.63536">
        <ele>676.91</ele>
        <time>2013-11-30T15:02:26Z</time>
      </trkpt>
      <trkpt lat="45.76233" lon="4.63543">
        <ele>675.94</ele>
        <time>2013-11-30T15:02:27Z</time>
      </trkpt>
      <trkpt lat="45.76234" lon="4.63548">
        <ele>676.42</ele>
        <time>2013-11-30T15:02:28Z</time>
      </trkpt>
      <trkpt lat="45.76236" lon="4.63553">
        <ele>675.46</ele>
        <time>2013-11-30T15:02:29Z</time>
      </trkpt>
      <trkpt lat="45.76236" lon="4.63557">
        <ele>674.98</ele>
        <time>2013-11-30T15:02:30Z</time>
      </trkpt>
      <trkpt lat="45.76237" lon="4.63561">
        <ele>674.98</ele>
        <time>2013-11-30T15:02:31Z</time>
      </trkpt>
      <trkpt lat="45.76238" lon="4.63566">
        <ele>674.5</ele>
        <time>2013-11-30T15:02:32Z</time>
      </trkpt>
      <trkpt lat="45.76239" lon="4.6357">
        <ele>673.54</ele>
        <time>2013-11-30T15:02:33Z</time>
      </trkpt>
      <trkpt lat="45.76239" lon="4.63575">
        <ele>673.06</ele>
        <time>2013-11-30T15:02:34Z</time>
      </trkpt>
      <trkpt lat="45.76238" lon="4.63582">
        <ele>671.62</ele>
        <time>2013-11-30T15:02:35Z</time>
      </trkpt>
      <trkpt lat="45.76237" lon="4.63602">
        <ele>669.22</ele>
        <time>2013-11-30T15:02:38Z</time>
      </trkpt>
      <trkpt lat="45.76238" lon="4.63624">
        <ele>665.37</ele>
        <time>2013-11-30T15:02:41Z</time>
      </trkpt>
      <trkpt lat="45.7624" lon="4.63648">
        <ele>662.01</ele>
        <time>2013-11-30T15:02:45Z</time>
      </trkpt>
      <trkpt lat="45.76242" lon="4.63665">
        <ele>659.6</ele>
        <time>2013-11-30T15:02:48Z</time>
      </trkpt>
      <trkpt lat="45.76243" lon="4.63672">
        <ele>659.6</ele>
        <time>2013-11-30T15:02:49Z</time>
      </trkpt>
      <trkpt lat="45.76245" lon="4.63693">
        <ele>656.24</ele>
        <time>2013-11-30T15:02:52Z</time>
      </trkpt>
      <trkpt lat="45.76252" lon="4.63727">
        <ele>652.87</ele>
        <time>2013-11-30T15:02:57Z</time>
      </trkpt>
      <trkpt lat="45.76256" lon="4.63738">
        <ele>651.43</ele>
        <time>2013-11-30T15:02:59Z</time>
      </trkpt>
      <trkpt lat="45.76258" lon="4.63744">
        <ele>650.47</ele>
        <time>2013-11-30T15:03:00Z</time>
      </trkpt>
      <trkpt lat="45.7626" lon="4.63749">
        <ele>649.99</ele>
        <time>2013-11-30T15:03:01Z</time>
      </trkpt>
      <trkpt lat="45.76262" lon="4.63753">
        <ele>649.51</ele>
        <time>2013-11-30T15:03:02Z</time>
      </trkpt>
      <trkpt lat="45.76264" lon="4.63758">
        <ele>648.55</ele>
        <time>2013-11-30T15:03:03Z</time>
      </trkpt>
      <trkpt lat="45.7627" lon="4.63767">
        <ele>647.1</ele>
        <time>2013-11-30T15:03:05Z</time>
      </trkpt>
      <trkpt lat="45.76276" lon="4.63779">
        <ele>644.7</ele>
        <time>2013-11-30T15:03:08Z</time>
      </trkpt>
      <trkpt lat="45.76279" lon="4.63796">
        <ele>641.82</ele>
        <time>2013-11-30T15:03:12Z</time>
      </trkpt>
      <trkpt lat="45.76279" lon="4.63804">
        <ele>641.34</ele>
        <time>2013-11-30T15:03:14Z</time>
      </trkpt>
      <trkpt lat="45.76279" lon="4.63807">
        <ele>640.86</ele>
        <time>2013-11-30T15:03:27Z</time>
      </trkpt>
      <trkpt lat="45.76279" lon="4.63807">
        <ele>640.38</ele>
        <time>2013-11-30T15:03:45Z</time>
      </trkpt>
      <trkpt lat="45.76278" lon="4.63811">
        <ele>640.38</ele>
        <time>2013-11-30T15:04:03Z</time>
      </trkpt>
      <trkpt lat="45.76278" lon="4.63816">
        <ele>640.38</ele>
        <time>2013-11-30T15:04:05Z</time>
      </trkpt>
      <trkpt lat="45.76274" lon="4.63824">
        <ele>638.45</ele>
        <time>2013-11-30T15:04:08Z</time>
      </trkpt>
      <trkpt lat="45.76261" lon="4.63829">
        <ele>636.05</ele>
        <time>2013-11-30T15:04:15Z</time>
      </trkpt>
      <trkpt lat="45.76252" lon="4.63833">
        <ele>634.61</ele>
        <time>2013-11-30T15:04:23Z</time>
      </trkpt>
      <trkpt lat="45.76248" lon="4.63835">
        <ele>634.13</ele>
        <time>2013-11-30T15:04:33Z</time>
      </trkpt>
      <trkpt lat="45.76242" lon="4.63837">
        <ele>633.17</ele>
        <time>2013-11-30T15:04:44Z</time>
      </trkpt>
      <trkpt lat="45.76241" lon="4.63837">
        <ele>631.72</ele>
        <time>2013-11-30T15:04:54Z</time>
      </trkpt>
      <trkpt lat="45.76238" lon="4.63838">
        <ele>631.24</ele>
        <time>2013-11-30T15:05:01Z</time>
      </trkpt>
      <trkpt lat="45.76223" lon="4.63839">
        <ele>629.32</ele>
        <time>2013-11-30T15:05:07Z</time>
      </trkpt>
      <trkpt lat="45.76209" lon="4.63839">
        <ele>627.4</ele>
        <time>2013-11-30T15:05:12Z</time>
      </trkpt>
      <trkpt lat="45.76184" lon="4.63842">
        <ele>623.55</ele>
        <time>2013-11-30T15:05:20Z</time>
      </trkpt>
      <trkpt lat="45.76161" lon="4.63833">
        <ele>621.15</ele>
        <time>2013-11-30T15:05:28Z</time>
      </trkpt>
      <trkpt lat="45.76139" lon="4.63827">
        <ele>619.71</ele>
        <time>2013-11-30T15:05:36Z</time>
      </trkpt>
      <trkpt lat="45.76138" lon="4.63828">
        <ele>618.75</ele>
        <time>2013-11-30T15:05:37Z</time>
      </trkpt>
      <trkpt lat="45.76135" lon="4.63831">
        <ele>618.26</ele>
        <time>2013-11-30T15:05:38Z</time>
      </trkpt>
      <trkpt lat="45.76124" lon="4.63838">
        <ele>616.82</ele>
        <time>2013-11-30T15:05:46Z</time>
      </trkpt>
      <trkpt lat="45.76124" lon="4.63839">
        <ele>612.5</ele>
        <time>2013-11-30T15:05:52Z</time>
      </trkpt>
      <trkpt lat="45.76124" lon="4.6384">
        <ele>616.82</ele>
        <time>2013-11-30T15:05:53Z</time>
      </trkpt>
      <trkpt lat="45.76121" lon="4.63847">
        <ele>613.94</ele>
        <time>2013-11-30T15:06:03Z</time>
      </trkpt>
      <trkpt lat="45.76117" lon="4.63852">
        <ele>613.46</ele>
        <time>2013-11-30T15:06:12Z</time>
      </trkpt>
      <trkpt lat="45.76115" lon="4.63858">
        <ele>612.5</ele>
        <time>2013-11-30T15:06:19Z</time>
      </trkpt>
      <trkpt lat="45.76113" lon="4.63864">
        <ele>611.06</ele>
        <time>2013-11-30T15:06:22Z</time>
      </trkpt>
      <trkpt lat="45.76112" lon="4.63869">
        <ele>610.09</ele>
        <time>2013-11-30T15:06:24Z</time>
      </trkpt>
      <trkpt lat="45.7611" lon="4.63877">
        <ele>609.13</ele>
        <time>2013-11-30T15:06:27Z</time>
      </trkpt>
      <trkpt lat="45.76109" lon="4.6388">
        <ele>608.65</ele>
        <time>2013-11-30T15:06:28Z</time>
      </trkpt>
      <trkpt lat="45.76105" lon="4.63899">
        <ele>605.29</ele>
        <time>2013-11-30T15:06:35Z</time>
      </trkpt>
      <trkpt lat="45.76103" lon="4.63904">
        <ele>604.33</ele>
        <time>2013-11-30T15:06:37Z</time>
      </trkpt>
      <trkpt lat="45.76103" lon="4.63906">
        <ele>603.36</ele>
        <time>2013-11-30T15:06:38Z</time>
      </trkpt>
      <trkpt lat="45.76101" lon="4.63917">
        <ele>601.92</ele>
        <time>2013-11-30T15:06:41Z</time>
      </trkpt>
      <trkpt lat="45.76097" lon="4.63944">
        <ele>599.04</ele>
        <time>2013-11-30T15:06:48Z</time>
      </trkpt>
      <trkpt lat="45.7609" lon="4.6397">
        <ele>596.64</ele>
        <time>2013-11-30T15:06:55Z</time>
      </trkpt>
      <trkpt lat="45.76088" lon="4.63981">
        <ele>595.67</ele>
        <time>2013-11-30T15:06:58Z</time>
      </trkpt>
      <trkpt lat="45.76084" lon="4.63994">
        <ele>593.75</ele>
        <time>2013-11-30T15:07:02Z</time>
      </trkpt>
      <trkpt lat="45.76075" lon="4.64012">
        <ele>591.35</ele>
        <time>2013-11-30T15:07:07Z</time>
      </trkpt>
      <trkpt lat="45.76084" lon="4.64031">
        <ele>588.95</ele>
        <time>2013-11-30T15:07:16Z</time>
      </trkpt>
      <trkpt lat="45.76091" lon="4.64058">
        <ele>587.02</ele>
        <time>2013-11-30T15:07:24Z</time>
      </trkpt>
      <trkpt lat="45.76082" lon="4.64076">
        <ele>584.62</ele>
        <time>2013-11-30T15:07:30Z</time>
      </trkpt>
      <trkpt lat="45.7608" lon="4.64081">
        <ele>582.7</ele>
        <time>2013-11-30T15:07:32Z</time>
      </trkpt>
      <trkpt lat="45.76075" lon="4.64089">
        <ele>582.22</ele>
        <time>2013-11-30T15:07:35Z</time>
      </trkpt>
      <trkpt lat="45.76066" lon="4.64091">
        <ele>578.85</ele>
        <time>2013-11-30T15:07:40Z</time>
      </trkpt>
      <trkpt lat="45.76058" lon="4.641">
        <ele>575.97</ele>
        <time>2013-11-30T15:07:44Z</time>
      </trkpt>
      <trkpt lat="45.76058" lon="4.64106">
        <ele>575.01</ele>
        <time>2013-11-30T15:07:47Z</time>
      </trkpt>
      <trkpt lat="45.76064" lon="4.64122">
        <ele>571.64</ele>
        <time>2013-11-30T15:07:52Z</time>
      </trkpt>
      <trkpt lat="45.76064" lon="4.64127">
        <ele>571.16</ele>
        <time>2013-11-30T15:07:53Z</time>
      </trkpt>
      <trkpt lat="45.76068" lon="4.64144">
        <ele>567.8</ele>
        <time>2013-11-30T15:07:57Z</time>
      </trkpt>
      <trkpt lat="45.76068" lon="4.64147">
        <ele>568.28</ele>
        <time>2013-11-30T15:07:58Z</time>
      </trkpt>
      <trkpt lat="45.76067" lon="4.6416">
        <ele>565.39</ele>
        <time>2013-11-30T15:08:02Z</time>
      </trkpt>
      <trkpt lat="45.76068" lon="4.64178">
        <ele>562.03</ele>
        <time>2013-11-30T15:08:07Z</time>
      </trkpt>
      <trkpt lat="45.76068" lon="4.64181">
        <ele>562.03</ele>
        <time>2013-11-30T15:08:08Z</time>
      </trkpt>
      <trkpt lat="45.76069" lon="4.642">
        <ele>558.66</ele>
        <time>2013-11-30T15:08:13Z</time>
      </trkpt>
      <trkpt lat="45.76073" lon="4.64225">
        <ele>556.26</ele>
        <time>2013-11-30T15:08:18Z</time>
      </trkpt>
      <trkpt lat="45.76074" lon="4.64232">
        <ele>555.3</ele>
        <time>2013-11-30T15:08:20Z</time>
      </trkpt>
      <trkpt lat="45.76074" lon="4.64238">
        <ele>553.86</ele>
        <time>2013-11-30T15:08:22Z</time>
      </trkpt>
      <trkpt lat="45.76075" lon="4.64244">
        <ele>552.41</ele>
        <time>2013-11-30T15:08:24Z</time>
      </trkpt>
      <trkpt lat="45.76071" lon="4.64249">
        <ele>551.45</ele>
        <time>2013-11-30T15:08:26Z</time>
      </trkpt>
      <trkpt lat="45.76065" lon="4.6425">
        <ele>550.01</ele>
        <time>2013-11-30T15:08:29Z</time>
      </trkpt>
      <trkpt lat="45.76062" lon="4.64249">
        <ele>549.53</ele>
        <time>2013-11-30T15:08:30Z</time>
      </trkpt>
      <trkpt lat="45.76048" lon="4.64245">
        <ele>545.2</ele>
        <time>2013-11-30T15:08:35Z</time>
      </trkpt>
      <trkpt lat="45.76038" lon="4.64246">
        <ele>543.76</ele>
        <time>2013-11-30T15:08:39Z</time>
      </trkpt>
      <trkpt lat="45.76026" lon="4.64249">
        <ele>540.88</ele>
        <time>2013-11-30T15:08:44Z</time>
      </trkpt>
      <trkpt lat="45.76024" lon="4.64248">
        <ele>540.4</ele>
        <time>2013-11-30T15:08:46Z</time>
      </trkpt>
      <trkpt lat="45.76019" lon="4.64256">
        <ele>538.48</ele>
        <time>2013-11-30T15:08:50Z</time>
      </trkpt>
      <trkpt lat="45.76019" lon="4.64261">
        <ele>537.99</ele>
        <time>2013-11-30T15:08:52Z</time>
      </trkpt>
      <trkpt lat="45.76022" lon="4.64283">
        <ele>535.11</ele>
        <time>2013-11-30T15:08:57Z</time>
      </trkpt>
      <trkpt lat="45.76021" lon="4.6431">
        <ele>532.23</ele>
        <time>2013-11-30T15:09:03Z</time>
      </trkpt>
      <trkpt lat="45.7602" lon="4.64323">
        <ele>529.34</ele>
        <time>2013-11-30T15:09:07Z</time>
      </trkpt>
      <trkpt lat="45.7602" lon="4.64347">
        <ele>526.94</ele>
        <time>2013-11-30T15:09:14Z</time>
      </trkpt>
      <trkpt lat="45.76023" lon="4.64367">
        <ele>525.5</ele>
        <time>2013-11-30T15:09:18Z</time>
      </trkpt>
      <trkpt lat="45.76025" lon="4.64376">
        <ele>524.06</ele>
        <time>2013-11-30T15:09:20Z</time>
      </trkpt>
      <trkpt lat="45.76026" lon="4.64383">
        <ele>522.61</ele>
        <time>2013-11-30T15:09:22Z</time>
      </trkpt>
      <trkpt lat="45.76016" lon="4.64388">
        <ele>518.77</ele>
        <time>2013-11-30T15:09:28Z</time>
      </trkpt>
      <trkpt lat="45.7601" lon="4.64383">
        <ele>517.81</ele>
        <time>2013-11-30T15:09:30Z</time>
      </trkpt>
      <trkpt lat="45.76003" lon="4.64379">
        <ele>515.88</ele>
        <time>2013-11-30T15:09:32Z</time>
      </trkpt>
      <trkpt lat="45.75998" lon="4.64377">
        <ele>514.92</ele>
        <time>2013-11-30T15:09:33Z</time>
      </trkpt>
      <trkpt lat="45.75994" lon="4.64374">
        <ele>514.44</ele>
        <time>2013-11-30T15:09:34Z</time>
      </trkpt>
      <trkpt lat="45.7599" lon="4.6437">
        <ele>513.96</ele>
        <time>2013-11-30T15:09:35Z</time>
      </trkpt>
      <trkpt lat="45.75986" lon="4.64366">
        <ele>513.96</ele>
        <time>2013-11-30T15:09:36Z</time>
      </trkpt>
      <trkpt lat="45.75974" lon="4.64355">
        <ele>512.52</ele>
        <time>2013-11-30T15:09:39Z</time>
      </trkpt>
      <trkpt lat="45.75962" lon="4.64344">
        <ele>510.12</ele>
        <time>2013-11-30T15:09:42Z</time>
      </trkpt>
      <trkpt lat="45.75958" lon="4.64339">
        <ele>510.12</ele>
        <time>2013-11-30T15:09:43Z</time>
      </trkpt>
      <trkpt lat="45.75951" lon="4.64328">
        <ele>508.67</ele>
        <time>2013-11-30T15:09:45Z</time>
      </trkpt>
      <trkpt lat="45.75939" lon="4.64305">
        <ele>506.75</ele>
        <time>2013-11-30T15:09:49Z</time>
      </trkpt>
      <trkpt lat="45.75937" lon="4.64299">
        <ele>506.27</ele>
        <time>2013-11-30T15:09:50Z</time>
      </trkpt>
      <trkpt lat="45.75929" lon="4.64273">
        <ele>504.35</ele>
        <time>2013-11-30T15:09:54Z</time>
      </trkpt>
      <trkpt lat="45.75924" lon="4.64264">
        <ele>502.91</ele>
        <time>2013-11-30T15:09:56Z</time>
      </trkpt>
      <trkpt lat="45.7591" lon="4.64246">
        <ele>500.5</ele>
        <time>2013-11-30T15:10:00Z</time>
      </trkpt>
      <trkpt lat="45.75902" lon="4.6423">
        <ele>499.54</ele>
        <time>2013-11-30T15:10:03Z</time>
      </trkpt>
      <trkpt lat="45.75891" lon="4.64195">
        <ele>499.06</ele>
        <time>2013-11-30T15:10:10Z</time>
      </trkpt>
      <trkpt lat="45.75889" lon="4.64191">
        <ele>499.06</ele>
        <time>2013-11-30T15:10:11Z</time>
      </trkpt>
      <trkpt lat="45.75868" lon="4.64171">
        <ele>499.06</ele>
        <time>2013-11-30T15:10:18Z</time>
      </trkpt>
      <trkpt lat="45.75865" lon="4.6417">
        <ele>499.06</ele>
        <time>2013-11-30T15:10:19Z</time>
      </trkpt>
      <trkpt lat="45.75839" lon="4.64173">
        <ele>498.58</ele>
        <time>2013-11-30T15:10:28Z</time>
      </trkpt>
      <trkpt lat="45.75826" lon="4.6417">
        <ele>496.66</ele>
        <time>2013-11-30T15:10:35Z</time>
      </trkpt>
      <trkpt lat="45.75825" lon="4.64169">
        <ele>496.66</ele>
        <time>2013-11-30T15:10:49Z</time>
      </trkpt>
      <trkpt lat="45.75825" lon="4.64169">
        <ele>497.14</ele>
        <time>2013-11-30T15:11:09Z</time>
      </trkpt>
      <trkpt lat="45.75825" lon="4.64169">
        <ele>497.14</ele>
        <time>2013-11-30T15:11:29Z</time>
      </trkpt>
      <trkpt lat="45.75825" lon="4.64171">
        <ele>497.14</ele>
        <time>2013-11-30T15:11:45Z</time>
      </trkpt>
      <trkpt lat="45.75824" lon="4.64173">
        <ele>496.66</ele>
        <time>2013-11-30T15:11:46Z</time>
      </trkpt>
      <trkpt lat="45.75824" lon="4.64175">
        <ele>496.18</ele>
        <time>2013-11-30T15:11:47Z</time>
      </trkpt>
      <trkpt lat="45.75824" lon="4.64177">
        <ele>495.22</ele>
        <time>2013-11-30T15:11:48Z</time>
      </trkpt>
      <trkpt lat="45.75825" lon="4.64179">
        <ele>495.22</ele>
        <time>2013-11-30T15:11:49Z</time>
      </trkpt>
      <trkpt lat="45.75826" lon="4.64183">
        <ele>494.74</ele>
        <time>2013-11-30T15:11:50Z</time>
      </trkpt>
      <trkpt lat="45.75826" lon="4.64186">
        <ele>493.77</ele>
        <time>2013-11-30T15:11:51Z</time>
      </trkpt>
      <trkpt lat="45.75828" lon="4.64189">
        <ele>493.29</ele>
        <time>2013-11-30T15:11:52Z</time>
      </trkpt>
      <trkpt lat="45.75829" lon="4.64191">
        <ele>492.81</ele>
        <time>2013-11-30T15:11:53Z</time>
      </trkpt>
      <trkpt lat="45.7583" lon="4.64193">
        <ele>492.33</ele>
        <time>2013-11-30T15:11:54Z</time>
      </trkpt>
      <trkpt lat="45.75833" lon="4.64197">
        <ele>491.37</ele>
        <time>2013-11-30T15:11:56Z</time>
      </trkpt>
      <trkpt lat="45.75842" lon="4.64212">
        <ele>488.49</ele>
        <time>2013-11-30T15:12:00Z</time>
      </trkpt>
      <trkpt lat="45.75845" lon="4.64215">
        <ele>488.49</ele>
        <time>2013-11-30T15:12:01Z</time>
      </trkpt>
      <trkpt lat="45.75847" lon="4.64218">
        <ele>487.53</ele>
        <time>2013-11-30T15:12:02Z</time>
      </trkpt>
      <trkpt lat="45.75849" lon="4.64222">
        <ele>487.05</ele>
        <time>2013-11-30T15:12:03Z</time>
      </trkpt>
      <trkpt lat="45.7585" lon="4.64226">
        <ele>486.56</ele>
        <time>2013-11-30T15:12:04Z</time>
      </trkpt>
      <trkpt lat="45.75851" lon="4.64231">
        <ele>486.56</ele>
        <time>2013-11-30T15:12:05Z</time>
      </trkpt>
      <trkpt lat="45.75851" lon="4.64237">
        <ele>485.6</ele>
        <time>2013-11-30T15:12:06Z</time>
      </trkpt>
      <trkpt lat="45.75852" lon="4.64244">
        <ele>485.12</ele>
        <time>2013-11-30T15:12:07Z</time>
      </trkpt>
      <trkpt lat="45.75853" lon="4.64269">
        <ele>481.28</ele>
        <time>2013-11-30T15:12:10Z</time>
      </trkpt>
      <trkpt lat="45.75856" lon="4.64302">
        <ele>477.91</ele>
        <time>2013-11-30T15:12:13Z</time>
      </trkpt>
      <trkpt lat="45.75858" lon="4.64328">
        <ele>474.55</ele>
        <time>2013-11-30T15:12:16Z</time>
      </trkpt>
      <trkpt lat="45.75859" lon="4.64358">
        <ele>471.18</ele>
        <time>2013-11-30T15:12:21Z</time>
      </trkpt>
      <trkpt lat="45.75859" lon="4.64375">
        <ele>469.26</ele>
        <time>2013-11-30T15:12:24Z</time>
      </trkpt>
      <trkpt lat="45.75858" lon="4.64381">
        <ele>468.78</ele>
        <time>2013-11-30T15:12:25Z</time>
      </trkpt>
      <trkpt lat="45.75856" lon="4.64387">
        <ele>467.82</ele>
        <time>2013-11-30T15:12:26Z</time>
      </trkpt>
      <trkpt lat="45.75853" lon="4.64392">
        <ele>467.34</ele>
        <time>2013-11-30T15:12:27Z</time>
      </trkpt>
      <trkpt lat="45.75834" lon="4.64417">
        <ele>463.49</ele>
        <time>2013-11-30T15:12:33Z</time>
      </trkpt>
      <trkpt lat="45.75829" lon="4.64434">
        <ele>463.01</ele>
        <time>2013-11-30T15:12:39Z</time>
      </trkpt>
      <trkpt lat="45.75829" lon="4.64435">
        <ele>463.01</ele>
        <time>2013-11-30T15:12:40Z</time>
      </trkpt>
      <trkpt lat="45.75829" lon="4.64438">
        <ele>463.01</ele>
        <time>2013-11-30T15:12:41Z</time>
      </trkpt>
      <trkpt lat="45.75828" lon="4.6444">
        <ele>463.01</ele>
        <time>2013-11-30T15:12:42Z</time>
      </trkpt>
      <trkpt lat="45.75829" lon="4.64443">
        <ele>463.49</ele>
        <time>2013-11-30T15:12:43Z</time>
      </trkpt>
      <trkpt lat="45.7583" lon="4.64446">
        <ele>463.49</ele>
        <time>2013-11-30T15:12:44Z</time>
      </trkpt>
      <trkpt lat="45.75831" lon="4.64449">
        <ele>463.49</ele>
        <time>2013-11-30T15:12:45Z</time>
      </trkpt>
      <trkpt lat="45.75832" lon="4.64452">
        <ele>463.49</ele>
        <time>2013-11-30T15:12:46Z</time>
      </trkpt>
      <trkpt lat="45.75833" lon="4.64454">
        <ele>463.49</ele>
        <time>2013-11-30T15:12:47Z</time>
      </trkpt>
      <trkpt lat="45.75834" lon="4.64458">
        <ele>463.49</ele>
        <time>2013-11-30T15:12:48Z</time>
      </trkpt>
      <trkpt lat="45.75836" lon="4.6446">
        <ele>463.49</ele>
        <time>2013-11-30T15:12:49Z</time>
      </trkpt>
      <trkpt lat="45.75837" lon="4.64464">
        <ele>463.49</ele>
        <time>2013-11-30T15:12:50Z</time>
      </trkpt>
      <trkpt lat="45.75838" lon="4.64468">
        <ele>463.49</ele>
        <time>2013-11-30T15:12:51Z</time>
      </trkpt>
      <trkpt lat="45.75843" lon="4.64506">
        <ele>464.93</ele>
        <time>2013-11-30T15:13:01Z</time>
      </trkpt>
      <trkpt lat="45.75848" lon="4.64539">
        <ele>464.93</ele>
        <time>2013-11-30T15:13:09Z</time>
      </trkpt>
      <trkpt lat="45.75849" lon="4.64541">
        <ele>465.9</ele>
        <time>2013-11-30T15:13:10Z</time>
      </trkpt>
      <trkpt lat="45.75849" lon="4.64544">
        <ele>465.42</ele>
        <time>2013-11-30T15:13:11Z</time>
      </trkpt>
      <trkpt lat="45.7585" lon="4.64546">
        <ele>465.9</ele>
        <time>2013-11-30T15:13:12Z</time>
      </trkpt>
      <trkpt lat="45.75851" lon="4.64549">
        <ele>465.9</ele>
        <time>2013-11-30T15:13:13Z</time>
      </trkpt>
      <trkpt lat="45.75852" lon="4.64551">
        <ele>465.9</ele>
        <time>2013-11-30T15:13:14Z</time>
      </trkpt>
      <trkpt lat="45.75855" lon="4.6457">
        <ele>467.34</ele>
        <time>2013-11-30T15:13:21Z</time>
      </trkpt>
      <trkpt lat="45.75856" lon="4.64572">
        <ele>467.34</ele>
        <time>2013-11-30T15:13:22Z</time>
      </trkpt>
      <trkpt lat="45.75857" lon="4.64576">
        <ele>467.82</ele>
        <time>2013-11-30T15:13:24Z</time>
      </trkpt>
      <trkpt lat="45.75858" lon="4.64578">
        <ele>467.82</ele>
        <time>2013-11-30T15:13:25Z</time>
      </trkpt>
      <trkpt lat="45.75861" lon="4.64581">
        <ele>467.82</ele>
        <time>2013-11-30T15:13:26Z</time>
      </trkpt>
      <trkpt lat="45.75863" lon="4.64585">
        <ele>468.3</ele>
        <time>2013-11-30T15:13:27Z</time>
      </trkpt>
      <trkpt lat="45.75865" lon="4.64588">
        <ele>468.78</ele>
        <time>2013-11-30T15:13:28Z</time>
      </trkpt>
      <trkpt lat="45.75866" lon="4.64591">
        <ele>468.78</ele>
        <time>2013-11-30T15:13:29Z</time>
      </trkpt>
      <trkpt lat="45.75872" lon="4.64606">
        <ele>470.22</ele>
        <time>2013-11-30T15:13:35Z</time>
      </trkpt>
      <trkpt lat="45.75873" lon="4.64608">
        <ele>470.22</ele>
        <time>2013-11-30T15:13:36Z</time>
      </trkpt>
      <trkpt lat="45.75874" lon="4.64613">
        <ele>470.7</ele>
        <time>2013-11-30T15:13:38Z</time>
      </trkpt>
      <trkpt lat="45.75873" lon="4.64616">
        <ele>470.7</ele>
        <time>2013-11-30T15:13:39Z</time>
      </trkpt>
      <trkpt lat="45.75874" lon="4.64619">
        <ele>470.7</ele>
        <time>2013-11-30T15:13:40Z</time>
      </trkpt>
      <trkpt lat="45.75874" lon="4.64621">
        <ele>470.7</ele>
        <time>2013-11-30T15:13:41Z</time>
      </trkpt>
      <trkpt lat="45.75875" lon="4.64624">
        <ele>470.7</ele>
        <time>2013-11-30T15:13:42Z</time>
      </trkpt>
      <trkpt lat="45.75876" lon="4.64626">
        <ele>470.7</ele>
        <time>2013-11-30T15:13:43Z</time>
      </trkpt>
      <trkpt lat="45.75876" lon="4.64629">
        <ele>470.7</ele>
        <time>2013-11-30T15:13:44Z</time>
      </trkpt>
      <trkpt lat="45.75878" lon="4.64632">
        <ele>470.7</ele>
        <time>2013-11-30T15:13:46Z</time>
      </trkpt>
      <trkpt lat="45.75879" lon="4.64634">
        <ele>470.7</ele>
        <time>2013-11-30T15:13:47Z</time>
      </trkpt>
      <trkpt lat="45.7588" lon="4.64636">
        <ele>471.18</ele>
        <time>2013-11-30T15:13:48Z</time>
      </trkpt>
      <trkpt lat="45.75882" lon="4.64638">
        <ele>471.18</ele>
        <time>2013-11-30T15:13:49Z</time>
      </trkpt>
      <trkpt lat="45.75888" lon="4.64653">
        <ele>471.66</ele>
        <time>2013-11-30T15:13:55Z</time>
      </trkpt>
      <trkpt lat="45.75889" lon="4.64655">
        <ele>471.66</ele>
        <time>2013-11-30T15:13:56Z</time>
      </trkpt>
      <trkpt lat="45.75889" lon="4.64658">
        <ele>471.66</ele>
        <time>2013-11-30T15:13:57Z</time>
      </trkpt>
      <trkpt lat="45.7589" lon="4.64684">
        <ele>471.66</ele>
        <time>2013-11-30T15:14:05Z</time>
      </trkpt>
      <trkpt lat="45.75892" lon="4.6471">
        <ele>472.63</ele>
        <time>2013-11-30T15:14:13Z</time>
      </trkpt>
      <trkpt lat="45.75889" lon="4.64749">
        <ele>473.59</ele>
        <time>2013-11-30T15:14:23Z</time>
      </trkpt>
      <trkpt lat="45.75891" lon="4.64774">
        <ele>473.59</ele>
        <time>2013-11-30T15:14:30Z</time>
      </trkpt>
      <trkpt lat="45.75891" lon="4.64777">
        <ele>473.59</ele>
        <time>2013-11-30T15:14:31Z</time>
      </trkpt>
      <trkpt lat="45.7589" lon="4.64782">
        <ele>473.59</ele>
        <time>2013-11-30T15:14:33Z</time>
      </trkpt>
      <trkpt lat="45.7589" lon="4.64785">
        <ele>473.59</ele>
        <time>2013-11-30T15:14:34Z</time>
      </trkpt>
      <trkpt lat="45.75888" lon="4.64788">
        <ele>473.59</ele>
        <time>2013-11-30T15:14:35Z</time>
      </trkpt>
      <trkpt lat="45.75888" lon="4.64791">
        <ele>474.07</ele>
        <time>2013-11-30T15:14:36Z</time>
      </trkpt>
      <trkpt lat="45.75887" lon="4.64795">
        <ele>474.55</ele>
        <time>2013-11-30T15:14:37Z</time>
      </trkpt>
      <trkpt lat="45.75887" lon="4.64798">
        <ele>475.03</ele>
        <time>2013-11-30T15:14:38Z</time>
      </trkpt>
      <trkpt lat="45.75886" lon="4.64801">
        <ele>475.03</ele>
        <time>2013-11-30T15:14:39Z</time>
      </trkpt>
      <trkpt lat="45.75886" lon="4.64804">
        <ele>475.51</ele>
        <time>2013-11-30T15:14:40Z</time>
      </trkpt>
      <trkpt lat="45.75886" lon="4.64808">
        <ele>475.03</ele>
        <time>2013-11-30T15:14:41Z</time>
      </trkpt>
      <trkpt lat="45.75886" lon="4.64811">
        <ele>475.03</ele>
        <time>2013-11-30T15:14:42Z</time>
      </trkpt>
      <trkpt lat="45.75886" lon="4.64814">
        <ele>474.55</ele>
        <time>2013-11-30T15:14:43Z</time>
      </trkpt>
      <trkpt lat="45.75877" lon="4.6485">
        <ele>475.51</ele>
        <time>2013-11-30T15:14:52Z</time>
      </trkpt>
      <trkpt lat="45.75864" lon="4.64877">
        <ele>475.99</ele>
        <time>2013-11-30T15:15:00Z</time>
      </trkpt>
      <trkpt lat="45.75844" lon="4.64897">
        <ele>475.51</ele>
        <time>2013-11-30T15:15:08Z</time>
      </trkpt>
      <trkpt lat="45.75813" lon="4.64911">
        <ele>473.11</ele>
        <time>2013-11-30T15:15:17Z</time>
      </trkpt>
      <trkpt lat="45.75805" lon="4.64916">
        <ele>472.63</ele>
        <time>2013-11-30T15:15:19Z</time>
      </trkpt>
      <trkpt lat="45.75796" lon="4.64922">
        <ele>471.66</ele>
        <time>2013-11-30T15:15:21Z</time>
      </trkpt>
      <trkpt lat="45.75792" lon="4.64925">
        <ele>471.18</ele>
        <time>2013-11-30T15:15:22Z</time>
      </trkpt>
      <trkpt lat="45.75788" lon="4.64928">
        <ele>470.7</ele>
        <time>2013-11-30T15:15:23Z</time>
      </trkpt>
      <trkpt lat="45.75781" lon="4.64935">
        <ele>469.74</ele>
        <time>2013-11-30T15:15:25Z</time>
      </trkpt>
      <trkpt lat="45.75775" lon="4.64942">
        <ele>468.3</ele>
        <time>2013-11-30T15:15:27Z</time>
      </trkpt>
      <trkpt lat="45.75773" lon="4.64947">
        <ele>468.3</ele>
        <time>2013-11-30T15:15:28Z</time>
      </trkpt>
      <trkpt lat="45.75772" lon="4.64952">
        <ele>467.82</ele>
        <time>2013-11-30T15:15:29Z</time>
      </trkpt>
      <trkpt lat="45.75771" lon="4.64958">
        <ele>467.34</ele>
        <time>2013-11-30T15:15:30Z</time>
      </trkpt>
      <trkpt lat="45.7577" lon="4.64965">
        <ele>466.86</ele>
        <time>2013-11-30T15:15:31Z</time>
      </trkpt>
      <trkpt lat="45.75767" lon="4.64981">
        <ele>465.9</ele>
        <time>2013-11-30T15:15:33Z</time>
      </trkpt>
      <trkpt lat="45.75765" lon="4.64998">
        <ele>464.45</ele>
        <time>2013-11-30T15:15:35Z</time>
      </trkpt>
      <trkpt lat="45.75756" lon="4.65041">
        <ele>463.49</ele>
        <time>2013-11-30T15:15:40Z</time>
      </trkpt>
      <trkpt lat="45.75755" lon="4.6505">
        <ele>463.97</ele>
        <time>2013-11-30T15:15:41Z</time>
      </trkpt>
      <trkpt lat="45.75753" lon="4.6506">
        <ele>463.97</ele>
        <time>2013-11-30T15:15:42Z</time>
      </trkpt>
      <trkpt lat="45.75752" lon="4.65069">
        <ele>463.97</ele>
        <time>2013-11-30T15:15:43Z</time>
      </trkpt>
      <trkpt lat="45.7575" lon="4.65079">
        <ele>463.49</ele>
        <time>2013-11-30T15:15:44Z</time>
      </trkpt>
      <trkpt lat="45.75749" lon="4.65089">
        <ele>463.49</ele>
        <time>2013-11-30T15:15:45Z</time>
      </trkpt>
      <trkpt lat="45.75748" lon="4.65098">
        <ele>462.53</ele>
        <time>2013-11-30T15:15:46Z</time>
      </trkpt>
      <trkpt lat="45.75744" lon="4.65123">
        <ele>463.01</ele>
        <time>2013-11-30T15:15:49Z</time>
      </trkpt>
      <trkpt lat="45.75743" lon="4.65131">
        <ele>463.01</ele>
        <time>2013-11-30T15:15:50Z</time>
      </trkpt>
      <trkpt lat="45.7574" lon="4.65138">
        <ele>463.01</ele>
        <time>2013-11-30T15:15:51Z</time>
      </trkpt>
      <trkpt lat="45.75721" lon="4.65177">
        <ele>462.53</ele>
        <time>2013-11-30T15:15:59Z</time>
      </trkpt>
      <trkpt lat="45.75708" lon="4.65191">
        <ele>462.05</ele>
        <time>2013-11-30T15:16:07Z</time>
      </trkpt>
      <trkpt lat="45.7571" lon="4.65189">
        <ele>462.53</ele>
        <time>2013-11-30T15:16:16Z</time>
      </trkpt>
      <trkpt lat="45.7571" lon="4.65187">
        <ele>462.05</ele>
        <time>2013-11-30T15:16:18Z</time>
      </trkpt>
      <trkpt lat="45.75711" lon="4.65186">
        <ele>462.53</ele>
        <time>2013-11-30T15:16:19Z</time>
      </trkpt>
      <trkpt lat="45.75713" lon="4.65185">
        <ele>462.53</ele>
        <time>2013-11-30T15:16:20Z</time>
      </trkpt>
      <trkpt lat="45.75714" lon="4.65184">
        <ele>462.05</ele>
        <time>2013-11-30T15:16:21Z</time>
      </trkpt>
      <trkpt lat="45.75716" lon="4.65182">
        <ele>462.05</ele>
        <time>2013-11-30T15:16:22Z</time>
      </trkpt>
      <trkpt lat="45.75717" lon="4.65181">
        <ele>462.05</ele>
        <time>2013-11-30T15:16:23Z</time>
      </trkpt>
      <trkpt lat="45.75719" lon="4.6518">
        <ele>463.01</ele>
        <time>2013-11-30T15:16:24Z</time>
      </trkpt>
      <trkpt lat="45.75721" lon="4.65178">
        <ele>461.57</ele>
        <time>2013-11-30T15:16:25Z</time>
      </trkpt>
      <trkpt lat="45.75723" lon="4.65176">
        <ele>462.53</ele>
        <time>2013-11-30T15:16:26Z</time>
      </trkpt>
      <trkpt lat="45.75726" lon="4.65173">
        <ele>462.53</ele>
        <time>2013-11-30T15:16:27Z</time>
      </trkpt>
      <trkpt lat="45.75728" lon="4.65171">
        <ele>462.53</ele>
        <time>2013-11-30T15:16:28Z</time>
      </trkpt>
      <trkpt lat="45.7573" lon="4.65169">
        <ele>462.53</ele>
        <time>2013-11-30T15:16:29Z</time>
      </trkpt>
      <trkpt lat="45.75731" lon="4.65168">
        <ele>462.53</ele>
        <time>2013-11-30T15:16:30Z</time>
      </trkpt>
      <trkpt lat="45.75732" lon="4.65169">
        <ele>462.53</ele>
        <time>2013-11-30T15:16:31Z</time>
      </trkpt>
      <trkpt lat="45.75732" lon="4.6517">
        <ele>462.53</ele>
        <time>2013-11-30T15:16:32Z</time>
      </trkpt>
      <trkpt lat="45.75732" lon="4.65172">
        <ele>462.53</ele>
        <time>2013-11-30T15:16:33Z</time>
      </trkpt>
      <trkpt lat="45.75732" lon="4.65174">
        <ele>461.57</ele>
        <time>2013-11-30T15:16:34Z</time>
      </trkpt>
      <trkpt lat="45.75732" lon="4.6521">
        <ele>460.13</ele>
        <time>2013-11-30T15:16:41Z</time>
      </trkpt>
      <trkpt lat="45.75733" lon="4.65217">
        <ele>459.65</ele>
        <time>2013-11-30T15:16:42Z</time>
      </trkpt>
      <trkpt lat="45.75734" lon="4.65224">
        <ele>459.65</ele>
        <time>2013-11-30T15:16:43Z</time>
      </trkpt>
      <trkpt lat="45.75736" lon="4.65231">
        <ele>458.69</ele>
        <time>2013-11-30T15:16:44Z</time>
      </trkpt>
      <trkpt lat="45.75737" lon="4.6524">
        <ele>457.72</ele>
        <time>2013-11-30T15:16:45Z</time>
      </trkpt>
      <trkpt lat="45.75748" lon="4.65285">
        <ele>454.84</ele>
        <time>2013-11-30T15:16:50Z</time>
      </trkpt>
      <trkpt lat="45.75752" lon="4.65311">
        <ele>452.44</ele>
        <time>2013-11-30T15:16:53Z</time>
      </trkpt>
      <trkpt lat="45.75761" lon="4.65349">
        <ele>449.07</ele>
        <time>2013-11-30T15:16:57Z</time>
      </trkpt>
      <trkpt lat="45.75763" lon="4.6536">
        <ele>448.11</ele>
        <time>2013-11-30T15:16:58Z</time>
      </trkpt>
      <trkpt lat="45.75766" lon="4.65393">
        <ele>444.27</ele>
        <time>2013-11-30T15:17:01Z</time>
      </trkpt>
      <trkpt lat="45.75768" lon="4.65426">
        <ele>441.86</ele>
        <time>2013-11-30T15:17:04Z</time>
      </trkpt>
      <trkpt lat="45.75767" lon="4.65439">
        <ele>439.94</ele>
        <time>2013-11-30T15:17:05Z</time>
      </trkpt>
      <trkpt lat="45.75763" lon="4.6548">
        <ele>435.13</ele>
        <time>2013-11-30T15:17:08Z</time>
      </trkpt>
      <trkpt lat="45.75761" lon="4.65508">
        <ele>430.81</ele>
        <time>2013-11-30T15:17:10Z</time>
      </trkpt>
      <trkpt lat="45.7576" lon="4.65538">
        <ele>426.48</ele>
        <time>2013-11-30T15:17:12Z</time>
      </trkpt>
      <trkpt lat="45.75759" lon="4.6557">
        <ele>422.16</ele>
        <time>2013-11-30T15:17:14Z</time>
      </trkpt>
      <trkpt lat="45.75759" lon="4.65596">
        <ele>417.35</ele>
        <time>2013-11-30T15:17:16Z</time>
      </trkpt>
      <trkpt lat="45.75759" lon="4.65618">
        <ele>413.5</ele>
        <time>2013-11-30T15:17:18Z</time>
      </trkpt>
      <trkpt lat="45.75759" lon="4.65649">
        <ele>410.14</ele>
        <time>2013-11-30T15:17:21Z</time>
      </trkpt>
      <trkpt lat="45.75758" lon="4.65656">
        <ele>409.18</ele>
        <time>2013-11-30T15:17:22Z</time>
      </trkpt>
      <trkpt lat="45.75756" lon="4.65663">
        <ele>409.18</ele>
        <time>2013-11-30T15:17:23Z</time>
      </trkpt>
      <trkpt lat="45.75752" lon="4.65676">
        <ele>406.77</ele>
        <time>2013-11-30T15:17:25Z</time>
      </trkpt>
      <trkpt lat="45.75745" lon="4.65704">
        <ele>402.93</ele>
        <time>2013-11-30T15:17:28Z</time>
      </trkpt>
      <trkpt lat="45.75735" lon="4.65746">
        <ele>399.57</ele>
        <time>2013-11-30T15:17:32Z</time>
      </trkpt>
      <trkpt lat="45.75729" lon="4.65773">
        <ele>397.16</ele>
        <time>2013-11-30T15:17:38Z</time>
      </trkpt>
      <trkpt lat="45.75729" lon="4.65774">
        <ele>395.72</ele>
        <time>2013-11-30T15:17:50Z</time>
      </trkpt>
      <trkpt lat="45.75727" lon="4.65784">
        <ele>395.72</ele>
        <time>2013-11-30T15:17:55Z</time>
      </trkpt>
      <trkpt lat="45.75726" lon="4.65783">
        <ele>395.72</ele>
        <time>2013-11-30T15:18:02Z</time>
      </trkpt>
      <trkpt lat="45.75726" lon="4.65783">
        <ele>397.16</ele>
        <time>2013-11-30T15:18:06Z</time>
      </trkpt>
      <trkpt lat="45.75726" lon="4.65783">
        <ele>396.2</ele>
        <time>2013-11-30T15:18:28Z</time>
      </trkpt>
      <trkpt lat="45.75725" lon="4.65783">
        <ele>395.72</ele>
        <time>2013-11-30T15:18:55Z</time>
      </trkpt>
      <trkpt lat="45.75725" lon="4.65783">
        <ele>396.2</ele>
        <time>2013-11-30T15:19:14Z</time>
      </trkpt>
      <trkpt lat="45.75725" lon="4.65784">
        <ele>396.68</ele>
        <time>2013-11-30T15:19:29Z</time>
      </trkpt>
      <trkpt lat="45.75723" lon="4.65785">
        <ele>396.2</ele>
        <time>2013-11-30T15:19:52Z</time>
      </trkpt>
      <trkpt lat="45.757" lon="4.65794">
        <ele>393.8</ele>
        <time>2013-11-30T15:20:00Z</time>
      </trkpt>
      <trkpt lat="45.75674" lon="4.65806">
        <ele>391.87</ele>
        <time>2013-11-30T15:20:07Z</time>
      </trkpt>
      <trkpt lat="45.7566" lon="4.65811">
        <ele>389.95</ele>
        <time>2013-11-30T15:20:10Z</time>
      </trkpt>
      <trkpt lat="45.75656" lon="4.65814">
        <ele>389.95</ele>
        <time>2013-11-30T15:20:11Z</time>
      </trkpt>
      <trkpt lat="45.75647" lon="4.65818">
        <ele>388.51</ele>
        <time>2013-11-30T15:20:13Z</time>
      </trkpt>
      <trkpt lat="45.75643" lon="4.6582">
        <ele>389.47</ele>
        <time>2013-11-30T15:20:14Z</time>
      </trkpt>
      <trkpt lat="45.75635" lon="4.65825">
        <ele>388.51</ele>
        <time>2013-11-30T15:20:16Z</time>
      </trkpt>
      <trkpt lat="45.75631" lon="4.65828">
        <ele>388.03</ele>
        <time>2013-11-30T15:20:17Z</time>
      </trkpt>
      <trkpt lat="45.75624" lon="4.65834">
        <ele>387.55</ele>
        <time>2013-11-30T15:20:19Z</time>
      </trkpt>
      <trkpt lat="45.7562" lon="4.65836">
        <ele>387.55</ele>
        <time>2013-11-30T15:20:20Z</time>
      </trkpt>
      <trkpt lat="45.75609" lon="4.65845">
        <ele>386.59</ele>
        <time>2013-11-30T15:20:23Z</time>
      </trkpt>
      <trkpt lat="45.75593" lon="4.65861">
        <ele>383.7</ele>
        <time>2013-11-30T15:20:27Z</time>
      </trkpt>
      <trkpt lat="45.7559" lon="4.65867">
        <ele>383.22</ele>
        <time>2013-11-30T15:20:28Z</time>
      </trkpt>
      <trkpt lat="45.75578" lon="4.65887">
        <ele>380.82</ele>
        <time>2013-11-30T15:20:33Z</time>
      </trkpt>
      <trkpt lat="45.75576" lon="4.65889">
        <ele>379.86</ele>
        <time>2013-11-30T15:20:34Z</time>
      </trkpt>
      <trkpt lat="45.75573" lon="4.65893">
        <ele>379.86</ele>
        <time>2013-11-30T15:20:35Z</time>
      </trkpt>
      <trkpt lat="45.7557" lon="4.65898">
        <ele>379.86</ele>
        <time>2013-11-30T15:20:36Z</time>
      </trkpt>
      <trkpt lat="45.75568" lon="4.65902">
        <ele>378.42</ele>
        <time>2013-11-30T15:20:37Z</time>
      </trkpt>
      <trkpt lat="45.75564" lon="4.65907">
        <ele>377.94</ele>
        <time>2013-11-30T15:20:38Z</time>
      </trkpt>
      <trkpt lat="45.75548" lon="4.65926">
        <ele>375.53</ele>
        <time>2013-11-30T15:20:42Z</time>
      </trkpt>
      <trkpt lat="45.75524" lon="4.65949">
        <ele>372.65</ele>
        <time>2013-11-30T15:20:48Z</time>
      </trkpt>
      <trkpt lat="45.75498" lon="4.65967">
        <ele>369.76</ele>
        <time>2013-11-30T15:20:55Z</time>
      </trkpt>
      <trkpt lat="45.75496" lon="4.6597">
        <ele>370.24</ele>
        <time>2013-11-30T15:20:56Z</time>
      </trkpt>
      <trkpt lat="45.75496" lon="4.65974">
        <ele>370.24</ele>
        <time>2013-11-30T15:20:57Z</time>
      </trkpt>
      <trkpt lat="45.75497" lon="4.65977">
        <ele>369.76</ele>
        <time>2013-11-30T15:20:58Z</time>
      </trkpt>
      <trkpt lat="45.75499" lon="4.65979">
        <ele>370.24</ele>
        <time>2013-11-30T15:20:59Z</time>
      </trkpt>
      <trkpt lat="45.755" lon="4.65981">
        <ele>370.24</ele>
        <time>2013-11-30T15:21:00Z</time>
      </trkpt>
      <trkpt lat="45.75501" lon="4.65982">
        <ele>370.24</ele>
        <time>2013-11-30T15:21:01Z</time>
      </trkpt>
      <trkpt lat="45.75504" lon="4.65986">
        <ele>370.73</ele>
        <time>2013-11-30T15:21:13Z</time>
      </trkpt>
      <trkpt lat="45.75504" lon="4.65986">
        <ele>370.73</ele>
        <time>2013-11-30T15:21:31Z</time>
      </trkpt>
      <trkpt lat="45.75504" lon="4.65986">
        <ele>370.24</ele>
        <time>2013-11-30T15:21:35Z</time>
      </trkpt>
      <trkpt lat="45.75504" lon="4.65989">
        <ele>369.76</ele>
        <time>2013-11-30T15:21:36Z</time>
      </trkpt>
      <trkpt lat="45.75515" lon="4.66031">
        <ele>368.8</ele>
        <time>2013-11-30T15:21:44Z</time>
      </trkpt>
      <trkpt lat="45.75527" lon="4.66084">
        <ele>367.84</ele>
        <time>2013-11-30T15:21:53Z</time>
      </trkpt>
      <trkpt lat="45.75528" lon="4.6609">
        <ele>367.84</ele>
        <time>2013-11-30T15:21:54Z</time>
      </trkpt>
      <trkpt lat="45.7553" lon="4.66096">
        <ele>367.84</ele>
        <time>2013-11-30T15:21:55Z</time>
      </trkpt>
      <trkpt lat="45.75531" lon="4.66102">
        <ele>367.36</ele>
        <time>2013-11-30T15:21:56Z</time>
      </trkpt>
      <trkpt lat="45.75532" lon="4.66108">
        <ele>367.84</ele>
        <time>2013-11-30T15:21:57Z</time>
      </trkpt>
      <trkpt lat="45.75533" lon="4.66113">
        <ele>367.36</ele>
        <time>2013-11-30T15:21:58Z</time>
      </trkpt>
      <trkpt lat="45.75534" lon="4.6612">
        <ele>366.88</ele>
        <time>2013-11-30T15:21:59Z</time>
      </trkpt>
      <trkpt lat="45.75536" lon="4.66126">
        <ele>366.4</ele>
        <time>2013-11-30T15:22:00Z</time>
      </trkpt>
      <trkpt lat="45.75558" lon="4.66177">
        <ele>363.52</ele>
        <time>2013-11-30T15:22:08Z</time>
      </trkpt>
      <trkpt lat="45.7556" lon="4.66183">
        <ele>362.55</ele>
        <time>2013-11-30T15:22:09Z</time>
      </trkpt>
      <trkpt lat="45.75562" lon="4.66189">
        <ele>362.55</ele>
        <time>2013-11-30T15:22:10Z</time>
      </trkpt>
      <trkpt lat="45.75562" lon="4.66196">
        <ele>362.07</ele>
        <time>2013-11-30T15:22:11Z</time>
      </trkpt>
      <trkpt lat="45.75561" lon="4.66211">
        <ele>360.63</ele>
        <time>2013-11-30T15:22:13Z</time>
      </trkpt>
      <trkpt lat="45.7556" lon="4.6622">
        <ele>360.15</ele>
        <time>2013-11-30T15:22:14Z</time>
      </trkpt>
      <trkpt lat="45.75558" lon="4.66228">
        <ele>359.67</ele>
        <time>2013-11-30T15:22:15Z</time>
      </trkpt>
      <trkpt lat="45.75556" lon="4.66235">
        <ele>359.19</ele>
        <time>2013-11-30T15:22:16Z</time>
      </trkpt>
      <trkpt lat="45.75555" lon="4.66243">
        <ele>358.71</ele>
        <time>2013-11-30T15:22:17Z</time>
      </trkpt>
      <trkpt lat="45.75554" lon="4.66251">
        <ele>358.71</ele>
        <time>2013-11-30T15:22:18Z</time>
      </trkpt>
      <trkpt lat="45.75554" lon="4.6626">
        <ele>358.23</ele>
        <time>2013-11-30T15:22:19Z</time>
      </trkpt>
      <trkpt lat="45.75554" lon="4.66269">
        <ele>357.75</ele>
        <time>2013-11-30T15:22:20Z</time>
      </trkpt>
      <trkpt lat="45.75548" lon="4.66345">
        <ele>356.31</ele>
        <time>2013-11-30T15:22:29Z</time>
      </trkpt>
      <trkpt lat="45.75544" lon="4.66368">
        <ele>355.83</ele>
        <time>2013-11-30T15:22:32Z</time>
      </trkpt>
      <trkpt lat="45.75542" lon="4.66375">
        <ele>355.83</ele>
        <time>2013-11-30T15:22:33Z</time>
      </trkpt>
      <trkpt lat="45.75536" lon="4.66397">
        <ele>354.86</ele>
        <time>2013-11-30T15:22:36Z</time>
      </trkpt>
      <trkpt lat="45.75533" lon="4.66412">
        <ele>355.34</ele>
        <time>2013-11-30T15:22:38Z</time>
      </trkpt>
      <trkpt lat="45.75532" lon="4.66421">
        <ele>354.38</ele>
        <time>2013-11-30T15:22:39Z</time>
      </trkpt>
      <trkpt lat="45.75531" lon="4.66429">
        <ele>354.86</ele>
        <time>2013-11-30T15:22:40Z</time>
      </trkpt>
      <trkpt lat="45.75531" lon="4.66437">
        <ele>355.83</ele>
        <time>2013-11-30T15:22:41Z</time>
      </trkpt>
      <trkpt lat="45.75531" lon="4.66446">
        <ele>354.38</ele>
        <time>2013-11-30T15:22:42Z</time>
      </trkpt>
      <trkpt lat="45.75531" lon="4.66452">
        <ele>353.9</ele>
        <time>2013-11-30T15:22:43Z</time>
      </trkpt>
      <trkpt lat="45.75532" lon="4.66455">
        <ele>354.38</ele>
        <time>2013-11-30T15:22:44Z</time>
      </trkpt>
      <trkpt lat="45.75532" lon="4.66459">
        <ele>353.9</ele>
        <time>2013-11-30T15:22:45Z</time>
      </trkpt>
      <trkpt lat="45.75533" lon="4.66462">
        <ele>353.9</ele>
        <time>2013-11-30T15:22:46Z</time>
      </trkpt>
      <trkpt lat="45.75534" lon="4.66466">
        <ele>353.9</ele>
        <time>2013-11-30T15:22:47Z</time>
      </trkpt>
      <trkpt lat="45.75537" lon="4.66487">
        <ele>352.94</ele>
        <time>2013-11-30T15:22:55Z</time>
      </trkpt>
      <trkpt lat="45.75537" lon="4.66487">
        <ele>353.42</ele>
        <time>2013-11-30T15:23:17Z</time>
      </trkpt>
      <trkpt lat="45.75537" lon="4.665">
        <ele>352.94</ele>
        <time>2013-11-30T15:23:32Z</time>
      </trkpt>
      <trkpt lat="45.75539" lon="4.66541">
        <ele>351.5</ele>
        <time>2013-11-30T15:23:40Z</time>
      </trkpt>
      <trkpt lat="45.75538" lon="4.66579">
        <ele>350.06</ele>
        <time>2013-11-30T15:23:49Z</time>
      </trkpt>
      <trkpt lat="45.75537" lon="4.66581">
        <ele>349.1</ele>
        <time>2013-11-30T15:23:50Z</time>
      </trkpt>
      <trkpt lat="45.75536" lon="4.66583">
        <ele>348.13</ele>
        <time>2013-11-30T15:23:51Z</time>
      </trkpt>
      <trkpt lat="45.75534" lon="4.66586">
        <ele>347.17</ele>
        <time>2013-11-30T15:23:53Z</time>
      </trkpt>
      <trkpt lat="45.75535" lon="4.6659">
        <ele>347.17</ele>
        <time>2013-11-30T15:24:05Z</time>
      </trkpt>
      <trkpt lat="45.75535" lon="4.66591">
        <ele>347.17</ele>
        <time>2013-11-30T15:24:16Z</time>
      </trkpt>
      <trkpt lat="45.75535" lon="4.66594">
        <ele>347.17</ele>
        <time>2013-11-30T15:24:20Z</time>
      </trkpt>
      <trkpt lat="45.75535" lon="4.66597">
        <ele>347.65</ele>
        <time>2013-11-30T15:24:22Z</time>
      </trkpt>
      <trkpt lat="45.75535" lon="4.666">
        <ele>346.69</ele>
        <time>2013-11-30T15:24:23Z</time>
      </trkpt>
      <trkpt lat="45.75534" lon="4.66602">
        <ele>346.69</ele>
        <time>2013-11-30T15:24:24Z</time>
      </trkpt>
      <trkpt lat="45.75534" lon="4.66605">
        <ele>347.17</ele>
        <time>2013-11-30T15:24:25Z</time>
      </trkpt>
      <trkpt lat="45.75534" lon="4.66608">
        <ele>347.17</ele>
        <time>2013-11-30T15:24:26Z</time>
      </trkpt>
      <trkpt lat="45.75533" lon="4.66611">
        <ele>346.21</ele>
        <time>2013-11-30T15:24:27Z</time>
      </trkpt>
      <trkpt lat="45.75533" lon="4.66614">
        <ele>346.21</ele>
        <time>2013-11-30T15:24:28Z</time>
      </trkpt>
      <trkpt lat="45.75531" lon="4.66618">
        <ele>345.73</ele>
        <time>2013-11-30T15:24:29Z</time>
      </trkpt>
      <trkpt lat="45.7553" lon="4.66621">
        <ele>345.73</ele>
        <time>2013-11-30T15:24:30Z</time>
      </trkpt>
      <trkpt lat="45.75528" lon="4.66624">
        <ele>346.21</ele>
        <time>2013-11-30T15:24:31Z</time>
      </trkpt>
      <trkpt lat="45.75527" lon="4.66628">
        <ele>345.73</ele>
        <time>2013-11-30T15:24:32Z</time>
      </trkpt>
      <trkpt lat="45.75526" lon="4.66632">
        <ele>345.73</ele>
        <time>2013-11-30T15:24:33Z</time>
      </trkpt>
      <trkpt lat="45.75524" lon="4.66635">
        <ele>346.21</ele>
        <time>2013-11-30T15:24:34Z</time>
      </trkpt>
      <trkpt lat="45.75523" lon="4.6664">
        <ele>346.21</ele>
        <time>2013-11-30T15:24:35Z</time>
      </trkpt>
      <trkpt lat="45.75522" lon="4.66645">
        <ele>345.73</ele>
        <time>2013-11-30T15:24:36Z</time>
      </trkpt>
      <trkpt lat="45.75521" lon="4.6665">
        <ele>345.73</ele>
        <time>2013-11-30T15:24:37Z</time>
      </trkpt>
      <trkpt lat="45.75521" lon="4.66656">
        <ele>345.73</ele>
        <time>2013-11-30T15:24:38Z</time>
      </trkpt>
      <trkpt lat="45.75518" lon="4.66684">
        <ele>343.81</ele>
        <time>2013-11-30T15:24:45Z</time>
      </trkpt>
      <trkpt lat="45.75513" lon="4.66694">
        <ele>341.89</ele>
        <time>2013-11-30T15:24:48Z</time>
      </trkpt>
      <trkpt lat="45.75511" lon="4.66696">
        <ele>340.92</ele>
        <time>2013-11-30T15:24:49Z</time>
      </trkpt>
      <trkpt lat="45.75508" lon="4.66696">
        <ele>340.44</ele>
        <time>2013-11-30T15:24:50Z</time>
      </trkpt>
      <trkpt lat="45.75506" lon="4.66696">
        <ele>339.96</ele>
        <time>2013-11-30T15:24:51Z</time>
      </trkpt>
      <trkpt lat="45.75503" lon="4.66695">
        <ele>339.48</ele>
        <time>2013-11-30T15:24:52Z</time>
      </trkpt>
      <trkpt lat="45.755" lon="4.66694">
        <ele>338.52</ele>
        <time>2013-11-30T15:24:53Z</time>
      </trkpt>
      <trkpt lat="45.75498" lon="4.66694">
        <ele>338.52</ele>
        <time>2013-11-30T15:24:54Z</time>
      </trkpt>
      <trkpt lat="45.75497" lon="4.66693">
        <ele>338.04</ele>
        <time>2013-11-30T15:24:55Z</time>
      </trkpt>
      <trkpt lat="45.75495" lon="4.66695">
        <ele>338.52</ele>
        <time>2013-11-30T15:25:04Z</time>
      </trkpt>
      <trkpt lat="45.75491" lon="4.667">
        <ele>338.04</ele>
        <time>2013-11-30T15:25:13Z</time>
      </trkpt>
      <trkpt lat="45.75489" lon="4.66702">
        <ele>337.56</ele>
        <time>2013-11-30T15:25:22Z</time>
      </trkpt>
      <trkpt lat="45.75486" lon="4.66706">
        <ele>339</ele>
        <time>2013-11-30T15:25:27Z</time>
      </trkpt>
      <trkpt lat="45.75485" lon="4.66707">
        <ele>339</ele>
        <time>2013-11-30T15:25:28Z</time>
      </trkpt>
      <trkpt lat="45.75482" lon="4.66712">
        <ele>340.44</ele>
        <time>2013-11-30T15:25:34Z</time>
      </trkpt>
      <trkpt lat="45.75481" lon="4.66713">
        <ele>340.44</ele>
        <time>2013-11-30T15:25:35Z</time>
      </trkpt>
      <trkpt lat="45.75476" lon="4.66725">
        <ele>342.37</ele>
        <time>2013-11-30T15:25:46Z</time>
      </trkpt>
      <trkpt lat="45.75472" lon="4.66733">
        <ele>343.81</ele>
        <time>2013-11-30T15:25:55Z</time>
      </trkpt>
      <trkpt lat="45.7547" lon="4.66736">
        <ele>344.77</ele>
        <time>2013-11-30T15:26:04Z</time>
      </trkpt>
      <trkpt lat="45.75462" lon="4.66748">
        <ele>346.69</ele>
        <time>2013-11-30T15:26:14Z</time>
      </trkpt>
      <trkpt lat="45.75453" lon="4.66755">
        <ele>348.13</ele>
        <time>2013-11-30T15:26:25Z</time>
      </trkpt>
      <trkpt lat="45.75448" lon="4.66757">
        <ele>349.1</ele>
        <time>2013-11-30T15:26:33Z</time>
      </trkpt>
      <trkpt lat="45.75441" lon="4.66761">
        <ele>351.02</ele>
        <time>2013-11-30T15:26:43Z</time>
      </trkpt>
      <trkpt lat="45.75436" lon="4.66763">
        <ele>351.02</ele>
        <time>2013-11-30T15:26:49Z</time>
      </trkpt>
      <trkpt lat="45.7543" lon="4.66765">
        <ele>351.5</ele>
        <time>2013-11-30T15:26:57Z</time>
      </trkpt>
      <trkpt lat="45.7542" lon="4.66771">
        <ele>352.46</ele>
        <time>2013-11-30T15:27:07Z</time>
      </trkpt>
      <trkpt lat="45.7541" lon="4.66777">
        <ele>354.38</ele>
        <time>2013-11-30T15:27:18Z</time>
      </trkpt>
      <trkpt lat="45.75405" lon="4.66781">
        <ele>354.86</ele>
        <time>2013-11-30T15:27:25Z</time>
      </trkpt>
      <trkpt lat="45.75402" lon="4.66784">
        <ele>355.83</ele>
        <time>2013-11-30T15:27:27Z</time>
      </trkpt>
      <trkpt lat="45.75401" lon="4.66785">
        <ele>355.34</ele>
        <time>2013-11-30T15:27:28Z</time>
      </trkpt>
      <trkpt lat="45.75399" lon="4.66786">
        <ele>355.34</ele>
        <time>2013-11-30T15:27:29Z</time>
      </trkpt>
      <trkpt lat="45.75398" lon="4.66787">
        <ele>355.83</ele>
        <time>2013-11-30T15:27:30Z</time>
      </trkpt>
      <trkpt lat="45.75396" lon="4.66788">
        <ele>355.34</ele>
        <time>2013-11-30T15:27:31Z</time>
      </trkpt>
      <trkpt lat="45.75385" lon="4.66796">
        <ele>356.31</ele>
        <time>2013-11-30T15:27:38Z</time>
      </trkpt>
      <trkpt lat="45.75383" lon="4.66797">
        <ele>356.79</ele>
        <time>2013-11-30T15:27:39Z</time>
      </trkpt>
      <trkpt lat="45.75381" lon="4.66798">
        <ele>356.79</ele>
        <time>2013-11-30T15:27:40Z</time>
      </trkpt>
      <trkpt lat="45.7538" lon="4.66799">
        <ele>356.79</ele>
        <time>2013-11-30T15:27:41Z</time>
      </trkpt>
      <trkpt lat="45.75379" lon="4.668">
        <ele>356.79</ele>
        <time>2013-11-30T15:27:42Z</time>
      </trkpt>
      <trkpt lat="45.75377" lon="4.66802">
        <ele>356.79</ele>
        <time>2013-11-30T15:27:43Z</time>
      </trkpt>
      <trkpt lat="45.7536" lon="4.66814">
        <ele>357.75</ele>
        <time>2013-11-30T15:27:53Z</time>
      </trkpt>
      <trkpt lat="45.75356" lon="4.66816">
        <ele>358.71</ele>
        <time>2013-11-30T15:28:00Z</time>
      </trkpt>
      <trkpt lat="45.75356" lon="4.66816">
        <ele>357.75</ele>
        <time>2013-11-30T15:28:13Z</time>
      </trkpt>
      <trkpt lat="45.75356" lon="4.66816">
        <ele>358.23</ele>
        <time>2013-11-30T15:28:28Z</time>
      </trkpt>
      <trkpt lat="45.75356" lon="4.66816">
        <ele>357.75</ele>
        <time>2013-11-30T15:28:48Z</time>
      </trkpt>
      <trkpt lat="45.75356" lon="4.66816">
        <ele>358.23</ele>
        <time>2013-11-30T15:28:59Z</time>
      </trkpt>
      <trkpt lat="45.75347" lon="4.66823">
        <ele>358.23</ele>
        <time>2013-11-30T15:29:08Z</time>
      </trkpt>
      <trkpt lat="45.75331" lon="4.66834">
        <ele>358.71</ele>
        <time>2013-11-30T15:29:18Z</time>
      </trkpt>
      <trkpt lat="45.75311" lon="4.66846">
        <ele>359.19</ele>
        <time>2013-11-30T15:29:28Z</time>
      </trkpt>
      <trkpt lat="45.75281" lon="4.66862">
        <ele>358.23</ele>
        <time>2013-11-30T15:29:36Z</time>
      </trkpt>
      <trkpt lat="45.75276" lon="4.66864">
        <ele>358.23</ele>
        <time>2013-11-30T15:29:37Z</time>
      </trkpt>
      <trkpt lat="45.7524" lon="4.66874">
        <ele>356.79</ele>
        <time>2013-11-30T15:29:45Z</time>
      </trkpt>
      <trkpt lat="45.75236" lon="4.66877">
        <ele>356.79</ele>
        <time>2013-11-30T15:29:46Z</time>
      </trkpt>
      <trkpt lat="45.75228" lon="4.66884">
        <ele>357.27</ele>
        <time>2013-11-30T15:29:48Z</time>
      </trkpt>
      <trkpt lat="45.75224" lon="4.66887">
        <ele>357.27</ele>
        <time>2013-11-30T15:29:49Z</time>
      </trkpt>
      <trkpt lat="45.7522" lon="4.66891">
        <ele>357.27</ele>
        <time>2013-11-30T15:29:50Z</time>
      </trkpt>
      <trkpt lat="45.75201" lon="4.66909">
        <ele>357.27</ele>
        <time>2013-11-30T15:29:55Z</time>
      </trkpt>
      <trkpt lat="45.75198" lon="4.66913">
        <ele>357.75</ele>
        <time>2013-11-30T15:29:56Z</time>
      </trkpt>
      <trkpt lat="45.75195" lon="4.66916">
        <ele>358.23</ele>
        <time>2013-11-30T15:29:57Z</time>
      </trkpt>
      <trkpt lat="45.7517" lon="4.6694">
        <ele>360.63</ele>
        <time>2013-11-30T15:30:05Z</time>
      </trkpt>
      <trkpt lat="45.75149" lon="4.66954">
        <ele>363.52</ele>
        <time>2013-11-30T15:30:12Z</time>
      </trkpt>
      <trkpt lat="45.75132" lon="4.66969">
        <ele>365.44</ele>
        <time>2013-11-30T15:30:21Z</time>
      </trkpt>
      <trkpt lat="45.75114" lon="4.66989">
        <ele>366.4</ele>
        <time>2013-11-30T15:30:31Z</time>
      </trkpt>
      <trkpt lat="45.75097" lon="4.67023">
        <ele>367.36</ele>
        <time>2013-11-30T15:30:43Z</time>
      </trkpt>
      <trkpt lat="45.75082" lon="4.67064">
        <ele>366.4</ele>
        <time>2013-11-30T15:30:53Z</time>
      </trkpt>
      <trkpt lat="45.75064" lon="4.67094">
        <ele>366.88</ele>
        <time>2013-11-30T15:31:01Z</time>
      </trkpt>
      <trkpt lat="45.75042" lon="4.67125">
        <ele>367.84</ele>
        <time>2013-11-30T15:31:11Z</time>
      </trkpt>
      <trkpt lat="45.75014" lon="4.67174">
        <ele>368.8</ele>
        <time>2013-11-30T15:31:23Z</time>
      </trkpt>
      <trkpt lat="45.7499" lon="4.67215">
        <ele>368.8</ele>
        <time>2013-11-30T15:31:34Z</time>
      </trkpt>
      <trkpt lat="45.74959" lon="4.67266">
        <ele>370.73</ele>
        <time>2013-11-30T15:31:48Z</time>
      </trkpt>
      <trkpt lat="45.7493" lon="4.67302">
        <ele>371.69</ele>
        <time>2013-11-30T15:32:00Z</time>
      </trkpt>
      <trkpt lat="45.74901" lon="4.6732">
        <ele>374.09</ele>
        <time>2013-11-30T15:32:10Z</time>
      </trkpt>
      <trkpt lat="45.74868" lon="4.67336">
        <ele>375.53</ele>
        <time>2013-11-30T15:32:22Z</time>
      </trkpt>
      <trkpt lat="45.74854" lon="4.67342">
        <ele>375.53</ele>
        <time>2013-11-30T15:32:28Z</time>
      </trkpt>
      <trkpt lat="45.74847" lon="4.67365">
        <ele>375.05</ele>
        <time>2013-11-30T15:32:35Z</time>
      </trkpt>
      <trkpt lat="45.74843" lon="4.67416">
        <ele>375.05</ele>
        <time>2013-11-30T15:32:45Z</time>
      </trkpt>
      <trkpt lat="45.74843" lon="4.67469">
        <ele>371.69</ele>
        <time>2013-11-30T15:32:53Z</time>
      </trkpt>
      <trkpt lat="45.74841" lon="4.67498">
        <ele>375.53</ele>
        <time>2013-11-30T15:32:57Z</time>
      </trkpt>
      <trkpt lat="45.74839" lon="4.67539">
        <ele>372.65</ele>
        <time>2013-11-30T15:33:02Z</time>
      </trkpt>
      <trkpt lat="45.74837" lon="4.67583">
        <ele>370.24</ele>
        <time>2013-11-30T15:33:07Z</time>
      </trkpt>
      <trkpt lat="45.74836" lon="4.67616">
        <ele>365.92</ele>
        <time>2013-11-30T15:33:11Z</time>
      </trkpt>
      <trkpt lat="45.74835" lon="4.67624">
        <ele>366.88</ele>
        <time>2013-11-30T15:33:12Z</time>
      </trkpt>
      <trkpt lat="45.74835" lon="4.67641">
        <ele>365.44</ele>
        <time>2013-11-30T15:33:14Z</time>
      </trkpt>
      <trkpt lat="45.74834" lon="4.67649">
        <ele>365.92</ele>
        <time>2013-11-30T15:33:15Z</time>
      </trkpt>
      <trkpt lat="45.74833" lon="4.67658">
        <ele>365.44</ele>
        <time>2013-11-30T15:33:16Z</time>
      </trkpt>
      <trkpt lat="45.74831" lon="4.67698">
        <ele>366.4</ele>
        <time>2013-11-30T15:33:21Z</time>
      </trkpt>
      <trkpt lat="45.74815" lon="4.67802">
        <ele>364</ele>
        <time>2013-11-30T15:33:33Z</time>
      </trkpt>
      <trkpt lat="45.74801" lon="4.67882">
        <ele>363.52</ele>
        <time>2013-11-30T15:33:43Z</time>
      </trkpt>
      <trkpt lat="45.74799" lon="4.67895">
        <ele>363.04</ele>
        <time>2013-11-30T15:33:45Z</time>
      </trkpt>
      <trkpt lat="45.74785" lon="4.6796">
        <ele>358.23</ele>
        <time>2013-11-30T15:33:53Z</time>
      </trkpt>
      <trkpt lat="45.7478" lon="4.67977">
        <ele>361.11</ele>
        <time>2013-11-30T15:33:55Z</time>
      </trkpt>
      <trkpt lat="45.74765" lon="4.68035">
        <ele>359.19</ele>
        <time>2013-11-30T15:34:01Z</time>
      </trkpt>
      <trkpt lat="45.74758" lon="4.68086">
        <ele>357.27</ele>
        <time>2013-11-30T15:34:06Z</time>
      </trkpt>
      <trkpt lat="45.74757" lon="4.6813">
        <ele>356.31</ele>
        <time>2013-11-30T15:34:10Z</time>
      </trkpt>
      <trkpt lat="45.74759" lon="4.68197">
        <ele>354.86</ele>
        <time>2013-11-30T15:34:16Z</time>
      </trkpt>
      <trkpt lat="45.74759" lon="4.68273">
        <ele>351.98</ele>
        <time>2013-11-30T15:34:23Z</time>
      </trkpt>
      <trkpt lat="45.74759" lon="4.68292">
        <ele>351.02</ele>
        <time>2013-11-30T15:34:25Z</time>
      </trkpt>
      <trkpt lat="45.74759" lon="4.68312">
        <ele>350.54</ele>
        <time>2013-11-30T15:34:27Z</time>
      </trkpt>
      <trkpt lat="45.74759" lon="4.68343">
        <ele>349.1</ele>
        <time>2013-11-30T15:34:30Z</time>
      </trkpt>
      <trkpt lat="45.7476" lon="4.68354">
        <ele>349.1</ele>
        <time>2013-11-30T15:34:31Z</time>
      </trkpt>
      <trkpt lat="45.74763" lon="4.684">
        <ele>346.69</ele>
        <time>2013-11-30T15:34:35Z</time>
      </trkpt>
      <trkpt lat="45.74764" lon="4.68455">
        <ele>343.81</ele>
        <time>2013-11-30T15:34:40Z</time>
      </trkpt>
      <trkpt lat="45.74764" lon="4.68466">
        <ele>343.81</ele>
        <time>2013-11-30T15:34:41Z</time>
      </trkpt>
      <trkpt lat="45.74764" lon="4.68478">
        <ele>343.33</ele>
        <time>2013-11-30T15:34:42Z</time>
      </trkpt>
      <trkpt lat="45.74762" lon="4.68489">
        <ele>341.89</ele>
        <time>2013-11-30T15:34:43Z</time>
      </trkpt>
      <trkpt lat="45.7476" lon="4.685">
        <ele>341.89</ele>
        <time>2013-11-30T15:34:44Z</time>
      </trkpt>
      <trkpt lat="45.74756" lon="4.68511">
        <ele>341.41</ele>
        <time>2013-11-30T15:34:45Z</time>
      </trkpt>
      <trkpt lat="45.74748" lon="4.68534">
        <ele>338.04</ele>
        <time>2013-11-30T15:34:47Z</time>
      </trkpt>
      <trkpt lat="45.74744" lon="4.68546">
        <ele>338.04</ele>
        <time>2013-11-30T15:34:48Z</time>
      </trkpt>
      <trkpt lat="45.74729" lon="4.68591">
        <ele>335.64</ele>
        <time>2013-11-30T15:34:52Z</time>
      </trkpt>
      <trkpt lat="45.74727" lon="4.68603">
        <ele>334.68</ele>
        <time>2013-11-30T15:34:53Z</time>
      </trkpt>
      <trkpt lat="45.74725" lon="4.68616">
        <ele>334.2</ele>
        <time>2013-11-30T15:34:54Z</time>
      </trkpt>
      <trkpt lat="45.74724" lon="4.68629">
        <ele>334.2</ele>
        <time>2013-11-30T15:34:55Z</time>
      </trkpt>
      <trkpt lat="45.74723" lon="4.68683">
        <ele>330.35</ele>
        <time>2013-11-30T15:34:59Z</time>
      </trkpt>
      <trkpt lat="45.74724" lon="4.68696">
        <ele>330.35</ele>
        <time>2013-11-30T15:35:00Z</time>
      </trkpt>
      <trkpt lat="45.74734" lon="4.68817">
        <ele>327.95</ele>
        <time>2013-11-30T15:35:10Z</time>
      </trkpt>
      <trkpt lat="45.74735" lon="4.68828">
        <ele>327.95</ele>
        <time>2013-11-30T15:35:11Z</time>
      </trkpt>
      <trkpt lat="45.74735" lon="4.68839">
        <ele>327.95</ele>
        <time>2013-11-30T15:35:12Z</time>
      </trkpt>
      <trkpt lat="45.74736" lon="4.68849">
        <ele>327.47</ele>
        <time>2013-11-30T15:35:13Z</time>
      </trkpt>
      <trkpt lat="45.74737" lon="4.68891">
        <ele>327.47</ele>
        <time>2013-11-30T15:35:19Z</time>
      </trkpt>
      <trkpt lat="45.74737" lon="4.68902">
        <ele>326.99</ele>
        <time>2013-11-30T15:35:21Z</time>
      </trkpt>
      <trkpt lat="45.74737" lon="4.68908">
        <ele>326.99</ele>
        <time>2013-11-30T15:35:22Z</time>
      </trkpt>
      <trkpt lat="45.74737" lon="4.68914">
        <ele>327.47</ele>
        <time>2013-11-30T15:35:23Z</time>
      </trkpt>
      <trkpt lat="45.74734" lon="4.68945">
        <ele>326.99</ele>
        <time>2013-11-30T15:35:29Z</time>
      </trkpt>
      <trkpt lat="45.74733" lon="4.68949">
        <ele>326.5</ele>
        <time>2013-11-30T15:35:30Z</time>
      </trkpt>
      <trkpt lat="45.74733" lon="4.68953">
        <ele>326.02</ele>
        <time>2013-11-30T15:35:31Z</time>
      </trkpt>
      <trkpt lat="45.74734" lon="4.68957">
        <ele>326.02</ele>
        <time>2013-11-30T15:35:32Z</time>
      </trkpt>
      <trkpt lat="45.74736" lon="4.6896">
        <ele>326.99</ele>
        <time>2013-11-30T15:35:33Z</time>
      </trkpt>
      <trkpt lat="45.74736" lon="4.68963">
        <ele>326.5</ele>
        <time>2013-11-30T15:35:34Z</time>
      </trkpt>
      <trkpt lat="45.74737" lon="4.68967">
        <ele>326.99</ele>
        <time>2013-11-30T15:35:36Z</time>
      </trkpt>
      <trkpt lat="45.74737" lon="4.68968">
        <ele>326.5</ele>
        <time>2013-11-30T15:35:47Z</time>
      </trkpt>
      <trkpt lat="45.74737" lon="4.68968">
        <ele>326.5</ele>
        <time>2013-11-30T15:35:59Z</time>
      </trkpt>
      <trkpt lat="45.74737" lon="4.6897">
        <ele>326.5</ele>
        <time>2013-11-30T15:36:00Z</time>
      </trkpt>
      <trkpt lat="45.74737" lon="4.68972">
        <ele>326.5</ele>
        <time>2013-11-30T15:36:01Z</time>
      </trkpt>
      <trkpt lat="45.74737" lon="4.68975">
        <ele>326.02</ele>
        <time>2013-11-30T15:36:02Z</time>
      </trkpt>
      <trkpt lat="45.74736" lon="4.68978">
        <ele>326.02</ele>
        <time>2013-11-30T15:36:03Z</time>
      </trkpt>
      <trkpt lat="45.74737" lon="4.68982">
        <ele>326.02</ele>
        <time>2013-11-30T15:36:04Z</time>
      </trkpt>
      <trkpt lat="45.74737" lon="4.68986">
        <ele>326.5</ele>
        <time>2013-11-30T15:36:05Z</time>
      </trkpt>
      <trkpt lat="45.74737" lon="4.68991">
        <ele>326.99</ele>
        <time>2013-11-30T15:36:06Z</time>
      </trkpt>
      <trkpt lat="45.74736" lon="4.68997">
        <ele>326.99</ele>
        <time>2013-11-30T15:36:07Z</time>
      </trkpt>
      <trkpt lat="45.74738" lon="4.69026">
        <ele>326.02</ele>
        <time>2013-11-30T15:36:13Z</time>
      </trkpt>
      <trkpt lat="45.74737" lon="4.69039">
        <ele>325.06</ele>
        <time>2013-11-30T15:36:16Z</time>
      </trkpt>
      <trkpt lat="45.74738" lon="4.69042">
        <ele>325.06</ele>
        <time>2013-11-30T15:36:17Z</time>
      </trkpt>
      <trkpt lat="45.74738" lon="4.69047">
        <ele>325.06</ele>
        <time>2013-11-30T15:36:18Z</time>
      </trkpt>
      <trkpt lat="45.74737" lon="4.69051">
        <ele>325.54</ele>
        <time>2013-11-30T15:36:19Z</time>
      </trkpt>
      <trkpt lat="45.74736" lon="4.69055">
        <ele>325.54</ele>
        <time>2013-11-30T15:36:20Z</time>
      </trkpt>
      <trkpt lat="45.74733" lon="4.69085">
        <ele>324.1</ele>
        <time>2013-11-30T15:36:28Z</time>
      </trkpt>
      <trkpt lat="45.74738" lon="4.69137">
        <ele>324.1</ele>
        <time>2013-11-30T15:36:38Z</time>
      </trkpt>
      <trkpt lat="45.74742" lon="4.69145">
        <ele>324.58</ele>
        <time>2013-11-30T15:36:40Z</time>
      </trkpt>
      <trkpt lat="45.74744" lon="4.69147">
        <ele>324.58</ele>
        <time>2013-11-30T15:36:41Z</time>
      </trkpt>
      <trkpt lat="45.74746" lon="4.69149">
        <ele>324.1</ele>
        <time>2013-11-30T15:36:42Z</time>
      </trkpt>
      <trkpt lat="45.74748" lon="4.69152">
        <ele>324.1</ele>
        <time>2013-11-30T15:36:43Z</time>
      </trkpt>
      <trkpt lat="45.74749" lon="4.69156">
        <ele>324.58</ele>
        <time>2013-11-30T15:36:44Z</time>
      </trkpt>
      <trkpt lat="45.74755" lon="4.69172">
        <ele>324.1</ele>
        <time>2013-11-30T15:36:48Z</time>
      </trkpt>
      <trkpt lat="45.74756" lon="4.69177">
        <ele>324.58</ele>
        <time>2013-11-30T15:36:49Z</time>
      </trkpt>
      <trkpt lat="45.74766" lon="4.69204">
        <ele>324.1</ele>
        <time>2013-11-30T15:36:57Z</time>
      </trkpt>
      <trkpt lat="45.74779" lon="4.69232">
        <ele>325.06</ele>
        <time>2013-11-30T15:37:05Z</time>
      </trkpt>
      <trkpt lat="45.74781" lon="4.69237">
        <ele>325.06</ele>
        <time>2013-11-30T15:37:06Z</time>
      </trkpt>
      <trkpt lat="45.74804" lon="4.69282">
        <ele>323.14</ele>
        <time>2013-11-30T15:37:16Z</time>
      </trkpt>
      <trkpt lat="45.7482" lon="4.69309">
        <ele>322.66</ele>
        <time>2013-11-30T15:37:25Z</time>
      </trkpt>
      <trkpt lat="45.74824" lon="4.69309">
        <ele>322.66</ele>
        <time>2013-11-30T15:37:27Z</time>
      </trkpt>
      <trkpt lat="45.74825" lon="4.69308">
        <ele>322.66</ele>
        <time>2013-11-30T15:37:28Z</time>
      </trkpt>
      <trkpt lat="45.74827" lon="4.69307">
        <ele>322.66</ele>
        <time>2013-11-30T15:37:29Z</time>
      </trkpt>
      <trkpt lat="45.7483" lon="4.69308">
        <ele>323.14</ele>
        <time>2013-11-30T15:37:30Z</time>
      </trkpt>
      <trkpt lat="45.74832" lon="4.6931">
        <ele>323.14</ele>
        <time>2013-11-30T15:37:31Z</time>
      </trkpt>
      <trkpt lat="45.74834" lon="4.69313">
        <ele>323.14</ele>
        <time>2013-11-30T15:37:32Z</time>
      </trkpt>
      <trkpt lat="45.74839" lon="4.6932">
        <ele>323.14</ele>
        <time>2013-11-30T15:37:35Z</time>
      </trkpt>
      <trkpt lat="45.74841" lon="4.69321">
        <ele>323.14</ele>
        <time>2013-11-30T15:37:36Z</time>
      </trkpt>
    </trkseg>
  </trk>
</gpx>